[[{"header":{"parameterUnit":"m.s-1","parameterCategory":1,"la1":30.6,"la2":29.2853,"lo1":-89.7004,"lo2":-87.6739,"dy":0.0162,"dx":0.0183,"nx":112,"ny":82,"refTime":"2024-03-20T12:00:00:Z","depth":0,"parameterNumber":2,"parameterNumberName":"U-component_of_WINDS"},"data":[0.0,0.0,0.0,0.0,0.0,0.0,0.0,0.0,0.0,0.0,0.0,0.0,0.0,0.0,0.0,0.0,0.0,0.0,0.0,0.0,0.0,0.0,0.0,0.0,0.0,0.0,0.0,0.0,0.0,0.0,0.0,0.0,0.0,0.0,0.0,0.0,0.0,0.0,0.0,0.0,0.0,0.0,0.0,0.0,0.0,0.0,0.0,0.0,0.0,0.0,0.0,0.0,0.0,0.0,0.0,0.0,0.0,0.0,0.0,0.0,0.0,0.0,0.0,0.0,0.0,0.0,0.0,0.0,0.0,0.0,0.0,0.0,0.0,0.0,0.0,0.0,0.0,0.0,0.0,0.0,0.0,0.0,0.0,0.0,0.0,0.0,0.0,0.0,0.0,0.0,-1.8296,-1.9824,-2.2158,-2.331,-2.2613,-2.2553,-2.1156,-1.7908,0.0,0.0,0.0,0.0,0.0,0.0,0.0,0.0,0.0,0.0,0.0,0.0,0.0,0.0,0.0,0.0,0.0,0.0,0.0,0.0,0.0,0.0,0.0,0.0,0.0,0.0,0.0,0.0,0.0,0.0,0.0,0.0,0.0,0.0,0.0,0.0,0.0,0.0,0.0,0.0,0.0,0.0,0.0,0.0,0.0,0.0,0.0,0.0,0.0,0.0,0.0,0.0,0.0,0.0,0.0,0.0,0.0,0.0,0.0,0.0,0.0,0.0,0.0,0.0,0.0,0.0,0.0,0.0,0.0,0.0,0.0,0.0,0.0,0.0,0.0,0.0,0.0,0.0,0.0,0.0,0.0,0.0,0.0,0.0,0.0,0.0,0.0,0.0,0.0,0.0,0.0,0.0,0.0,0.0,0.0,0.0,0.0,0.0,0.0,0.0,0.0,0.0,0.0,0.0,-1.8655,-2.1126,-2.2712,-2.3131,-2.1949,-2.1844,-2.0662,-1.7878,0.0,0.0,0.0,0.0,0.0,0.0,0.0,0.0,0.0,0.0,0.0,0.0,0.0,0.0,0.0,0.0,0.0,0.0,0.0,0.0,0.0,0.0,0.0,0.0,0.0,0.0,0.0,0.0,0.0,0.0,0.0,0.0,0.0,0.0,0.0,0.0,0.0,0.0,0.0,0.0,0.0,0.0,0.0,0.0,0.0,0.0,0.0,0.0,0.0,0.0,0.0,0.0,0.0,0.0,0.0,0.0,0.0,0.0,0.0,0.0,0.0,0.0,0.0,0.0,0.0,0.0,0.0,0.0,0.0,0.0,0.0,0.0,0.0,0.0,0.0,0.0,0.0,0.0,0.0,0.0,0.0,0.0,0.0,0.0,0.0,0.0,0.0,0.0,0.0,0.0,0.0,0.0,0.0,0.0,0.0,0.0,0.0,0.0,0.0,0.0,0.0,0.0,0.0,-1.8371,-1.9525,-2.1485,-2.2218,-2.2323,-2.1739,-2.1365,-2.0314,-1.8371,-1.8192,0.0,0.0,0.0,0.0,0.0,0.0,0.0,0.0,0.0,0.0,0.0,0.0,0.0,0.0,0.0,0.0,0.0,0.0,0.0,0.0,0.0,0.0,0.0,0.0,0.0,0.0,0.0,0.0,0.0,0.0,0.0,0.0,0.0,0.0,0.0,0.0,0.0,0.0,0.0,0.0,0.0,0.0,0.0,0.0,0.0,0.0,0.0,0.0,0.0,0.0,0.0,0.0,0.0,0.0,0.0,0.0,0.0,0.0,0.0,0.0,0.0,0.0,0.0,0.0,0.0,0.0,0.0,0.0,0.0,0.0,0.0,0.0,0.0,0.0,0.0,0.0,0.0,0.0,0.0,0.0,0.0,0.0,0.0,0.0,0.0,0.0,0.0,0.0,0.0,0.0,0.0,0.0,0.0,0.0,0.0,0.0,0.0,0.0,0.0,0.0,0.0,0.0,-1.942,-2.0333,-2.135,-2.1605,-2.1635,-2.1485,-2.0688,-1.9776,-1.8745,-1.779,0.0,0.0,0.0,0.0,0.0,0.0,0.0,0.0,0.0,0.0,0.0,0.0,0.0,0.0,0.0,0.0,0.0,0.0,0.0,0.0,0.0,0.0,0.0,0.0,0.0,0.0,0.0,0.0,0.0,0.0,0.0,0.0,0.0,0.0,0.0,0.0,0.0,0.0,0.0,0.0,0.0,0.0,0.0,0.0,0.0,0.0,0.0,0.0,0.0,0.0,0.0,0.0,0.0,0.0,0.0,0.0,0.0,0.0,0.0,0.0,0.0,0.0,0.0,0.0,0.0,0.0,0.0,0.0,0.0,0.0,0.0,0.0,0.0,0.0,0.0,0.0,0.0,0.0,0.0,0.0,0.0,0.0,0.0,0.0,0.0,0.0,0.0,0.0,0.0,0.0,0.0,0.0,0.0,0.0,0.0,0.0,0.0,0.0,0.0,0.0,0.0,0.0,-1.9821,-2.0658,-2.0763,-2.1335,-2.1455,-2.0823,-1.9567,-1.8807,-1.8717,-1.6967,0.0,0.0,0.0,0.0,0.0,0.0,0.0,0.0,0.0,0.0,0.0,0.0,0.0,0.0,0.0,0.0,0.0,0.0,0.0,0.0,0.0,0.0,0.0,0.0,0.0,0.0,0.0,0.0,0.0,0.0,0.0,0.0,0.0,0.0,0.0,0.0,0.0,0.0,0.0,0.0,0.0,0.0,0.0,0.0,0.0,0.0,0.0,0.0,0.0,0.0,0.0,0.0,0.0,0.0,0.0,0.0,0.0,0.0,0.0,0.0,0.0,0.0,0.0,0.0,0.0,0.0,0.0,0.0,0.0,0.0,0.0,0.0,0.0,0.0,0.0,0.0,0.0,0.0,0.0,0.0,0.0,0.0,0.0,0.0,0.0,0.0,0.0,0.0,0.0,0.0,0.0,0.0,0.0,0.0,0.0,0.0,0.0,0.0,0.0,0.0,0.0,0.0,-1.9151,-1.9761,-2.0598,-2.0543,-2.0513,-2.0688,-1.9462,-1.8882,-1.9286,0.0,0.0,0.0,0.0,0.0,0.0,0.0,0.0,0.0,0.0,0.0,0.0,0.0,0.0,0.0,0.0,0.0,0.0,0.0,0.0,0.0,0.0,0.0,0.0,0.0,0.0,0.0,0.0,0.0,0.0,0.0,0.0,0.0,0.0,0.0,0.0,0.0,0.0,0.0,0.0,0.0,0.0,0.0,0.0,0.0,0.0,0.0,0.0,0.0,0.0,0.0,0.0,0.0,0.0,0.0,0.0,0.0,0.0,0.0,0.0,0.0,0.0,0.0,0.0,0.0,0.0,0.0,0.0,0.0,0.0,0.0,0.0,0.0,0.0,0.0,0.0,0.0,0.0,0.0,0.0,0.0,0.0,0.0,0.0,0.0,0.0,0.0,0.0,0.0,0.0,0.0,0.0,0.0,0.0,0.0,0.0,0.0,0.0,0.0,0.0,0.0,0.0,-1.8897,-1.8837,-1.9136,-2.0258,-1.9974,-1.9794,-2.003,-1.8657,-1.8238,-1.9301,0.0,0.0,0.0,0.0,0.0,0.0,0.0,0.0,0.0,0.0,0.0,0.0,0.0,0.0,0.0,0.0,0.0,0.0,0.0,0.0,0.0,0.0,0.0,0.0,0.0,0.0,0.0,0.0,0.0,0.0,0.0,0.0,0.0,0.0,0.0,0.0,0.0,0.0,0.0,0.0,0.0,0.0,0.0,0.0,0.0,0.0,0.0,0.0,0.0,0.0,0.0,0.0,0.0,0.0,0.0,0.0,0.0,0.0,0.0,0.0,0.0,0.0,0.0,0.0,0.0,0.0,0.0,0.0,0.0,0.0,0.0,0.0,0.0,0.0,0.0,0.0,0.0,0.0,0.0,0.0,0.0,0.0,0.0,0.0,0.0,0.0,0.0,0.0,0.0,0.0,0.0,0.0,0.0,0.0,0.0,0.0,0.0,0.0,0.0,0.0,0.0,0.0,-1.9528,-1.9106,-1.8957,-1.9633,-1.9693,-1.9423,-1.8747,-1.6907,-1.6623,0.0,0.0,0.0,0.0,0.0,0.0,0.0,0.0,0.0,0.0,0.0,0.0,0.0,0.0,0.0,0.0,0.0,0.0,0.0,0.0,0.0,0.0,0.0,0.0,0.0,0.0,0.0,0.0,0.0,0.0,0.0,0.0,0.0,0.0,0.0,0.0,0.0,0.0,0.0,0.0,0.0,0.0,0.0,0.0,0.0,0.0,0.0,0.0,0.0,0.0,0.0,0.0,0.0,0.0,0.0,0.0,0.0,0.0,0.0,0.0,0.0,0.0,0.0,0.0,0.0,0.0,0.0,0.0,0.0,0.0,0.0,0.0,0.0,0.0,0.0,0.0,0.0,0.0,0.0,0.0,0.0,0.0,0.0,0.0,0.0,0.0,0.0,0.0,0.0,0.0,0.0,0.0,0.0,0.0,0.0,0.0,0.0,0.0,0.0,0.0,0.0,0.0,0.0,-1.9528,-1.8702,-1.8431,-1.9588,-1.9271,-1.8732,-1.8057,-1.6653,-1.6428,-1.7893,0.0,0.0,0.0,0.0,0.0,0.0,0.0,0.0,0.0,0.0,0.0,0.0,0.0,0.0,0.0,0.0,0.0,0.0,0.0,0.0,0.0,0.0,0.0,0.0,0.0,0.0,0.0,0.0,0.0,0.0,0.0,0.0,0.0,0.0,0.0,0.0,0.0,0.0,0.0,0.0,0.0,0.0,0.0,0.0,0.0,0.0,0.0,0.0,0.0,0.0,0.0,0.0,0.0,0.0,0.0,0.0,0.0,0.0,0.0,0.0,0.0,0.0,0.0,0.0,0.0,0.0,0.0,0.0,0.0,0.0,0.0,0.0,0.0,0.0,0.0,0.0,0.0,0.0,0.0,0.0,0.0,0.0,0.0,0.0,0.0,0.0,0.0,0.0,0.0,0.0,0.0,0.0,0.0,0.0,0.0,0.0,0.0,0.0,0.0,0.0,0.0,0.0,-1.9528,-1.8538,-1.8207,-1.9573,-1.9091,-1.8311,-1.7369,-1.6129,-1.5724,-1.6488,0.0,0.0,0.0,0.0,0.0,0.0,0.0,0.0,0.0,0.0,0.0,0.0,0.0,0.0,0.0,0.0,0.0,0.0,0.0,0.0,0.0,0.0,0.0,0.0,0.0,0.0,0.0,0.0,0.0,0.0,0.0,0.0,0.0,0.0,0.0,0.0,0.0,0.0,0.0,0.0,0.0,0.0,0.0,0.0,0.0,0.0,0.0,0.0,0.0,0.0,0.0,0.0,0.0,0.0,0.0,0.0,0.0,0.0,0.0,0.0,0.0,0.0,0.0,0.0,0.0,0.0,0.0,0.0,0.0,0.0,0.0,0.0,0.0,0.0,0.0,0.0,0.0,0.0,0.0,0.0,0.0,0.0,0.0,0.0,0.0,0.0,0.0,0.0,0.0,0.0,0.0,0.0,0.0,0.0,0.0,0.0,0.0,0.0,0.0,0.0,0.0,0.0,-1.9528,-1.8538,-1.8207,-1.9573,-1.9046,-1.8072,-1.6741,-1.5441,-1.4707,-1.4707,0.0,0.0,0.0,0.0,0.0,0.0,0.0,0.0,0.0,0.0,0.0,0.0,0.0,0.0,0.0,0.0,0.0,0.0,0.0,0.0,0.0,0.0,0.0,0.0,0.0,0.0,0.0,0.0,0.0,0.0,0.0,0.0,0.0,0.0,0.0,0.0,0.0,0.0,0.0,0.0,0.0,0.0,0.0,0.0,0.0,0.0,0.0,0.0,0.0,0.0,0.0,0.0,0.0,0.0,0.0,0.0,0.0,0.0,0.0,0.0,-1.8606,-1.864,0.0,0.0,0.0,0.0,0.0,0.0,0.0,0.0,0.0,0.0,0.0,0.0,0.0,0.0,0.0,0.0,0.0,0.0,0.0,0.0,0.0,0.0,0.0,0.0,0.0,0.0,0.0,0.0,0.0,0.0,0.0,0.0,0.0,0.0,0.0,0.0,0.0,0.0,0.0,0.0,-1.9528,-1.8538,-1.8207,-1.9573,-1.8627,-1.7385,-1.6099,-1.4782,-1.4006,-1.4006,-1.4006,0.0,0.0,0.0,0.0,0.0,0.0,0.0,0.0,0.0,0.0,0.0,0.0,0.0,0.0,0.0,0.0,0.0,0.0,0.0,0.0,0.0,0.0,0.0,0.0,0.0,0.0,0.0,0.0,0.0,0.0,0.0,0.0,0.0,0.0,0.0,0.0,0.0,0.0,0.0,0.0,0.0,0.0,0.0,0.0,0.0,0.0,0.0,0.0,0.0,0.0,0.0,0.0,0.0,0.0,0.0,0.0,0.0,0.0,0.0,-2.0319,-1.9809,0.0,0.0,0.0,0.0,0.0,0.0,0.0,0.0,0.0,0.0,0.0,0.0,0.0,0.0,0.0,0.0,0.0,0.0,0.0,0.0,0.0,0.0,0.0,0.0,0.0,0.0,0.0,0.0,0.0,0.0,0.0,0.0,0.0,0.0,0.0,0.0,0.0,0.0,0.0,0.0,-1.9528,-1.8538,-1.8207,-1.9573,-1.8508,-1.731,-1.6323,-1.4752,-1.3663,-1.3331,-1.363,0.0,0.0,0.0,0.0,0.0,0.0,0.0,0.0,0.0,0.0,0.0,0.0,0.0,0.0,0.0,0.0,0.0,0.0,0.0,0.0,0.0,0.0,0.0,0.0,0.0,0.0,0.0,0.0,0.0,0.0,0.0,0.0,0.0,0.0,0.0,0.0,0.0,0.0,0.0,0.0,0.0,0.0,0.0,0.0,0.0,0.0,0.0,0.0,0.0,0.0,0.0,0.0,0.0,-2.3219,-2.337,-2.3679,-2.2985,-2.2262,-2.1647,-2.2505,-2.147,-1.9301,-2.0732,0.0,0.0,0.0,0.0,0.0,0.0,0.0,0.0,0.0,0.0,0.0,0.0,0.0,0.0,0.0,0.0,0.0,0.0,0.0,0.0,0.0,0.0,-2.0948,-2.0362,-1.9923,-1.9404,-1.847,0.0,0.0,0.0,0.0,0.0,0.0,0.0,0.0,0.0,0.0,0.0,-1.9375,-1.8568,-1.8296,-1.9405,-1.8433,-1.74,-1.6607,-1.4858,-1.351,-1.2834,-1.3316,-1.3481,0.0,0.0,0.0,0.0,0.0,0.0,0.0,0.0,0.0,0.0,0.0,0.0,0.0,0.0,0.0,0.0,0.0,0.0,0.0,0.0,0.0,0.0,0.0,0.0,0.0,0.0,0.0,0.0,0.0,0.0,0.0,0.0,-2.1335,-2.0998,0.0,0.0,0.0,0.0,0.0,0.0,0.0,0.0,0.0,0.0,0.0,0.0,0.0,-2.4915,-2.4359,-2.5264,-2.5714,-2.5649,-2.5358,-2.5383,-2.5678,-2.4608,-2.406,-2.3945,-2.3674,0.0,-2.0281,-2.0223,0.0,0.0,0.0,0.0,0.0,0.0,0.0,0.0,0.0,0.0,0.0,0.0,0.0,0.0,0.0,0.0,0.0,0.0,0.0,0.0,0.0,0.0,-2.0405,-1.9355,-1.8848,-1.8439,-1.7907,-1.8661,-1.9256,-1.8687,-1.8568,-1.8612,0.0,0.0,0.0,0.0,0.0,0.0,-1.8807,-1.8687,-1.8642,-1.8807,-1.8147,-1.722,-1.6024,-1.4618,-1.351,-1.2834,-1.2891,-1.3418,-1.4496,-1.535,0.0,0.0,0.0,0.0,0.0,0.0,0.0,0.0,0.0,0.0,0.0,0.0,0.0,0.0,0.0,0.0,0.0,0.0,0.0,0.0,0.0,0.0,0.0,0.0,0.0,0.0,0.0,0.0,0.0,-2.3018,-2.2816,-2.1622,-2.3114,-2.4107,0.0,0.0,0.0,0.0,0.0,0.0,0.0,0.0,0.0,-2.3694,-2.5236,-2.5698,-2.4913,-2.5877,-2.6288,-2.6091,-2.5943,-2.5822,-2.5699,-2.5261,-2.4784,-2.4277,-2.4149,-2.3416,-2.2265,-2.1943,-2.1747,-2.1684,0.0,0.0,0.0,0.0,-2.182,-2.182,-2.182,-2.16,-2.14,-2.2076,0.0,0.0,0.0,0.0,0.0,0.0,0.0,-2.1634,-2.0873,-2.112,-2.1261,-2.0086,-1.9999,-2.0017,-1.9315,-1.9607,-1.9767,-1.8873,-1.9001,-1.9256,-1.9256,-1.9256,0.0,0.0,0.0,-1.8837,-1.9211,-1.8927,-1.8852,-1.9211,-1.8311,-1.7474,-1.6922,-1.4992,-1.3663,-1.3376,-1.3014,-1.3071,-1.3643,-1.5049,-1.5551,0.0,0.0,0.0,0.0,0.0,0.0,0.0,0.0,0.0,0.0,0.0,0.0,0.0,0.0,0.0,0.0,0.0,0.0,0.0,0.0,0.0,0.0,0.0,0.0,0.0,0.0,0.0,0.0,-2.3536,-2.3622,-2.1962,-2.3571,-2.4576,0.0,0.0,0.0,0.0,0.0,0.0,-2.4493,-2.5264,-2.5338,-2.453,-2.6282,-2.6717,-2.564,-2.6889,-2.7302,-2.6842,-2.6842,-2.6665,-2.6308,-2.5989,-2.5482,-2.4794,-2.4482,-2.4094,-2.3653,-2.3052,-2.231,-2.1612,-2.1912,-2.2141,-2.2279,-2.2076,-2.2023,-2.2023,-2.2023,-2.1874,-2.1772,-2.2161,-2.2296,-2.2296,-2.2296,0.0,0.0,0.0,0.0,-2.2161,-2.1617,-2.1887,-2.2093,-2.1255,-2.1333,-2.1352,-2.05,-2.0297,-1.9977,-1.8908,-1.9091,-1.9435,-1.9435,-1.9435,0.0,-1.9435,-1.9166,-1.9076,-1.9408,-1.9151,-1.9076,-1.9405,-1.8386,-1.7639,-1.7458,-1.5367,-1.4064,-1.4064,-1.3598,-1.331,-1.331,-1.4914,-1.5329,-1.4371,0.0,0.0,0.0,0.0,0.0,0.0,0.0,0.0,0.0,0.0,0.0,0.0,0.0,0.0,0.0,0.0,0.0,0.0,0.0,0.0,0.0,0.0,0.0,0.0,0.0,0.0,0.0,0.0,0.0,-2.1267,-2.3308,0.0,0.0,0.0,0.0,-2.5284,-2.5301,-2.5301,-2.5338,-2.6098,-2.6172,-2.5374,-2.764,-2.8491,-2.7666,-2.9225,-2.9629,-2.8854,-2.8854,-2.8847,-2.8767,-2.724,-2.6525,-2.6382,-2.4876,-2.4022,-2.3606,-2.2248,-2.2062,-2.2522,-2.1612,-2.1684,-2.2212,-2.1512,-2.1258,-2.1258,-2.1258,-2.0754,-2.0356,-2.1823,-2.2296,-2.2296,-2.2296,-2.2296,0.0,0.0,-2.1752,-2.2279,-2.2245,-2.2262,-2.2346,-2.2544,-2.2073,-2.1352,-2.05,-2.0297,-1.9977,-1.8908,-1.8732,-1.8747,-1.8747,0.0,-1.8747,-1.8747,-1.9256,-1.942,-1.8837,-1.9271,-1.9423,-1.8807,-1.8117,-1.7428,-1.6801,-1.5516,-1.4751,-1.4751,-1.4721,-1.4706,-1.4706,-1.5409,-1.5566,-1.5061,-1.5669,0.0,0.0,0.0,0.0,0.0,0.0,0.0,0.0,0.0,0.0,0.0,0.0,0.0,0.0,0.0,0.0,0.0,0.0,0.0,0.0,0.0,0.0,0.0,0.0,0.0,0.0,0.0,0.0,-2.5273,-2.6632,0.0,-2.6484,-2.5841,-2.5663,-2.6129,-2.5686,-2.5631,-2.6135,-2.7438,-2.8014,-2.7732,-2.9567,-3.0411,-3.013,-3.0699,-3.0577,-2.9757,-2.9757,-2.9237,-2.8209,-2.764,-2.6814,-2.5797,-2.5227,-2.4599,-2.3978,-2.3239,-2.2982,-2.2961,-2.2379,-2.2336,-2.2502,-2.2071,-2.1904,-2.1904,-2.1904,-2.1721,-2.1569,-2.211,-2.2296,-2.2296,-2.2296,-2.2296,-2.2245,-2.1989,-2.2446,-2.3004,-2.3004,-2.3359,-2.3617,-2.3246,-2.2949,-2.2405,-2.1038,-2.0764,-2.047,-1.9534,-1.9348,-1.9348,-1.9348,-1.9348,-1.9348,-1.9348,-1.9558,-1.9618,-1.9361,-1.9558,-1.9618,-1.9361,-1.8356,-1.7593,-1.7354,-1.5785,-1.4811,-1.4811,-1.4811,-1.4659,-1.4352,-1.5282,-1.5463,-1.4737,-1.4936,-1.5014,0.0,0.0,0.0,0.0,0.0,0.0,0.0,0.0,0.0,0.0,0.0,0.0,0.0,0.0,0.0,0.0,0.0,0.0,0.0,0.0,0.0,0.0,0.0,0.0,0.0,-2.6717,-2.7687,-2.837,-2.9289,-2.9586,-2.8816,-2.7775,-2.7361,-2.7906,-2.7366,-2.7376,-2.8172,-2.9237,-2.9812,-2.9812,-3.1109,-3.1659,-3.1397,-3.1659,-3.1403,-3.0595,-3.0338,-2.9641,-2.8594,-2.8055,-2.7229,-2.6182,-2.5925,-2.5493,-2.4987,-2.4777,-2.4548,-2.4245,-2.3268,-2.281,-2.2669,-2.25,-2.2527,-2.2682,-2.2682,-2.2513,-2.2296,-2.2296,-2.2296,-2.2296,-2.2296,-2.2296,-2.2296,-2.2296,-2.2835,-2.346,-2.3712,-2.4135,-2.4372,-2.3898,-2.3579,-2.3011,-2.1516,-2.1103,-2.078,-2.0052,-1.98,-1.9708,-1.9708,-1.9708,-1.9783,-1.9989,-1.9824,-1.9783,-2.0004,-1.9824,-1.9708,-1.9708,-1.8508,-1.7713,-1.7713,-1.6308,-1.5351,-1.5155,-1.5321,-1.5137,-1.4472,-1.5359,-1.5467,-1.4577,-1.4227,-1.4404,-1.5097,0.0,0.0,0.0,0.0,0.0,0.0,0.0,0.0,0.0,0.0,0.0,0.0,0.0,0.0,0.0,0.0,0.0,0.0,0.0,0.0,0.0,0.0,0.0,-2.6524,-2.8121,-2.9465,-3.0155,-3.0995,-3.1119,-3.0065,-2.9682,-2.981,-3.0572,-3.039,-3.0589,-3.136,-3.1415,-3.1452,-3.1452,-3.2228,-3.2265,-3.1488,-3.2247,-3.2228,-3.1397,-3.0613,-3.021,-3.0118,-2.8521,-2.7798,-2.775,-2.6961,-2.6602,-2.6602,-2.6602,-2.6594,-2.6339,-2.4127,-2.3056,-2.2751,-2.2721,-2.3,-2.3374,-2.3374,-2.2902,-2.2296,-2.2296,-2.2296,-2.2296,-2.2296,-2.2296,-2.2296,-2.233,-2.2868,-2.3596,-2.4338,-2.4541,-2.4558,-2.4541,-2.4,-2.3137,-2.1935,-2.134,-2.091,-2.043,-2.0013,-1.9741,-1.9708,-1.9708,-1.9914,-2.0554,-2.0109,0.0,-2.0583,-2.0094,-1.9708,-1.9708,-1.8506,-1.7712,-1.7713,-1.71,-1.6443,-1.5844,-1.6323,-1.6186,-1.5118,-1.5632,-1.5555,-1.4682,-1.3718,-1.3574,-1.4306,0.0,0.0,0.0,0.0,0.0,0.0,0.0,0.0,0.0,0.0,0.0,0.0,0.0,0.0,0.0,0.0,0.0,0.0,0.0,0.0,0.0,-2.6774,-2.7274,-2.7505,-3.0025,-3.2167,-3.298,-3.3838,-3.417,-3.3685,-3.248,-3.1645,-3.147,-3.1399,-3.1383,-3.1409,-3.1953,-3.2284,-3.2284,-3.3054,-3.3366,-3.3128,-3.3366,-3.2761,-3.1397,-3.1182,-3.0467,-2.9299,-2.8264,-2.7798,-2.775,-2.6961,-2.6602,-2.6602,-2.6602,-2.6264,-2.5638,-2.4772,-2.4382,-2.4206,-2.3365,-2.2987,-2.2856,-2.2666,-2.2465,-2.2296,-2.2296,-2.2296,-2.2296,-2.2296,-2.2296,-2.2398,-2.2953,-2.3628,-2.4372,-2.5101,-2.5676,-2.5947,-2.5423,-2.5135,-2.4687,-2.352,-2.2718,-2.2021,-2.1299,-2.0985,-2.0617,-1.9822,-1.9708,-1.9768,-1.9962,-1.9828,-1.9768,-1.9944,-1.9813,-1.9708,-1.9708,-1.8942,-1.8222,-1.7743,-1.71,-1.6443,-1.5844,-1.5639,-1.5276,-1.469,-1.4812,-1.4669,-1.4139,-1.3949,-1.3941,0.0,0.0,0.0,0.0,0.0,0.0,0.0,0.0,0.0,0.0,0.0,0.0,0.0,0.0,0.0,0.0,0.0,0.0,0.0,0.0,0.0,0.0,-2.9217,-3.0256,-3.0987,-3.2449,-3.4026,-3.5603,-3.593,-3.608,-3.6289,-3.4702,-3.3819,-3.4205,-3.3353,-3.2894,-3.3118,-3.3108,-3.3096,-3.3096,-3.3568,-3.3807,-3.3807,-3.3807,-3.333,-3.2406,-3.1727,-3.0907,-2.9971,-2.8815,-2.8301,-2.8282,-2.7813,-2.7611,-2.7611,-2.7611,-2.7328,-2.6785,0.0,0.0,0.0,0.0,-2.3756,-2.324,-2.3412,-2.3161,-2.2716,-2.2398,-2.2296,-2.2296,-2.2296,-2.2296,-2.2381,-2.2818,-2.346,-2.4135,-2.456,-2.522,-2.5675,-2.5236,-2.5135,-2.4953,-2.4293,-2.3635,-2.2998,-2.2302,-2.1949,0.0,-2.0306,-2.0124,-2.0213,-2.0501,-2.0067,-1.9813,-2.0079,-1.9869,-1.9708,-1.9708,-1.9091,-1.8433,-1.7773,-1.7339,0.0,0.0,0.0,-1.5492,-1.4858,-1.4513,0.0,0.0,0.0,-1.3972,-1.3727,-1.4299,0.0,0.0,-1.5806,-1.6092,0.0,0.0,0.0,0.0,0.0,0.0,0.0,0.0,0.0,0.0,0.0,0.0,0.0,0.0,0.0,0.0,-3.216,-3.3833,-3.5673,-3.5257,-3.561,-3.7873,-3.7469,-3.7296,-3.8065,-3.6503,-3.6035,-3.7496,-3.5635,-3.4797,-3.5589,-3.4498,0.0,0.0,0.0,-3.3807,-3.3807,-3.3807,-3.3752,-3.3642,-3.221,-3.1452,-3.1231,-2.9787,-2.9097,-2.9005,-2.9005,-2.9005,-2.9005,-2.9005,-2.8895,-2.8528,-2.6374,-2.4811,-2.3884,-2.492,-2.4668,-2.3914,-2.4587,0.0,0.0,-2.2499,-2.2296,-2.2313,-2.2398,-2.2415,-2.2448,-2.2634,-2.3139,-2.3663,-2.3748,-2.4271,-2.4745,-2.4745,-2.4745,-2.4745,-2.4745,-2.4393,-2.3934,-2.3424,-2.2982,-2.2285,-2.1107,-2.079,-2.0868,-2.1395,-2.0453,-1.9899,-2.0494,-2.0064,-1.9708,-1.9708,-1.9166,0.0,-1.7773,-1.7713,-1.7161,-1.5888,-1.6248,-1.6097,-1.5185,-1.4471,-1.4056,-1.3997,-1.3997,-1.374,-1.3198,-1.374,-1.4022,-1.4128,-1.5198,-1.5957,0.0,0.0,0.0,0.0,0.0,0.0,0.0,0.0,0.0,0.0,0.0,0.0,0.0,0.0,0.0,-3.3064,-3.4334,-3.5827,-3.8219,-3.8419,-3.8496,-3.8996,-3.8892,-3.8854,-3.9034,-3.8074,-3.7482,-3.759,-3.6548,-3.6068,-3.6447,-3.4989,-3.432,-3.4747,-3.4137,-3.3807,-3.3807,-3.3807,-3.3476,-3.2821,-3.2509,0.0,-3.0411,-3.0118,-2.961,-2.9005,-2.9005,-2.9005,-2.9005,-2.9005,-2.8235,-2.7024,-2.6557,-2.5444,-2.4101,-2.4057,-2.3755,-2.3321,-2.3197,-2.2884,-2.2496,-2.2347,-2.2296,-2.2398,-2.3004,-2.319,0.0,-2.4628,-2.5052,-2.5321,-2.5913,-2.6183,-2.6268,-2.6268,-2.6268,-2.6268,-2.6268,-2.5746,-2.5145,-2.4726,-2.447,-2.3856,-2.2319,-2.1307,-2.0572,-2.0139,-1.9872,-1.9753,-1.9887,-1.9783,-1.9708,-1.9708,-1.9588,-1.9016,-1.7803,-1.7713,-1.7161,-1.5888,-1.555,-1.5044,-1.4209,-1.4023,-1.3766,-1.3378,-1.3366,-1.3328,-1.3198,-1.3328,-1.3609,-1.4128,-1.5198,-1.5756,0.0,0.0,0.0,0.0,0.0,0.0,0.0,0.0,0.0,0.0,0.0,-3.0161,-3.0528,0.0,-3.3677,-3.5751,-3.6834,-3.7988,-3.9669,-3.99,-3.99,-3.99,-3.9554,-3.9457,-3.9861,-3.8738,-3.8297,-3.8997,-3.7749,-3.7195,-3.7767,-3.6464,-3.5754,-3.5837,-3.5073,-3.4576,-3.4412,-3.4009,-3.3605,-3.3201,-3.2784,-3.2179,-3.1403,-3.098,-3.0356,-2.9592,-2.9592,-2.9372,-2.9005,-2.9005,-2.829,-2.72,-2.72,-2.597,-2.4235,-2.4454,-2.4204,-2.3724,-2.3601,-2.3252,-2.2801,-2.2415,-2.2296,-2.2431,-2.3173,-2.3393,-2.363,-2.4729,-2.505,-2.5118,-2.5506,-2.5608,-2.5692,-2.6065,-2.615,-2.6251,-2.6623,-2.6404,-2.595,-2.5239,-2.5043,-2.4486,-2.2816,-2.1816,-2.0976,-2.0303,-1.9899,-1.9708,-1.9708,-1.9708,-1.9708,-1.9708,-1.9708,-1.9286,-1.8281,-1.7893,-1.7429,-1.6787,-1.6086,-1.5393,-1.474,-1.4252,-1.3885,-1.3647,-1.3353,-1.3353,-1.3647,-1.3353,-1.3353,-1.369,-1.4783,-1.5449,0.0,0.0,0.0,0.0,0.0,0.0,0.0,-2.8789,-2.9511,-3.0342,-3.1668,-3.2921,-3.3699,-3.5052,-3.6568,-3.8226,-3.9065,-3.9765,-4.0419,-4.0496,-4.0439,-4.0285,-3.9823,-3.9785,-4.0439,-3.9277,-3.9046,-4.04,-3.8912,-3.8275,-3.9089,-3.7793,-3.6925,-3.6715,-3.5913,-3.5348,-3.5004,-3.4541,-3.4284,-3.4284,-3.3445,-3.2986,-3.2803,-3.199,-3.1182,-3.0411,-3.0265,-2.9739,-2.9005,-2.9005,-2.8539,-2.7798,-2.7798,-2.6521,-2.474,-2.5393,-2.5084,-2.4337,-2.4387,-2.3954,-2.3274,-2.2533,-2.2482,-2.2835,-2.3427,-2.3714,-2.3985,-2.4728,-2.4931,-2.4931,-2.4931,-2.4931,-2.5083,-2.5676,-2.5812,-2.5981,-2.6573,-2.6691,-2.647,-2.5654,-2.5505,-2.4948,-2.3229,-2.2406,-2.1693,-2.0831,-2.0124,-1.9708,-1.9708,-1.9708,-1.9708,-1.9708,-1.9588,-1.9226,-1.8568,-1.7893,-1.7519,-1.7519,-1.6701,-1.5958,-1.533,-1.4603,-1.4125,-1.3934,-1.3559,-1.3559,-1.3921,-1.3659,-1.3478,-1.3403,-1.4532,-1.5236,-2.5129,-2.539,-2.5909,-2.7574,-2.8066,-2.8945,0.0,-3.2754,-3.3066,-3.3945,-3.4834,-3.5672,-3.6425,-3.7298,-3.8419,-3.9969,-4.0304,-4.04,-4.0496,-4.0496,-4.0227,-3.9515,-3.9996,-4.04,-4.0496,-4.0323,-4.0304,-4.0496,-3.9646,-3.9358,-3.9948,-3.7699,-3.6489,-3.6696,-3.5926,-3.5341,-3.5004,-3.5679,-3.6009,-3.6009,-3.5133,-3.4362,-3.3642,-3.2821,-3.2027,-3.1231,-3.0503,-2.9739,-2.9005,-2.9005,-2.8539,-2.7798,-2.7798,-2.72,-2.6337,-2.6429,-2.5577,-2.4399,-2.4399,-2.3954,-2.3274,-2.2533,-2.319,-2.4271,-2.4355,-2.4831,-2.5507,-2.6251,-2.6454,-2.6454,-2.6454,-2.6454,-2.6471,-2.6556,-2.6573,-2.659,-2.6674,-2.6691,-2.6674,-2.6556,-2.6522,-2.5932,-2.4097,-2.336,-2.2508,-2.0948,-2.0124,-1.9708,-1.9708,-1.9708,-1.9708,-1.9708,-1.9166,-1.8553,-1.7878,-1.7204,-1.6801,-1.6801,-1.6314,-1.561,-1.4657,-1.462,-1.4205,-1.3315,-1.3765,-1.3765,-1.3303,-1.4249,-1.4456,-1.4022,-1.511,-1.5399,-2.5327,-2.6592,-2.8012,-2.8798,-3.0135,-3.1777,-3.3711,-3.4941,-3.5918,-3.6797,-3.8389,-3.957,-3.9357,-3.9915,-4.0614,-4.1267,-4.088,-4.0689,-4.1181,-4.0412,-3.9304,-3.795,-3.8527,-3.9046,-3.9046,-3.9496,-3.9804,-3.9804,-3.9496,-3.94,-3.9629,-3.8134,-3.7484,-3.7913,-3.6945,-3.6514,-3.6692,-3.6435,-3.6046,-3.5555,-3.5697,-3.5073,-3.3807,-3.394,-3.3298,-3.2045,-3.1256,-3.0448,-2.9702,-2.9702,-2.9225,-2.8503,-2.8503,-2.829,-2.7886,-2.695,-2.6088,-2.5362,-2.5118,-2.4746,-2.4305,-2.3752,-2.4,-2.4575,-2.5015,-2.5355,-2.5761,-2.6488,-2.6691,-2.6691,-2.6691,-2.6691,-2.6691,-2.6691,-2.6691,-2.6691,-2.6691,-2.6691,-2.6624,-2.6349,-2.6297,-2.594,-2.4852,-2.3808,-2.2812,-2.1852,-2.0536,-1.9708,-1.9708,-1.9708,-1.9708,-1.9708,-1.9453,-1.9166,-1.8897,-1.8612,-1.8267,-1.7893,-1.7458,-1.6725,-1.5578,-1.537,-1.5069,-1.4664,-1.4299,-1.4286,-1.4644,-1.4507,-1.4475,-1.4576,-1.5349,-1.5567,-2.6097,-2.7823,-2.9659,-3.0397,-3.2361,-3.4414,-3.5527,-3.7129,-3.8555,-3.9199,-4.0755,-4.1792,-4.1113,-4.1201,-4.1494,-4.1904,-4.1176,-4.0846,-4.1681,-4.0142,-3.8387,-3.6909,-3.7095,-3.723,-3.6992,-3.8171,-3.9034,-3.9284,-3.9304,-3.94,-3.9631,-3.8815,-3.8511,-3.8832,-3.801,-3.7676,-3.7914,-3.7128,-3.6398,-3.5683,-3.5862,-3.544,-3.4504,-3.4839,-3.4124,-3.2564,-3.1971,-3.1146,-3.021,-3.021,-2.9721,-2.9005,-2.9005,-2.9005,-2.8858,-2.7684,-2.6906,-2.6393,-2.6101,-2.5822,-2.5467,-2.4874,-2.4946,-2.5307,-2.5522,-2.5728,-2.6015,-2.6539,-2.6691,-2.6691,-2.6691,-2.6691,-2.6691,-2.6691,-2.6691,-2.6691,-2.6691,-2.6691,-2.6607,-2.6262,-2.6191,-2.5936,-2.515,-2.4061,-2.3062,-2.2297,-2.0859,-1.9836,-1.9711,-1.9708,-1.9633,-1.9435,-1.9405,-1.9346,-1.9151,-1.9151,-1.8867,-1.8192,-1.7906,-1.7306,-1.6281,-1.5862,-1.5654,-1.5714,-1.4942,-1.4846,-1.5487,-1.4997,-1.489,-1.5135,-1.5668,-1.5919,-2.7601,-2.8743,-3.0022,-3.2634,-3.4609,-3.6367,-3.8086,-3.9824,-4.1094,-4.1113,-4.1172,-4.1189,-4.1037,-4.0325,-4.0237,-4.1664,-4.1221,-4.0945,-4.1705,-3.9623,-3.7737,-3.6891,-3.6132,-3.5343,-3.4496,-3.6614,-3.8392,-3.9246,-3.9304,-3.965,-4.0419,-3.9708,-3.9161,-3.8898,-3.8804,-3.8466,-3.7914,-3.7869,-3.7715,-3.7401,-3.5793,-3.5463,-3.6193,-3.5371,-3.4124,-3.2601,-3.2564,-3.1647,-3.021,-3.021,-2.9721,-2.9005,-2.9005,-2.9005,-2.8987,-2.895,-2.822,-2.7266,-2.7254,-2.7036,-2.656,-2.5446,-2.6036,-2.7002,-2.5941,-2.6099,-2.6657,-2.6691,-2.6691,-2.6691,-2.6691,-2.6691,-2.6691,-2.6691,-2.6691,-2.6691,-2.6691,-2.6691,-2.6691,-2.6674,-2.6674,-2.6218,-2.4781,-2.4163,-2.3358,-2.1846,-2.0862,-2.0141,-1.9747,-1.9708,-1.9453,-1.8807,-1.8732,-1.8478,-1.7818,-1.7773,-1.7473,-1.6801,-1.6882,-1.6692,-1.6128,-1.5725,-1.5567,-1.5702,-1.5664,-1.5412,-1.4941,-1.5932,-1.6183,-1.568,-1.6233,-1.6475,-2.8732,-3.124,-3.4157,-3.6254,-3.7693,-3.9023,-4.0723,-4.1582,-4.168,-4.0566,-4.0332,-3.9785,-3.8003,-3.7849,-3.8339,-3.9409,-4.0252,-4.1053,-4.1876,-4.0805,-3.899,-3.6433,-3.6333,-3.5679,-3.3698,-3.5253,-3.6723,-3.7514,-3.7565,-3.795,-3.8796,-3.8584,-3.8658,-3.9152,-3.8925,-3.8698,-3.8504,-3.8096,-3.7594,-3.6951,-3.6214,-3.6028,-3.6266,-3.5389,-3.4417,-3.3366,-3.2821,-3.199,-3.0944,-3.0411,-2.9721,-2.9005,-2.9005,-2.9005,-2.9005,-2.9005,-2.8764,-2.8396,-2.8111,-2.7816,-2.743,-2.676,-2.6718,-2.6822,-2.6453,-2.6488,-2.6691,-2.6691,-2.6691,-2.6691,-2.6691,-2.6691,-2.6691,-2.6691,-2.6691,-2.6691,-2.6691,-2.6691,-2.6691,-2.6691,-2.6691,-2.6387,-2.5406,-2.4719,-2.3597,-2.1502,-2.0699,-2.0158,-1.9747,-1.9708,-1.9453,-1.8777,-1.8702,-1.8612,-1.8371,-1.8356,-1.8267,-1.8042,-1.7809,-1.7409,-1.6777,-1.6389,-1.6171,-1.6232,-1.5883,-1.5781,-1.5969,-1.5969,-1.607,-1.6245,-1.6434,-1.65,-3.1108,-3.4073,-3.7211,-3.9339,-4.056,-4.1465,-4.2226,-4.2187,-4.1406,-3.9394,-3.8476,-3.7344,-3.5059,-3.5033,-3.5618,-3.6434,-3.7453,-3.8741,-4.0493,-3.9517,-3.814,-3.6883,-3.6881,-3.6347,-3.4667,-3.5474,-3.6269,-3.6675,-3.7276,-3.7873,-3.843,-3.8738,-3.9142,-3.9708,-3.9237,-3.9069,-3.9271,-3.8288,-3.7277,-3.6273,-3.6091,-3.5805,-3.5404,-3.5114,-3.4564,-3.3752,-3.2949,-3.2137,-3.1342,-3.0522,-2.9721,-2.9005,-2.9005,-2.9005,-2.9005,-2.9005,-2.9005,-2.8952,-2.8694,-2.8386,-2.802,-2.7634,-2.7241,-2.689,-2.6741,-2.6691,-2.6691,-2.6691,-2.6691,-2.6691,-2.6691,-2.6691,-2.6691,-2.6691,-2.6691,-2.6691,-2.6691,-2.6691,-2.6691,-2.6691,-2.6488,-2.6065,-2.5321,-2.4374,-2.3105,-2.1279,-2.0732,-2.0347,-1.9764,-1.9708,-1.9453,-1.8777,-1.8493,-1.8252,-1.8012,-1.8192,-1.8237,-1.7997,-1.8194,-1.8045,-1.7409,-1.6957,-1.6744,-1.6774,-1.6262,-1.617,-1.65,-1.6137,-1.617,-1.65,-1.65,-1.65,-3.4592,-3.71,-3.9169,-4.1774,-4.3033,-4.3398,-4.2539,-4.1641,-4.0254,-3.7598,-3.5644,-3.3926,-3.2246,-3.2012,-3.2321,-3.312,-3.3429,-3.4698,-3.793,-3.6361,-3.5783,-3.82,-3.7842,-3.7338,-3.715,-3.7163,-3.7098,-3.6856,-3.8322,-3.9246,-3.9304,-4.0054,-4.0496,-4.0496,-3.9727,-3.9528,-3.9986,-3.8403,-3.6937,-3.5663,-3.5633,-3.5039,-3.3962,-3.4702,-3.4578,-3.3752,-3.2949,-3.2137,-3.1342,-3.0522,-2.9721,-2.9005,-2.9005,-2.9005,-2.9005,-2.9005,-2.9005,-2.9005,-2.9005,-2.8737,-2.8355,-2.802,-2.7648,-2.7257,-2.6857,-2.6725,-2.6725,-2.6708,-2.6691,-2.6691,-2.6691,-2.6691,-2.6691,-2.6691,-2.6691,-2.6691,-2.6691,-2.6691,-2.6691,-2.6691,-2.6065,-2.5321,-2.4626,-2.3274,-2.202,-2.1166,-2.1023,-2.0698,-1.9818,-1.9708,-1.9438,-1.8732,-1.8117,-1.7458,-1.6756,-1.7354,-1.7473,-1.683,-1.7994,-1.849,-1.7982,-1.7418,-1.7165,-1.7299,-1.6774,-1.65,-1.65,-1.65,-1.65,-1.65,-1.65,-1.65,-3.7036,-3.9691,-4.2285,-4.3728,-4.3368,-4.2435,-4.1555,-3.9778,-3.7383,-3.416,-3.2109,-3.0371,-2.8633,-2.9394,-3.0742,-3.2243,-3.5153,-3.7769,-3.9286,-4.001,-4.017,-3.9587,-3.9829,-3.9751,-3.9089,-3.9466,-3.9474,-3.8764,-3.8484,-3.8604,-3.9265,-4.0054,-4.0496,-4.0496,-3.9727,-3.9042,-3.8538,-3.7855,-3.7565,-3.7672,-3.7619,-3.7011,-3.5962,-3.5546,-3.4794,-3.3752,-3.2949,-3.2137,-3.1342,-3.0522,-2.9721,-2.9005,-2.9005,-2.9005,-2.9005,-2.9005,-2.9005,-2.9005,-2.9005,-2.8737,-2.8394,-2.8303,-2.8034,-2.7663,-2.7272,-2.7147,-2.7083,-2.6774,-2.6691,-2.6691,-2.6691,-2.6691,-2.6691,-2.6691,-2.6691,-2.6691,-2.6691,-2.6691,-2.6691,-2.6691,-2.5659,-2.4728,-2.4525,-2.3274,-2.2106,-2.1538,-2.1445,-2.1023,-1.9854,-1.9708,-1.9241,-1.8072,-1.8252,-1.7968,-1.6801,-1.7773,-1.8371,-1.8192,-1.859,-1.8792,-1.8648,-1.7754,-1.7276,-1.7299,-1.6774,-1.65,-1.65,-1.65,-1.65,-1.65,-1.65,-1.65,-3.9798,-4.2022,-4.3995,-4.4955,-4.4028,-4.2434,-4.0791,-3.8211,-3.5195,-3.1758,-2.9668,-2.8047,-2.668,-2.7226,-2.832,-2.9707,-3.2266,-3.4902,-3.7285,-3.8769,-3.9805,-4.0391,-4.0836,-4.0864,-4.0319,-4.0601,-4.06,-4.0015,-3.9437,-3.9161,-3.9284,-4.0054,-4.0342,-3.9977,-3.9534,-3.8873,-3.8007,-3.7424,-3.7267,-3.7468,-3.6955,-3.6321,-3.5578,-3.5002,-3.4397,-3.3752,-3.2949,-3.2339,-3.1843,-3.0687,-2.9934,-2.9482,-2.9133,-2.9005,-2.9005,-2.9005,-2.9005,-2.9005,-2.9005,-2.8851,-2.8627,-2.8458,-2.8183,-2.7869,-2.7619,-2.756,-2.747,-2.7067,-2.6954,-2.6923,-2.6741,-2.6691,-2.6691,-2.6691,-2.6691,-2.6691,-2.6691,-2.6691,-2.659,-2.6285,-2.5303,-2.4389,-2.4068,-2.3054,-2.2135,-2.1673,-2.1445,-2.0991,-2.0087,-1.9947,-1.9498,-1.827,-1.8493,-1.8267,-1.7234,-1.8102,-1.8565,-1.8267,-1.8658,-1.8669,-1.812,-1.7591,-1.7188,-1.6951,-1.6659,-1.65,-1.65,-1.65,-1.65,-1.65,-1.65,-1.65,-4.2412,-4.394,-4.4802,-4.5434,-4.4399,-4.251,-3.9799,-3.6581,-3.3222,-2.9922,-2.7949,-2.6582,-2.584,-2.5781,-2.6191,-2.7187,-2.8164,-3.0234,-3.4297,-3.5723,-3.7519,-4.0644,-4.1211,-4.1307,-4.1205,-4.1175,-4.1106,-4.0936,-4.0674,-4.0211,-3.9496,-4.0131,-4.0131,-3.9323,-3.9188,-3.8757,-3.8007,-3.7142,-3.6631,-3.6511,-3.5429,-3.4743,-3.4407,-3.4042,-3.3829,-3.3752,-3.3073,-3.2693,-3.2472,-3.098,-3.0301,-3.0118,-2.9317,-2.9005,-2.9005,-2.9005,-2.9005,-2.9005,-2.9005,-2.9005,-2.894,-2.859,-2.8277,-2.8037,-2.7982,-2.7968,-2.7865,-2.7424,-2.7332,-2.727,-2.6808,-2.6791,-2.6824,-2.6725,-2.6741,-2.6775,-2.6708,-2.6691,-2.6505,-2.5879,-2.5152,-2.444,-2.3799,-2.3004,-2.23,-2.1897,-2.1449,-2.0975,-2.0466,-2.0297,-1.9829,-1.8796,-1.8777,-1.8538,-1.7773,-1.8386,-1.8553,-1.7878,-1.8566,-1.8503,-1.7384,-1.7377,-1.7146,-1.6616,-1.6531,-1.65,-1.65,-1.65,-1.65,-1.65,-1.65,-1.65,-4.3739,-4.4735,-4.5269,-4.4702,-4.2866,-4.0364,-3.7121,-3.3796,-3.0638,-2.8006,-2.6597,-2.581,-2.5722,-2.6289,-2.7305,-2.8887,-3.0488,-3.2519,-3.5371,-3.7148,-3.8633,-3.9961,-4.1348,-4.2187,-4.2167,-4.2112,-4.2063,-4.2022,-4.1184,-4.0558,-4.0312,-4.0419,-4.0131,-3.9323,-3.8604,-3.8142,-3.8007,-3.7142,-3.7043,-3.7686,-3.6557,-3.5885,-3.5566,-3.4587,-3.4006,-3.3788,-3.3642,-3.322,-3.2528,-3.1586,-3.0797,-3.0118,-2.9317,-2.9005,-2.9005,-2.9005,-2.9005,-2.9005,-2.9005,-2.9005,-2.8994,-2.8917,-2.887,-2.8755,-2.8407,-2.8316,-2.8166,-2.75,-2.753,-2.7636,-2.689,-2.7194,-2.7515,-2.6857,-2.6938,-2.7099,-2.6775,-2.6691,-2.6657,-2.6522,-2.5913,-2.5372,-2.5253,-2.4103,-2.3192,-2.3102,-2.2507,-2.1781,-2.0975,-2.026,-1.9527,-1.8777,-1.9196,-1.9031,-1.7803,-1.8822,-1.9226,-1.8565,-1.9185,-1.9273,-1.8607,-1.8174,-1.7706,-1.7167,-1.6731,-1.65,-1.65,-1.65,-1.65,-1.65,-1.65,-1.65,-4.4509,-4.5287,-4.5402,-4.4509,-4.1798,-3.8573,-3.5636,-3.2054,-2.8751,-2.6647,-2.5858,-2.5558,-2.5597,-2.5964,-2.6693,-2.7982,-2.8925,-3.0703,-3.416,-3.5762,-3.7402,-3.9629,-4.1016,-4.1601,-4.1133,-4.1481,-4.15,-4.0931,-4.082,-4.0502,-3.996,-3.9451,-3.9008,-3.8642,-3.8219,-3.7777,-3.7334,-3.6904,-3.6692,-3.6692,-3.5996,-3.5605,-3.5439,-3.4584,-3.4135,-3.4012,-3.385,-3.3587,-3.3128,-3.1898,-3.1176,-3.0705,-2.9482,-2.9005,-2.9005,-2.9005,-2.9005,-2.9005,-2.9005,-2.9005,-2.9005,-2.9005,-2.9005,-2.8952,-2.8773,-2.8707,-2.859,-2.8029,-2.8016,-2.8034,-2.747,-2.7604,-2.7754,-2.7162,-2.6987,-2.6939,-2.6741,-2.6691,-2.6691,-2.6691,-2.6099,-2.549,-2.5084,-2.444,-2.3712,-2.2936,-2.2643,-2.2133,-2.1119,-2.0414,-1.9808,-1.9276,-1.9513,-1.9453,-1.8807,-1.9333,-1.9405,-1.8747,-1.9069,-1.8879,-1.7993,-1.7769,-1.7422,-1.69,-1.6637,-1.65,-1.65,-1.65,-1.65,-1.65,-1.65,-1.65,-4.4682,-4.546,-4.5306,-4.4066,-4.0766,-3.7085,-3.4378,-3.0653,-2.7354,-2.5817,-2.5498,-2.5473,-2.5508,-2.5547,-2.5867,-2.6753,-2.6946,-2.8359,-3.2305,-3.3769,-3.5586,-3.8691,-4.0,-4.0449,-3.9941,-4.0351,-4.0441,-3.9989,-4.0142,-4.0008,-3.9416,-3.8497,-3.8007,-3.8007,-3.7815,-3.7392,-3.6712,-3.6519,-3.6135,-3.55,-3.5223,-3.5105,-3.5088,-3.4553,-3.4311,-3.43,-3.4012,-3.3889,-3.3766,-3.2083,-3.1397,-3.125,-2.9629,-2.9005,-2.9005,-2.9005,-2.9005,-2.9005,-2.9005,-2.9005,-2.9005,-2.9005,-2.9005,-2.9005,-2.9005,-2.9005,-2.8917,-2.8509,-2.8458,-2.842,-2.801,-2.7936,-2.788,-2.7409,-2.6987,-2.6691,-2.6691,-2.6691,-2.6691,-2.6691,-2.6099,-2.5473,-2.5049,-2.4575,-2.3932,-2.2919,-2.2672,-2.2223,-2.1135,-2.0682,-2.0261,-1.9747,-1.9708,-1.9708,-1.9708,-1.9708,-1.9483,-1.8957,-1.9002,-1.8587,-1.7529,-1.7483,-1.7209,-1.668,-1.6552,-1.65,-1.65,-1.65,-1.65,-1.65,-1.65,-1.65,-4.3932,-4.4998,-4.5037,-4.2624,-3.94,-3.5997,-3.2752,-2.9284,-2.6489,-2.5679,-2.5453,-2.5421,-2.5498,-2.5515,-2.581,-2.6751,-2.6913,-2.79,-3.0722,-3.2519,-3.4238,-3.6133,-3.7832,-3.9121,-3.9824,-3.9258,-3.9453,-4.0936,-3.9496,-3.8757,-3.9271,-3.8484,-3.8007,-3.8007,-3.7238,-3.6769,-3.6692,-3.5981,-3.5577,-3.55,-3.5223,-3.5105,-3.5096,-3.4784,-3.4653,-3.4643,-3.4311,-3.4152,-3.4017,-3.2164,-3.1397,-3.125,-2.9629,-2.9005,-2.9005,-2.9005,-2.9005,-2.9005,-2.9005,-2.9005,-2.9005,-2.9005,-2.9005,-2.9005,-2.9005,-2.9005,-2.8917,-2.8509,-2.867,-2.8791,-2.8079,-2.8129,-2.8179,-2.747,-2.6987,-2.6691,-2.6691,-2.6691,-2.6691,-2.6691,-2.6099,-2.5795,-2.6387,-2.4831,-2.3678,-2.422,-2.3177,-2.1997,-2.1118,-2.0959,-2.0615,-1.9782,-1.9708,-1.9708,-1.9708,-1.9708,-1.9678,-1.9618,-1.9609,-1.9358,-1.8769,-1.828,-1.7767,-1.7229,-1.6752,-1.65,-1.65,-1.65,-1.65,-1.65,-1.65,-1.65,-4.2047,-4.3431,-4.3605,-4.1527,-3.768,-3.3673,-3.0819,-2.7137,-2.4383,-2.4614,-2.4633,-2.4767,-2.529,-2.5408,-2.5587,-2.5987,0.0,0.0,-2.8965,-2.9902,-3.1543,-3.4824,-3.6289,-3.7578,-3.8984,-3.8809,-3.8846,-3.9479,-3.875,-3.8198,-3.7933,-3.7469,-3.7219,-3.7219,-3.7392,-3.7488,-3.7488,-3.6635,-3.6212,-3.6212,-3.5614,-3.5346,-3.532,-3.507,-3.4944,-3.4926,-3.4634,-3.4508,-3.4355,-3.2434,-3.164,-3.1462,-2.9692,-2.9005,-2.9005,-2.9005,-2.9005,-2.9005,-2.9005,-2.9005,-2.9005,-2.9005,-2.9005,-2.9005,-2.9005,-2.9005,-2.897,-2.8815,-2.8893,-2.8929,-2.8639,-2.8334,-2.8034,-2.7722,-2.7178,-2.6691,-2.6691,-2.6691,-2.6691,-2.6691,-2.6454,-2.6065,-2.5489,-2.5,-2.4374,-2.3325,-2.3054,-2.2564,-2.1495,-2.115,-2.0764,-2.0124,-1.9839,-1.9708,-1.9708,-1.9708,-1.9708,-1.9708,-1.9708,-1.946,-1.893,-1.838,-1.7847,-1.7312,-1.6774,-1.65,-1.65,-1.65,-1.65,-1.65,-1.65,-1.65,-3.88,-4.0546,-4.1096,-3.9058,-3.5304,-3.1418,-2.8852,-2.5397,-2.293,-2.3581,-2.3918,-2.4259,-2.4832,-2.4982,-2.5119,0.0,0.0,-2.5154,-2.7578,-2.8144,-2.9512,-3.2793,-3.3965,-3.5273,-3.7246,-3.8144,-3.8358,-3.7735,-3.7861,-3.7589,-3.6729,-3.6498,-3.6401,-3.637,-3.6958,-3.7257,-3.7257,-3.6654,-3.6346,-3.6346,-3.5769,-3.55,-3.5493,-3.5304,-3.5215,-3.5187,-3.465,-3.4586,-3.4632,-3.2389,-3.1587,-3.1621,-2.9731,-2.9005,-2.9005,-2.9005,-2.9005,-2.9005,-2.9005,-2.9005,-2.9005,-2.9005,-2.9005,-2.9005,-2.9005,-2.9005,-2.9005,-2.9005,-2.9005,-2.8964,-2.8851,-2.8425,-2.7992,-2.7765,-2.7303,-2.6841,-2.6725,-2.6691,-2.6691,-2.6691,-2.6522,-2.6031,-2.4998,-2.4898,-2.4425,-2.2868,-2.2885,-2.2723,-2.1739,-2.1244,-2.0829,-2.0348,-1.9929,-1.9708,-1.9708,-1.9708,-1.9708,-1.9708,-1.9708,-1.953,-1.9151,-1.8612,-1.8086,-1.7544,-1.7013,-1.6659,-1.65,-1.65,-1.65,-1.65,-1.65,-1.65,-3.3973,-3.6122,-3.7401,-3.4642,-3.2075,-2.955,-2.6931,-2.4406,-2.264,-2.2775,-2.349,-2.411,-2.411,-2.411,-2.4419,-2.5354,-2.4814,0.0,-2.6757,-2.7754,-2.8633,-2.9551,-3.043,-3.1953,-3.4492,-3.707,-3.7871,-3.6152,-3.6764,-3.684,-3.596,-3.5786,-3.5675,-3.5611,-3.5554,-3.5538,-3.5538,-3.5519,-3.5519,-3.5519,-3.55,-3.55,-3.55,-3.55,-3.55,-3.5429,-3.4297,-3.4295,-3.4852,-3.1851,-3.1081,-3.1621,-2.9731,-2.9005,-2.9005,-2.9005,-2.9005,-2.9005,-2.9005,-2.9005,-2.9005,-2.9005,-2.9005,-2.9005,-2.9005,-2.9005,-2.9005,-2.9005,-2.9005,-2.8917,-2.8515,-2.8407,-2.8219,-2.7485,-2.7303,-2.7194,-2.6791,-2.6691,-2.6691,-2.6691,-2.6116,-2.5609,-2.5592,-2.4374,-2.341,-2.3393,-2.2784,-2.2152,-2.1658,-2.1244,-2.0829,-2.0348,-1.9929,-1.9708,-1.9708,-1.9708,-1.9708,-1.9708,-1.9708,-1.9708,-1.969,-1.9188,-1.8631,-1.8106,-1.7565,-1.7034,-1.65,-1.65,-1.65,-1.65,-1.65,-1.65,-3.0171,-3.1661,-3.2436,-3.0878,-2.8581,-2.6204,-2.4221,-2.225,-2.1025,-2.1752,-2.212,-2.2509,-2.3105,-2.3201,-2.3527,-2.4452,-2.4393,0.0,-2.5862,-2.7314,-2.8757,-3.0177,-3.3224,-3.5303,-3.5566,-3.7402,-3.7871,-3.6133,-3.6795,-3.6891,-3.6012,-3.5887,-3.6059,-3.653,-3.5906,-3.612,-3.7274,-3.61,-3.5788,-3.6308,-3.5769,-3.55,-3.5481,-3.4872,-3.4603,-3.4564,-3.36,-3.3688,-3.4345,-3.2657,-3.2004,-3.1938,-3.0607,-2.9651,-2.9005,-2.9005,-2.9005,-2.8932,-2.8374,-2.8528,-2.8913,-2.8356,-2.8172,-2.8172,-2.8172,-2.8565,-2.9005,-2.9005,-2.9005,-2.8917,-2.8496,-2.8237,-2.7936,-2.7424,-2.7083,-2.6857,-2.6725,-2.6691,-2.6539,-2.6048,-2.5761,-2.5287,-2.4272,-2.3714,-2.3224,-2.2733,-2.2448,-2.2254,-2.2106,-2.1446,-2.0943,-2.0781,-2.0122,-1.9708,-1.9708,-1.9708,-1.9708,-1.9708,-1.9708,-1.9708,-1.9708,-1.9188,-1.865,-1.8125,-1.7565,-1.7034,-1.65,-1.65,-1.65,-1.65,-1.65,-1.65,-2.604,-2.7444,-2.8145,-2.7128,-2.5393,-2.3619,-2.2289,-2.0926,-2.0135,-2.0894,-2.1293,-2.1677,-2.2216,-2.2586,-2.3109,-2.4047,-2.4196,-2.4515,-2.5434,-2.7061,-2.877,-3.0453,-3.3661,-3.5521,-3.5033,-3.6558,-3.7146,-3.6074,-3.6504,-3.6562,-3.6035,-3.5951,-3.6147,-3.6603,-3.5974,-3.6148,-3.7187,-3.6087,-3.5791,-3.6273,-3.5746,-3.55,-3.5462,-3.4603,-3.4205,-3.4129,-3.2968,-3.2929,0.0,-3.2209,-3.1713,-3.1753,-3.0601,-2.9747,-2.9145,-2.9051,-2.9005,-2.8877,-2.8081,-2.8136,-2.84,-2.7603,-2.7346,-2.7346,-2.7346,-2.7695,-2.8088,-2.8088,-2.8088,-2.8116,-2.8167,-2.7783,-2.7468,-2.7664,-2.7058,-2.653,-2.6851,-2.6463,-2.5971,-2.5659,-2.5389,-2.4797,-2.3613,-2.3393,-2.3139,-2.2398,-2.2296,-2.2296,-2.2296,-2.1539,-2.0991,-2.0991,-2.0208,-1.9708,-1.9708,-1.9708,-1.9708,-1.9708,-1.9708,-1.9708,-1.9708,-1.9387,-1.8949,-1.8419,-1.7887,-1.7353,-1.6795,-1.6595,-1.65,-1.65,-1.65,-1.65,0.0,-2.3539,-2.4495,-2.3486,-2.259,-2.1763,-2.1073,-2.035,0.0,-2.0225,-2.0885,-2.1427,-2.1485,-2.2158,-2.3028,-2.4036,-2.4186,-2.4526,-2.5454,-2.7198,-2.8978,-3.0591,-3.2377,-3.3429,-3.3298,-3.4864,-3.5938,-3.5995,-3.5996,-3.5976,-3.5918,-3.5918,-3.5918,-3.5918,-3.5732,-3.5661,-3.5713,-3.5648,-3.5601,-3.5605,-3.5463,-3.5417,-3.5385,-3.4449,-3.4013,-3.3936,-3.2314,-3.2064,-3.2667,-3.087,-3.0593,-3.1184,-3.0002,-2.9443,-2.9279,-2.9031,-2.8888,-2.8712,-2.7915,-2.7669,-2.7585,-2.6778,-2.6521,-2.6502,-2.6447,-2.651,-2.6602,-2.6602,-2.6602,-2.6767,-2.749,-2.7112,-2.6823,-2.7922,-2.7034,-2.6152,-2.6969,-2.5977,-2.5067,-2.5385,-2.4881,-2.4186,-2.3444,-2.3325,-2.3088,-2.2398,-2.2296,-2.2296,-2.2296,-2.1554,-2.1023,-2.0991,-2.0243,-1.9729,-1.9708,-1.9708,-1.9708,-1.9708,-1.9708,-1.9708,-1.9708,-1.9708,-1.9424,-1.8855,-1.8283,-1.7747,-1.7229,-1.6731,-1.65,-1.65,-1.65,-1.65,-2.0292,0.0,-2.1112,-2.0762,-2.0508,-2.0307,0.0,0.0,0.0,0.0,0.0,0.0,0.0,-2.1677,-2.2306,-2.3876,-2.4116,-2.4651,-2.6195,-2.902,-3.134,-3.2467,-3.4039,-3.4583,-3.334,-3.4848,-3.5907,-3.5916,-3.5973,-3.5703,-3.5039,-3.5019,-3.5019,-3.5019,-3.4958,-3.5236,-3.5845,-3.5736,-3.5646,-3.5591,-3.4916,-3.4554,-3.4449,-3.2968,-3.2295,-3.2237,-3.1173,-3.1192,-3.1942,-3.1482,-3.1294,-3.1272,-3.0961,-2.9847,-2.8388,-2.8329,-2.7814,-2.7042,-2.6237,-2.6366,-2.6759,-2.5944,-2.5686,-2.5576,-2.4942,-2.5621,-2.6602,-2.6602,-2.6602,-2.6567,-2.6449,-2.6271,-2.6153,-2.6177,-2.5693,-2.5289,-2.5499,-2.5045,-2.4479,-2.4,-2.3782,-2.341,-2.2699,-2.2564,-2.2499,-2.233,-2.2296,-2.2296,-2.2296,-2.1811,-2.1337,-2.1023,-2.0499,-2.0035,-1.9744,-1.9708,-1.9708,-1.9708,-1.9708,-1.9708,-1.9708,-1.9708,-1.9244,-1.8322,-1.7374,-1.6816,-1.6701,-1.6552,-1.65,-1.65,-1.65,-1.65,-1.9786,-2.0142,-2.0492,-2.0489,-2.0439,-2.0393,-2.0393,0.0,0.0,0.0,0.0,0.0,0.0,0.0,-2.2547,-2.3879,-2.474,-2.5861,-2.7557,-2.9104,-3.0793,-3.283,-3.3887,-3.4405,-3.4315,-3.518,-3.5612,-3.5281,-3.5699,-3.5403,-3.4135,-3.4472,-3.4512,-3.4121,-3.4101,-3.4491,-3.5341,-3.5242,-3.4973,-3.4531,-3.4039,-3.3742,-3.361,-3.2323,-3.1725,-3.166,-3.0788,-3.0442,-3.0506,-3.0506,-3.0208,-2.9723,-2.9497,-2.8707,-2.766,-2.7491,-2.7079,-2.6484,-2.5686,-2.5448,-2.5438,-2.4989,-2.4842,-2.4768,-2.4318,-2.4814,-2.5493,-2.5493,-2.5493,-2.5525,-2.5685,-2.5459,-2.5291,-2.5678,-2.5075,-2.451,-2.4948,-2.4325,-2.3628,-2.3437,-2.3122,-2.2784,-2.2364,-2.2296,-2.2296,-2.2296,-2.2296,-2.2296,-2.2296,-2.1899,-2.1445,-2.1039,-2.0583,-2.0141,-1.9729,-1.9708,-1.9708,-1.9708,-1.9708,-1.9708,-1.9708,-1.9708,-1.9314,-1.8477,-1.7666,-1.7118,-1.6879,-1.6616,-1.65,-1.65,-1.65,-1.65,-1.9819,-2.056,-2.1326,-2.1297,-2.1301,-2.1334,-2.1334,0.0,0.0,0.0,0.0,0.0,0.0,-2.2509,-2.3278,-2.4144,-2.5793,-2.7601,-2.9434,-2.926,-2.9926,-3.2583,-3.3233,-3.3925,-3.5076,-3.5324,-3.5136,-3.4519,-3.51,-3.4786,-3.3197,-3.3862,-3.3964,-3.3242,-3.3223,-3.3574,-3.4316,-3.4383,-3.4032,-3.3301,-3.3114,-3.2958,-3.2793,-3.1988,-3.1579,-3.1465,-3.0593,-2.9798,-2.9088,-2.8973,-2.853,-2.7868,-2.7466,-2.7199,-2.7016,-2.6655,-2.6411,-2.6187,-2.5458,-2.4768,-2.419,-2.419,-2.419,-2.419,-2.419,-2.419,-2.419,-2.419,-2.419,-2.4355,-2.5044,-2.4713,-2.4471,-2.5553,-2.474,-2.3921,-2.4717,-2.3776,-2.2877,-2.323,-2.2802,-2.2349,-2.231,-2.2296,-2.2296,-2.2296,-2.2296,-2.2296,-2.2296,-2.1943,-2.1553,-2.115,-2.0732,-2.0313,-1.9821,-1.98,-1.9764,-1.9693,-1.9708,-1.9708,-1.9708,-1.9621,-1.9369,-1.8912,-1.8302,-1.7747,-1.7312,-1.6752,-1.65,-1.65,-1.65,-1.65,-1.9948,-2.1131,-2.219,-2.1476,-2.1833,-2.2381,0.0,0.0,0.0,0.0,0.0,0.0,0.0,-2.3802,-2.4163,-2.4981,-2.714,-2.9569,-3.1987,-3.2858,-3.3153,-3.2936,-3.4218,-3.4642,-3.3429,-3.4033,-3.4459,-3.4347,-3.3893,-3.319,-3.2257,-3.2342,-3.2412,-3.2383,-3.2383,-3.2441,-3.2578,-3.3242,-3.3489,-3.3282,-3.2539,-3.2136,-3.2032,-3.1184,-3.075,-3.0646,-2.9756,-2.9274,-2.905,-2.8376,-2.8011,-2.789,-2.7821,-2.7248,-2.6408,-2.6186,-2.5546,-2.4789,-2.4487,-2.43,-2.419,-2.419,-2.419,-2.419,-2.419,-2.419,-2.419,-2.419,-2.419,-2.4226,-2.4355,-2.4281,-2.4253,-2.4453,-2.4088,-2.3743,-2.3889,-2.3513,-2.3056,-2.2855,-2.2721,-2.2577,-2.2335,-2.2296,-2.2296,-2.2296,-2.2296,-2.2296,-2.2296,-2.2237,-2.2017,-2.1568,-2.1445,-2.1086,-2.028,-2.021,-2.0054,-1.9711,-1.9708,-1.9708,-1.9708,-1.9262,-1.8987,-1.8893,-1.7927,-1.7394,-1.7312,-1.6752,-1.65,-1.65,-1.65,-1.65,-2.0012,-2.0977,-2.2024,-2.2082,-2.2777,-2.338,0.0,0.0,0.0,0.0,0.0,0.0,0.0,-2.411,-2.4817,-2.7005,-2.8338,-2.9838,-3.1948,-3.2199,-3.2179,-3.2237,-3.3333,-3.3776,-3.2987,-3.3716,-3.3873,-3.2965,-3.3048,-3.257,-3.1264,-3.1705,-3.1602,-3.0773,-3.078,-3.0801,-3.0801,-3.1152,-3.1562,-3.2003,-3.1595,-3.1348,-3.1222,-3.0386,-2.9922,-2.9748,-2.8906,-2.8241,-2.7717,-2.7351,-2.6928,-2.6476,-2.6387,-2.6031,-2.5577,-2.5404,-2.4997,-2.4486,-2.4393,-2.4294,-2.419,-2.419,-2.419,-2.419,-2.419,-2.419,-2.419,-2.419,-2.419,-2.419,-2.419,-2.419,-2.4161,-2.3976,-2.3671,-2.338,-2.32,-2.2933,-2.2673,-2.2514,-2.2473,-2.2436,-2.2307,-2.2296,-2.2296,-2.2296,-2.2296,-2.2296,-2.2296,-2.2296,-2.212,-2.1658,-2.1597,-2.1353,-2.0732,-2.0682,-2.0398,-1.9729,-1.9708,-1.9708,-1.9708,-1.946,-1.9207,-1.8912,-1.8145,-1.7585,-1.7312,-1.6752,-1.65,-1.65,-1.65,-1.65,-1.9866,-2.0615,-2.1716,-2.2586,0.0,0.0,0.0,0.0,0.0,0.0,0.0,0.0,0.0,-2.4486,-2.5414,-2.8588,-2.9107,-2.9858,-3.1987,-3.1545,-3.1308,-3.2179,-3.2641,-3.2891,-3.2891,-3.3333,-3.3083,-3.1795,-3.2185,-3.1797,-3.0285,-3.0923,-3.0671,-2.9218,-2.9249,-2.9276,-2.9276,-2.9297,-2.9844,-3.0898,-3.0684,-3.0545,-3.0413,-2.9592,-2.9123,-2.8925,-2.8103,-2.7315,-2.6603,-2.6396,-2.5914,-2.5279,-2.5141,-2.504,-2.4992,-2.4877,-2.4697,-2.4503,-2.4503,-2.4366,-2.419,-2.419,-2.419,-2.419,-2.419,-2.419,-2.419,-2.419,-2.419,-2.419,-2.419,-2.419,-2.4141,-2.3886,-2.361,-2.3369,-2.3105,-2.2883,-2.2717,-2.2638,-2.2561,-2.248,-2.2415,-2.2335,-2.2296,-2.2296,-2.2296,-2.2296,-2.2296,-2.2296,-2.2149,-2.1794,-2.1764,-2.1553,-2.1039,-2.0813,-2.0413,-1.9729,-1.9708,-1.9708,-1.9708,-1.9708,-1.9512,-1.9114,-1.8438,-1.7907,-1.7483,-1.6816,-1.65,-1.65,-1.65,-1.65,-1.9308,-2.025,-2.1716,-2.2586,-2.3451,0.0,-2.6053,-2.6073,0.0,-2.6966,0.0,0.0,0.0,-2.5631,-2.6077,-2.8684,-2.9107,-3.0242,-3.3571,-3.3276,-3.3045,-3.3917,-3.3353,-3.2891,-3.2891,-3.2275,-3.1833,-3.1718,-3.1012,-3.0213,-2.9337,-2.9357,-2.9026,-2.8238,-2.8265,-2.8302,-2.8302,-2.8357,-2.9238,-3.0898,-3.0078,-2.9687,-2.9648,-2.8789,-2.8334,-2.8223,-2.7369,-2.6863,-2.6625,-2.582,-2.5417,-2.5303,-2.5279,-2.5163,-2.5004,-2.4992,-2.4776,-2.4503,-2.4503,-2.4366,-2.419,-2.419,-2.419,-2.419,-2.419,-2.419,-2.419,-2.419,-2.419,-2.419,-2.419,-2.419,-2.419,-2.417,-2.4151,-2.4113,-2.4094,-2.4074,-2.3966,-2.366,-2.3346,-2.3051,-2.2721,-2.2463,-2.2296,-2.2296,-2.2296,-2.2296,-2.2296,-2.2296,-2.2282,-2.2237,-2.2237,-2.1915,-2.1055,-2.026,-1.9764,-1.9693,-1.9708,-1.9708,-1.9708,-1.9708,-1.969,-1.9639,-1.8631,-1.8086,-1.8046,-1.6993,-1.65,-1.65,-1.65,-1.65,-1.9754,-2.0639,-2.1716,-2.2586,-2.3047,0.0,0.0,-2.6471,-2.6478,-2.6862,-2.695,0.0,0.0,-2.618,-2.6774,-2.878,-2.9544,-3.0717,-3.3064,-3.2997,-3.2701,-3.2648,-3.269,-3.2356,-3.1436,-3.1077,-3.0679,-3.0121,-2.9313,-2.8706,-2.8415,-2.8436,-2.8086,-2.7268,-2.7291,-2.7358,-2.7399,-2.7429,-2.8043,-2.9277,-2.8945,-2.8789,-2.8769,-2.7891,-2.7458,-2.7338,-2.646,-2.6038,-2.5928,-2.555,-2.5383,-2.535,-2.5317,-2.5259,-2.5198,-2.5198,-2.503,-2.4797,-2.4712,-2.4543,-2.4366,-2.4247,-2.419,-2.419,-2.419,-2.419,-2.419,-2.419,-2.419,-2.419,-2.419,-2.419,-2.419,-2.419,-2.4036,-2.3896,-2.3896,-2.3742,-2.3544,-2.3414,-2.3288,-2.3093,-2.2759,-2.2625,-2.2487,-2.2338,-2.2296,-2.2296,-2.2296,-2.2296,-2.2296,-2.2296,-2.2296,-2.2166,-2.1842,-2.1244,-2.0764,-2.0515,-1.9997,-1.9708,-1.9708,-1.9708,-1.9387,-1.8708,-1.8322,-1.7767,-1.7097,-1.6689,-1.65,-1.65,-1.65,-1.65,-1.9735,-2.0677,-2.1716,-2.2586,0.0,0.0,-2.6082,-2.654,-2.6661,-2.7198,-2.7389,-2.7261,-2.6473,-2.6488,-2.7063,-2.8492,-2.9429,-3.0487,-3.191,-3.1919,-3.1563,-3.0949,-3.1414,-3.12,-2.9758,-2.9846,-2.964,-2.88,-2.8203,-2.778,-2.7505,-2.7523,-2.7157,-2.6298,-2.6311,-2.6384,-2.6424,-2.647,-2.6803,-2.7459,-2.7461,-2.7617,-2.7851,-2.6992,-2.6561,-2.6493,-2.5887,-2.5598,-2.5535,-2.5473,-2.5441,-2.5391,-2.5336,-2.5308,-2.5308,-2.5308,-2.5168,-2.4992,-2.4891,-2.4741,-2.4567,-2.4426,-2.4358,-2.4294,-2.4294,-2.4072,-2.3878,-2.4135,-2.4025,-2.3878,-2.4135,-2.419,-2.419,-2.419,-2.4016,-2.3865,-2.3865,-2.3682,-2.3471,-2.338,-2.3259,-2.3093,-2.2759,-2.2621,-2.2514,-2.2321,-2.2296,-2.2296,-2.2296,-2.2296,-2.2296,-2.2296,-2.218,-2.2017,-2.1901,-2.1445,-2.1023,-2.0615,-2.0032,-1.9708,-1.9708,-1.9708,-1.935,-1.8612,-1.8438,-1.7907,-1.6993,-1.6837,-1.668,-1.65,-1.65,-1.65,-1.9011,-2.0239,-2.1716,0.0,0.0,0.0,-2.6217,-2.645,-2.6784,-2.8443,-2.8112,-2.7319,-2.6724,-2.6621,-2.689,-2.7761,-2.8569,-2.9371,-3.025,-3.0144,-2.9752,-2.9162,-2.9602,-2.9428,-2.8033,-2.8607,-2.8742,-2.7953,-2.7876,-2.7505,-2.664,-2.6582,-2.6192,-2.5327,-2.5352,-2.539,-2.5394,-2.5539,-2.5601,-2.5602,-2.5661,-2.6152,-2.6953,-2.6094,-2.5703,-2.5703,-2.5703,-2.5661,-2.5602,-2.5602,-2.5511,-2.5383,-2.5321,-2.5308,-2.5308,-2.5308,-2.5168,-2.501,-2.501,-2.4917,-2.4804,-2.4804,-2.4662,-2.4503,-2.4503,-2.3802,-2.318,-2.3951,-2.3621,-2.3171,-2.3988,-2.4171,-2.4171,-2.419,-2.419,-2.419,-2.419,-2.419,-2.4094,-2.3774,-2.3444,-2.3105,-2.2772,-2.2473,-2.231,-2.2296,-2.2296,-2.2296,-2.2296,-2.2296,-2.2296,-2.2296,-2.1868,-2.1445,-2.1039,-2.0583,-2.0158,-1.9729,-1.9711,-1.9708,-1.9708,-1.9708,-1.9708,-1.969,-1.9169,-1.8631,-1.8086,-1.7565,-1.7013,-1.65,-1.65,-1.65,-2.0407,-2.1119,-2.187,-2.3336,0.0,0.0,0.0,-2.6545,0.0,0.0,-2.8256,-2.7857,-2.8096,-2.7294,-2.689,-2.7761,-2.7582,-2.764,-2.8525,-2.8415,-2.8255,-2.8258,-2.8243,-2.8147,-2.7918,-2.7563,-2.7236,-2.7005,-2.6428,-2.5962,-2.5692,-2.5692,-2.5577,-2.5308,-2.5327,-2.5346,-2.5402,-2.5438,-2.5513,-2.5602,-2.563,-2.5796,-2.6074,-2.582,-2.5703,-2.5703,-2.5703,-2.5683,-2.5661,-2.5629,-2.5551,-2.5451,-2.5398,-2.5371,-2.5363,-2.5317,-2.5264,-2.5198,-2.5046,-2.4974,-2.4936,-2.4828,-2.476,-2.4685,-2.4534,-2.3894,-2.3235,-2.3336,-2.2776,-2.2336,-2.3162,-2.2942,-2.2804,-2.3933,-2.419,-2.419,-2.419,-2.419,-2.417,-2.4074,-2.3976,-2.3714,-2.3153,-2.2989,-2.2786,-2.2363,-2.2296,-2.2296,-2.2296,-2.2296,-2.2296,-2.2296,-2.218,-2.2032,-2.1915,-2.1781,-2.14,-2.0649,-2.0615,-2.0345,-1.9744,-1.9708,-1.953,-1.9151,-1.8987,-1.8458,-1.7544,-1.7394,-1.7013,-1.65,-1.65,-1.65,-2.0765,-2.147,0.0,-2.3663,-2.3952,-2.4197,-2.5731,0.0,0.0,0.0,-2.8098,-2.7498,-2.786,-2.7209,-2.6774,-2.7294,-2.7236,-2.7178,-2.7351,-2.7459,-2.7332,-2.6927,-2.7242,-2.7338,-2.6913,-2.6717,-2.6467,-2.6115,-2.5596,-2.5154,-2.4832,-2.5135,-2.5154,-2.4832,-2.5135,-2.5322,-2.5354,-2.5399,-2.5438,-2.5529,-2.5551,-2.5572,-2.561,-2.5682,-2.5703,-2.5703,-2.5703,-2.5703,-2.5683,-2.5633,-2.5559,-2.5464,-2.5076,-2.5109,-2.5331,-2.4956,-2.5019,-2.524,-2.4798,-2.4848,-2.5004,-2.4256,-2.4195,-2.4313,-2.3842,-2.3053,-2.234,-2.2547,-2.1974,-2.1473,-2.2318,-2.2161,-2.2125,-2.3419,-2.3474,-2.3327,-2.3657,-2.3731,-2.3776,-2.3971,-2.4006,-2.3827,-2.3282,-2.32,-2.3075,-2.2712,-2.2527,-2.2426,-2.2307,-2.2296,-2.2296,-2.2296,-2.2296,-2.2223,-2.2032,-2.2017,-2.172,-2.1039,-2.0829,-2.0499,-1.9947,-1.9782,-1.9548,-1.9225,-1.9225,-1.8798,-1.7947,-1.7727,-1.7353,-1.6816,-1.6595,-1.65,-2.0403,-2.134,-2.1831,-2.3648,-2.4755,0.0,-2.5423,-2.664,-2.7992,-2.8723,-2.7717,-2.6717,-2.6717,-2.6659,-2.6601,-2.6601,-2.7198,-2.739,-2.6601,-2.6948,-2.6803,-2.5426,-2.6388,-2.6638,-2.5262,-2.5796,-2.5878,-2.5086,-2.5028,-2.4726,-2.3995,-2.4663,-2.4726,-2.3995,-2.4697,-2.5115,-2.5192,-2.5166,-2.524,-2.5394,-2.5315,-2.5311,-2.5398,-2.5595,-2.5644,-2.5586,-2.5664,-2.5644,-2.5586,-2.5517,-2.545,-2.5306,-2.4438,-2.4494,-2.499,-2.4269,-2.4447,-2.4962,-2.424,-2.4466,-2.4827,-2.3293,-2.3213,-2.3561,-2.2751,-2.1721,-2.0991,-2.1712,-2.12,-2.0641,-2.1496,-2.167,-2.1827,-2.2601,-2.2335,-2.2106,-2.2841,-2.3061,-2.3234,-2.3661,-2.3753,-2.3649,-2.3294,-2.3212,-2.3177,-2.3135,-2.2848,-2.259,-2.2335,-2.2296,-2.2296,-2.2296,-2.2296,-2.212,-2.1703,-2.1658,-2.1492,-2.1071,-2.0616,-2.0348,-2.0297,-1.9909,-1.9708,-1.9708,-1.9708,-1.9406,-1.8836,-1.8341,-1.7807,-1.7209,-1.6731,-1.65,-2.0535,-2.0933,0.0,-2.3509,-2.5221,-2.6327,-2.6327,-2.6621,-2.6928,-2.7101,-2.739,-2.7621,-2.7621,-2.7063,-2.6601,-2.6601,-2.6173,-2.5788,-2.5615,-2.5681,-2.5595,-2.5121,-2.4786,-2.4415,-2.3936,-2.3486,-2.3151,-2.2961,-2.2961,-2.2932,-2.2927,-2.308,-2.3145,-2.3081,-2.3259,-2.3663,-2.4356,-2.369,-2.4057,-2.5374,-2.408,-2.3853,-2.4585,-2.5303,-2.5287,-2.4727,-2.5391,-2.5312,-2.4687,-2.4667,-2.4646,-2.4544,-2.3624,-2.3358,-2.3461,-2.3187,-2.3182,-2.3312,-2.3144,-2.3182,-2.3274,-2.2913,-2.2895,-2.2945,-2.2593,-2.1893,-2.1199,-2.1205,-2.0602,-2.0145,-2.0964,-2.0708,-2.0412,-2.1116,-2.2025,-2.2786,-2.2951,-2.3511,-2.3969,-2.4067,-2.4094,-2.3986,-2.366,-2.338,-2.3038,-2.2558,-2.2426,-2.2377,-2.231,-2.2296,-2.2296,-2.2296,-2.2296,-2.2268,-2.2149,-2.2149,-2.1959,-2.1491,-2.1086,-2.0682,-2.0314,-1.9909,-1.9708,-1.9708,-1.9708,-1.9225,-1.8283,-1.8165,-1.7605,-1.668,-1.6552,-1.65,-1.9284,0.0,0.0,-2.3346,0.0,-2.5471,-2.5773,-2.5833,-2.5811,-2.576,-2.6151,-2.651,-2.651,-2.6082,-2.5742,-2.5742,-2.5354,-2.5068,-2.5068,-2.4692,-2.4401,-2.4297,-2.3562,-2.3044,-2.2949,-2.2546,-2.2306,-2.2306,-2.2306,-2.2186,-2.1909,-2.2251,-2.2304,-2.1998,-2.2455,-2.293,-2.3371,-2.2982,-2.3255,-2.4142,-2.3273,-2.3137,-2.3647,-2.4136,-2.413,-2.3754,-2.4232,-2.4195,-2.3785,-2.3789,-2.3788,-2.3684,-2.278,-2.2668,-2.2941,-2.242,-2.2481,-2.2782,-2.2329,-2.2447,-2.2663,-2.185,-2.185,-2.2088,-2.1589,-2.1096,-2.066,-2.0557,-2.0163,-1.9903,-2.0312,-2.0105,-1.988,-2.0239,-2.115,-2.2025,-2.2354,-2.307,-2.3749,-2.4135,-2.419,-2.4133,-2.3976,-2.3795,-2.3529,-2.3037,-2.2824,-2.2673,-2.2514,-2.2374,-2.2296,-2.2296,-2.2296,-2.2296,-2.2296,-2.2296,-2.2194,-2.1943,-2.1522,-2.1102,-2.0649,-2.021,-1.9909,-1.9693,-1.9708,-1.9424,-1.8874,-1.8612,-1.8066,-1.725,-1.6993,-1.6752,-1.7692,0.0,-1.9571,-2.2837,-2.3644,0.0,-2.4435,-2.4591,-2.4543,-2.4393,-2.4701,-2.493,-2.4777,-2.4643,-2.4521,-2.4389,-2.437,-2.437,-2.437,-2.3754,-2.3275,-2.3248,-2.2538,-2.2022,-2.1989,-2.1858,-2.1782,-2.1782,-2.1782,-2.1513,-2.0872,-2.1463,-2.1532,-2.0896,-2.1681,-2.219,-2.2369,-2.2336,-2.2472,-2.2797,-2.2643,-2.252,-2.2456,-2.251,-2.2626,-2.2783,-2.2992,-2.3003,-2.2869,-2.2868,-2.289,-2.2799,-2.1917,-2.1971,-2.2466,-2.169,-2.1846,-2.2346,-2.156,-2.1771,-2.2139,-2.075,-2.075,-2.1173,-2.05,-2.0174,-2.0041,-2.0041,-1.9963,-1.9888,-1.9888,-1.9888,-1.9882,-1.9836,-2.0358,-2.1003,-2.1557,-2.2293,-2.305,-2.3695,-2.3906,-2.4015,-2.4095,-2.4103,-2.3996,-2.3671,-2.338,-2.3105,-2.2822,-2.2594,-2.2429,-2.2374,-2.236,-2.2349,-2.231,-2.2296,-2.2296,-2.2296,-2.1869,-2.1445,-2.1118,-2.0583,-2.0141,-1.9803,-1.9744,-1.9639,-1.9566,-1.9132,-1.8574,-1.7947,-1.7504,-1.7013,-1.6896,0.0,-1.9284,0.0,-2.185,-2.2032,0.0,0.0,-2.2865,-2.2672,-2.3793,-2.4594,-2.3851,-2.3699,-2.3458,-2.2754,-2.2621,-2.2621,-2.2621,-2.2527,-2.2393,-2.2226,-2.1482,-2.0926,-2.076,-2.0106,-1.9708,-1.9708,-1.9708,-1.9737,-1.9797,-1.9897,-1.9969,-1.996,-2.0102,-2.0592,-2.1476,-2.0733,-2.1182,-2.2797,-2.2023,-2.132,-2.0643,-2.0658,-2.1107,-2.1919,-2.2689,-2.2574,-2.1893,-2.1948,-2.1961,-2.1888,-2.101,-2.0739,-2.0809,-2.063,-2.0597,-2.0636,-2.0508,-2.0532,-2.0596,-2.0365,-2.0365,-2.0442,-2.0327,-2.0281,-2.0269,-2.0269,-2.0256,-2.0229,-2.0229,-2.0229,-2.0184,-2.0007,-2.0575,-2.1144,-2.1111,-2.1734,-2.2308,-2.2298,-2.2754,-2.3289,-2.3707,-2.3774,-2.366,-2.3323,-2.3224,-2.3177,-2.3141,-2.3093,-2.2977,-2.2686,-2.2647,-2.255,-2.2324,-2.2296,-2.2296,-2.2296,-2.1869,-2.1583,-2.1521,-2.0732,-2.028,-2.0212,-1.9874,-1.946,-1.9006,-1.893,-1.84,-1.7415,-1.7333,-1.7013,-1.6101,-1.6865,-1.7709,0.0,-1.9958,-2.0168,-2.0869,-2.1026,-2.0975,-2.077,-2.1255,-2.1906,-2.2539,-2.2589,-2.243,-2.2084,-2.2028,-2.2028,-2.2028,-2.16,-2.1265,-2.1166,-2.0444,-1.9926,-1.9829,-1.9517,-1.9297,-1.9297,-1.9297,-1.9335,-1.9435,-1.9423,-1.9459,-1.9525,-1.9625,-1.9895,-2.0332,-2.0123,-2.0474,-2.1389,-2.1004,-2.0635,-2.0308,-2.0308,-2.0534,-2.0949,-2.1324,-2.1262,-2.0913,-2.099,-2.104,-2.1037,-2.0642,-2.0527,-2.0541,-2.048,-2.0435,-2.0414,-2.0363,-2.0324,-2.0292,-2.0292,-2.0295,-2.0308,-2.0308,-2.0308,-2.0308,-2.0308,-2.0308,-2.0308,-2.0308,-2.0308,-2.0277,-2.0193,-2.0439,-2.0685,-2.0613,-2.146,-2.2297,-2.2616,-2.2854,-2.3207,-2.3878,-2.3986,-2.3927,-2.3785,-2.3599,-2.3488,-2.3488,-2.3323,-2.3141,-2.2996,-2.281,-2.266,-2.2523,-2.2388,-2.2296,-2.2296,-2.2106,-2.1884,-2.1613,-2.1228,-2.0797,-2.0314,-1.9894,-1.9584,-1.935,-1.935,-1.8949,-1.8204,-1.8204,-1.7747,0.0,0.0,-1.5701,-1.7089,-1.7613,-1.7988,0.0,-1.9,-1.9094,-1.8918,-1.8785,-1.9092,-2.0444,-2.0794,-2.0784,-2.0601,-2.0537,-2.0537,-2.0537,-1.9947,-1.9577,-1.977,-1.9235,-1.8911,-1.9095,-1.918,-1.9212,-1.9212,-1.9266,-1.9297,-1.9297,-1.9297,-1.9297,-1.9297,-1.9456,-1.9548,-1.9608,-1.9869,-2.0055,-2.0167,-1.9994,-2.0009,-2.0167,-1.9994,-2.0026,-2.0218,-2.0031,-1.9973,-1.9979,-2.0034,-2.022,-2.0446,-2.0482,-2.0537,-2.0566,-2.0542,-2.0513,-2.0485,-2.044,-2.0374,-2.0338,-2.0338,-2.034,-2.0324,-2.0324,-2.031,-2.0307,-2.0307,-2.0308,-2.0308,-2.0308,-2.0308,-2.0308,-2.0308,-2.0308,-2.0308,-2.0308,-2.0972,-2.1799,-2.2499,-2.2481,-2.2694,-2.3712,-2.3896,-2.3951,-2.4171,-2.3986,-2.3827,-2.3827,-2.3599,-2.3392,-2.3212,-2.2984,-2.2759,-2.2612,-2.2412,-2.2296,-2.2296,-2.2296,-2.2135,-2.1794,-2.1658,-2.129,-2.0634,-2.0243,-1.9909,-1.9708,-1.9708,-1.9424,-1.8893,-1.8893,-1.8341,0.0,-1.3346,0.0,-1.3856,-1.4543,-1.5315,0.0,-1.6827,-1.7316,-1.7244,-1.7113,-1.7055,-1.7142,-1.7784,-1.8034,-1.7275,-1.7147,-1.7147,-1.7147,-1.694,-1.7065,-1.7756,-1.7706,-1.787,-1.8571,-1.8861,-1.9027,-1.9027,-1.9198,-1.9297,-1.9297,-1.9297,-1.9297,-1.9297,-1.9305,-1.942,-1.9608,-1.9869,-1.9948,-1.9819,-1.9173,-1.9207,-1.98,-1.9178,-1.9291,-1.9988,-1.9339,-1.9076,-1.9064,-1.9148,-1.9624,-2.0316,-2.0444,-2.0509,-2.0512,-2.0566,-2.0543,-2.0508,-2.0506,-2.0444,-2.0385,-2.0385,-2.0383,-2.0381,-2.0381,-2.0359,-2.0304,-2.0304,-2.0301,-2.0308,-2.0308,-2.0308,-2.0308,-2.0308,-2.0308,-2.0308,-2.0308,-2.0102,-2.0162,-2.0967,-2.0849,-2.1153,-2.2786,-2.3061,-2.3318,-2.408,-2.418,-2.417,-2.417,-2.4161,-2.3907,-2.3259,-2.3177,-2.294,-2.2377,-2.231,-2.2296,-2.2296,-2.2296,-2.2296,-2.2268,-2.184,-2.1582,-2.1536,-2.1134,-2.0531,-1.9708,-1.9708,-1.9424,-1.8893,-1.8893,-1.8341,0.0,0.0,0.0,-1.3222,-1.364,-1.3941,-1.3714,-1.4654,-1.5439,-1.4902,-1.5093,-1.535,-1.535,-1.6431,-1.7238,-1.6945,-1.6782,-1.6718,-1.6718,-1.6578,-1.6749,-1.7485,-1.7104,-1.7266,-1.848,-1.7911,-1.789,-1.892,-1.8708,-1.8757,-1.9279,-1.9297,-1.9297,-1.9297,-1.9297,-1.9405,-1.9608,-1.9701,-1.9762,-1.979,-1.903,-1.9068,-1.9758,-1.8482,-1.8089,-1.8354,-1.7607,-1.7937,-1.8995,-1.9027,-1.9226,-1.9525,-1.9575,-1.9943,-2.044,-2.0511,-2.0522,-2.0507,-2.0546,-2.0515,-2.0451,-2.0451,-2.0435,-2.0408,-2.0408,-2.0377,-2.0359,-2.0359,-2.0362,-2.036,-2.036,-2.0326,-2.0308,-2.0304,-2.0308,-2.0308,-2.0308,-2.0097,-2.0174,-2.0963,-2.0966,-2.1181,-2.229,-2.294,-2.3375,-2.3523,-2.4023,-2.4358,-2.4218,-2.419,-2.4103,-2.3876,-2.366,-2.3432,-2.323,-2.2995,-2.2798,-2.2577,-2.2563,-2.249,-2.231,-2.2135,-2.1913,-2.1613,-2.1197,-2.0845,-2.0515,-2.0227,-2.0002,-1.9796,-1.9536,-1.9024,-1.3417,0.0,0.0,0.0,-1.2584,-1.2507,-1.2342,-1.3095,-1.3695,-1.3206,-1.3414,-1.3686,-1.3686,-1.4567,-1.546,-1.601,-1.598,-1.5866,-1.5792,-1.5657,-1.5822,-1.6517,-1.6097,-1.6238,-1.747,-1.692,-1.7056,-1.8402,-1.8258,-1.8445,-1.926,-1.9297,-1.9297,-1.9297,-1.904,-1.9099,-1.9499,-1.9308,-1.92,-1.922,-1.8185,-1.8091,-1.8777,-1.7493,-1.7088,-1.7378,-1.6922,-1.7271,-1.8164,-1.8164,-1.8525,-1.9061,-1.9085,-1.9626,-2.0368,-2.0438,-2.048,-2.051,-2.0542,-2.0547,-2.0538,-2.0538,-2.0509,-2.0472,-2.0472,-2.0444,-2.0434,-2.0434,-2.0422,-2.0408,-2.0408,-2.0361,-2.0336,-2.0321,-2.0324,-2.0299,-2.0299,-2.0139,-2.0155,-2.0688,-2.0689,-2.0847,-2.1651,-2.2511,-2.3136,-2.3277,-2.4051,-2.4537,-2.433,-2.4303,-2.4238,-2.4046,-2.3827,-2.366,-2.3544,-2.3335,-2.3105,-2.2885,-2.2873,-2.2755,-2.2484,-2.244,-2.2243,-2.1838,-2.1584,-2.1447,-2.1431,-2.0549,-2.0089,-2.0089,-1.9821,-1.9406,0.0,0.0,0.0,0.0,-1.1252,-1.0985,-1.2017,-1.2183,-1.2156,-1.2265,-1.2201,-1.2132,-1.2095,-1.2095,-1.2609,-1.4181,-1.4445,-1.4392,-1.4214,-1.4017,-1.4126,-1.4724,-1.4614,-1.4776,-1.5547,-1.5993,-1.6594,-1.7444,-1.7851,-1.8427,-1.926,-1.9297,-1.9297,-1.9297,-1.8537,-1.85,-1.926,-1.8679,-1.8271,-1.806,-1.6589,-1.6243,-1.6878,-1.6186,-1.6345,-1.7171,-1.7416,-1.711,-1.6458,-1.6484,-1.7468,-1.8925,-1.9006,-1.9536,-2.0277,-2.0346,-2.0398,-2.0467,-2.0486,-2.052,-2.0566,-2.0586,-2.0605,-2.0605,-2.0605,-2.0543,-2.0509,-2.0509,-2.0467,-2.0414,-2.0393,-2.0393,-2.0391,-2.0408,-2.0345,-2.0294,-2.0294,-2.0139,-2.0003,-2.0017,-1.9906,-2.0066,-2.0847,-2.1696,-2.2545,-2.3316,-2.4179,-2.4685,-2.4483,-2.4476,-2.4302,-2.3767,-2.3714,-2.3577,-2.3265,-2.3224,-2.3242,-2.323,-2.32,-2.3075,-2.2803,-2.273,-2.2577,-2.231,-2.2282,-2.2282,-2.2282,-2.0582,-1.9747,-1.9747,-1.9744,-1.9424,-1.3166,0.0,0.0,0.0,0.0,0.0,-1.0988,-1.1916,-1.2657,-1.2051,-1.2495,-1.2784,-1.221,-1.2095,-1.2242,-1.2682,-1.301,-1.3432,-1.411,-1.3906,-1.4003,-1.4834,-1.4409,-1.4579,-1.5906,-1.5264,-1.5576,-1.7505,-1.7395,-1.7832,-1.9224,-1.9297,-1.9297,-1.9297,-1.9077,-1.8794,-1.8445,-1.8264,-1.7852,-1.722,-1.622,-1.6165,-1.6853,-1.5502,-1.5386,-1.6224,-1.5727,-1.5437,-1.5391,-1.6185,-1.6776,-1.7183,-1.7208,-1.8105,-1.9368,-1.9428,-1.9466,-1.9584,-2.0204,-2.0068,-1.9681,-2.0323,-2.0563,-2.0605,-2.0605,-2.0586,-2.0565,-2.0565,-2.0563,-2.0538,-2.0482,-2.0476,-2.047,-2.0418,-2.0398,-2.0366,-2.0366,-2.034,-2.0279,-2.0238,-2.0184,-2.0235,-2.046,-2.1187,-2.1715,-2.1696,-2.292,-2.3754,-2.3444,-2.3925,-2.4228,-2.4084,-2.4064,-2.4016,-2.3927,-2.3917,-2.3816,-2.3577,-2.3335,-2.3057,-2.2738,-2.2514,-2.2374,-2.2296,-2.1974,-2.1794,-2.1794,-2.1322,-2.107,-2.1055,-2.0433,-1.9687,0.0,0.0,0.0,-1.2303,0.0,0.0,-1.1311,-1.1757,-1.2131,-1.1962,-1.1854,-1.1645,-1.1182,-1.1108,-1.1108,-1.1108,-1.1295,-1.1863,-1.3034,-1.3289,-1.3514,-1.3987,-1.4016,-1.4339,-1.5239,-1.4746,-1.5068,-1.6792,-1.6694,-1.7096,-1.8331,-1.8066,-1.8013,-1.8298,-1.7968,-1.7729,-1.7594,-1.727,-1.6867,-1.6383,-1.5582,-1.5447,-1.5863,-1.4934,-1.4797,-1.5288,-1.4881,-1.4747,-1.4865,-1.5544,-1.6032,-1.6346,-1.6397,-1.7435,-1.8931,-1.9021,-1.909,-1.9179,-1.9685,-1.933,-1.8802,-1.9674,-1.9977,-2.0086,-2.0416,-2.0539,-2.0563,-2.0563,-2.0585,-2.0586,-2.0542,-2.054,-2.0538,-2.0485,-2.045,-2.0438,-2.0438,-2.0423,-2.039,-2.0349,-2.0347,-2.0337,-2.0301,-2.0988,-2.147,-2.1232,-2.2355,-2.3247,-2.3319,-2.3659,-2.4012,-2.4302,-2.3943,-2.3694,-2.3694,-2.3694,-2.3628,-2.3416,-2.3533,-2.3477,-2.3129,-2.2958,-2.2816,-2.2673,-2.2422,-2.2279,-2.2279,-2.1654,-2.1243,-2.1055,-2.0534,-1.9796,0.0,0.0,0.0,0.0,-1.2475,0.0,-1.232,-1.1694,-1.115,-1.1863,-1.084,-0.9759,-0.9701,-0.9683,-0.9705,-0.9827,-0.9753,-1.02,-1.1626,-1.2421,-1.2801,-1.2671,-1.3466,-1.4035,-1.4047,-1.4402,-1.4966,-1.5777,-1.6086,-1.6481,-1.708,-1.6437,-1.6305,-1.6898,-1.6212,-1.6126,-1.6762,-1.6059,-1.5662,-1.557,-1.4842,-1.4493,-1.4493,-1.4493,-1.4493,-1.4517,-1.4624,-1.4682,-1.4692,-1.4799,-1.5287,-1.5978,-1.6103,-1.7127,-1.8559,-1.8759,-1.8882,-1.8969,-1.9063,-1.8634,-1.8163,-1.8933,-1.9245,-1.9462,-2.0177,-2.0438,-2.0484,-2.0507,-2.0539,-2.0585,-2.0605,-2.0586,-2.0586,-2.0605,-2.0543,-2.0511,-2.0511,-2.0451,-2.0427,-2.0412,-2.0402,-2.0374,-2.0313,-2.0952,-2.142,-2.1366,-2.2068,-2.282,-2.3404,-2.3492,-2.3685,-2.419,-2.3524,-2.3014,-2.2895,-2.2895,-2.2923,-2.3006,-2.3647,-2.3915,-2.3714,-2.3671,-2.3493,-2.32,-2.32,-2.32,-2.3189,-2.1852,-2.0943,-2.0502,-2.0417,-1.9902,0.0,0.0,0.0,-1.2681,-1.2334,0.0,-1.2307,-1.1795,-1.1333,-1.142,-1.0863,-1.0183,-0.9648,-0.9538,-0.9781,-1.0536,-1.0117,-1.0255,-1.1818,-1.2035,-1.2104,-1.2278,-1.3085,-1.3634,-1.3682,-1.4388,-1.5189,-1.5989,-1.6681,-1.7122,-1.725,-1.7012,-1.6928,-1.7065,-1.6791,-1.6438,-1.5931,-1.579,-1.5362,-1.4732,-1.4585,-1.4493,-1.4493,-1.4493,-1.4493,-1.4493,-1.4528,-1.4539,-1.4545,-1.4573,-1.4795,-1.5135,-1.5156,-1.5835,-1.6888,-1.7603,-1.7922,-1.8072,-1.8789,-1.8943,-1.8887,-1.9059,-1.9599,-2.0196,-2.035,-2.0416,-2.0432,-2.0482,-2.0475,-2.0451,-2.0565,-2.0563,-2.0538,-2.0586,-2.0586,-2.0585,-2.0585,-2.0565,-2.0546,-2.0486,-2.0433,-2.0406,-2.0374,-2.0485,-2.0515,-2.0389,-2.1024,-2.1529,-2.1544,-2.2695,-2.327,-2.2706,-2.3097,-2.3079,-2.2267,-2.2195,-2.2426,-2.296,-2.288,-2.3084,-2.3685,-2.3437,-2.3277,-2.32,-2.32,-2.32,-2.32,-2.2635,-2.2149,-2.172,-2.1149,-2.0566,-1.3396,-1.3396,-1.3312,-1.2931,-1.2846,0.0,0.0,-1.261,-1.2395,-1.2358,-1.0944,-0.9641,-0.9439,-1.0173,-1.0698,-1.0361,-1.0649,-1.0905,-1.0951,-1.1209,-1.1465,-1.1629,-1.2824,-1.3676,-1.3736,-1.4566,-1.5269,-1.5661,-1.6071,-1.6276,-1.6204,-1.6143,-1.605,-1.5902,-1.5842,-1.5581,-1.5105,-1.5105,-1.4897,-1.4493,-1.4493,-1.4493,-1.4493,-1.4493,-1.4493,-1.4493,-1.4493,-1.4493,-1.4493,-1.4493,-1.4584,-1.4721,-1.4771,-1.5334,-1.6154,-1.6661,-1.6918,-1.7049,-1.7431,-1.7332,-1.7186,-1.7941,-1.8572,-1.9146,-1.9967,-2.0271,-2.0281,-1.9948,-2.0119,-2.0324,-1.9995,-2.0166,-2.0468,-2.0485,-2.0508,-2.0508,-2.0508,-2.0508,-2.0484,-2.0467,-2.042,-2.0409,-2.0394,-2.0401,-2.0342,-2.0212,-2.0504,-2.0864,-2.1209,-2.1892,-2.2344,-2.2344,-2.2281,-2.2051,-2.1536,-2.151,-2.1636,-2.1968,-2.2625,-2.3124,-2.3446,-2.3795,-2.3997,-2.3997,-2.3997,-2.3948,-2.3856,-2.352,-2.2933,-2.2096,-2.1724,-2.1101,-1.3396,-1.3396,-1.3388,-1.3337,-1.3363,-1.3388,0.0,0.0,0.0,-1.3193,-1.1127,-0.9401,-0.9632,-1.0818,-1.1382,-1.0287,-1.0944,-1.1236,-1.0208,-1.0482,-1.0828,-1.0907,-1.2196,-1.3222,-1.3644,-1.4539,-1.5133,-1.5315,-1.5153,-1.508,-1.5142,-1.5116,-1.4993,-1.4752,-1.4713,-1.4635,-1.4493,-1.4493,-1.4493,-1.4493,-1.4493,-1.4493,-1.4493,-1.4493,-1.4493,-1.4493,-1.4493,-1.4493,-1.4493,-1.4493,-1.4493,-1.4505,-1.4614,-1.5059,-1.5708,-1.595,-1.6156,-1.6248,-1.6133,-1.5818,-1.5639,-1.672,-1.7406,-1.8049,-1.9364,-1.9872,-1.9899,-1.9349,-1.9632,-1.9996,-1.936,-1.9782,-2.0377,-2.0406,-2.0408,-2.0408,-2.0408,-2.0408,-2.0406,-2.0377,-2.0383,-2.0395,-2.0404,-2.0429,-2.0429,-2.0329,-2.0303,-2.0538,-2.1204,-2.1297,-2.1503,-2.2023,-2.1505,-2.1036,-2.0826,-2.0801,-2.0921,-2.123,-2.2525,-2.3333,-2.3502,-2.4343,-2.4782,-2.4746,-2.4746,-2.4639,-2.4435,-2.4174,-2.3451,-2.23,-2.218,-2.1528,-1.3396,-1.3396,-1.3346,-1.3103,-1.3217,-1.3337,-1.3103,0.0,-1.2415,-1.2415,0.0,-1.0896,-1.1043,0.0,0.0,-1.1442,-1.057,-1.0066,-1.0831,-1.0425,-1.0068,-1.0191,-1.0338,-1.1082,-1.2752,-1.3718,-1.4558,-1.5331,-1.4678,-1.4567,-1.5324,-1.5194,-1.5031,-1.4882,-1.4766,-1.4635,-1.4493,-1.4493,-1.4493,-1.4493,-1.4493,-1.4493,-1.4493,-1.4493,-1.4493,-1.4493,-1.4493,-1.4493,-1.4493,-1.4493,-1.4493,-1.4493,-1.4511,-1.4648,-1.4917,-1.5657,-1.6011,-1.612,-1.6106,-1.6555,-1.7032,-1.6432,-1.7259,-1.8538,-1.8835,-1.8952,-1.8999,-1.9087,-1.9139,-1.9178,-1.9187,-1.9752,-2.0338,-2.0398,-2.0408,-2.0408,-2.0408,-2.0408,-2.0374,-2.0316,-2.0354,-2.0393,-2.0404,-2.0361,-2.0346,-2.039,-2.0338,-2.0347,-2.0513,-2.1175,-2.1358,-2.0634,-2.1139,-2.1143,-2.0193,-2.0116,-2.0706,-2.2073,-2.233,-2.3097,-2.4553,-2.4733,-2.4716,-2.4545,-2.4518,-2.4445,-2.4237,-2.4209,-2.3798,-2.3052,-2.2394,-2.1871,-1.2935,-1.2935,-1.2944,-1.2979,-1.3085,-1.3173,-1.3217,-1.3084,-1.3066,-1.3498,0.0,0.0,0.0,0.0,0.0,0.0,-1.0798,-1.0506,-1.0359,-1.0158,-1.0056,-1.0147,-1.1038,-1.2334,-1.4132,-1.4032,-1.3898,-1.3945,-1.4039,-1.4485,-1.5349,-1.5277,-1.5115,-1.4919,-1.4841,-1.4712,-1.4493,-1.4493,-1.4493,-1.4493,-1.4381,-1.4387,-1.4506,-1.4381,-1.4387,-1.4488,-1.4375,-1.4387,-1.4488,-1.4375,-1.4393,-1.4482,-1.4375,-1.444,-1.4613,-1.4957,-1.5165,-1.5277,-1.5197,-1.5457,-1.5851,-1.5953,-1.7112,-1.8416,-1.8089,-1.864,-1.9219,-1.8452,-1.8881,-1.9494,-1.906,-1.953,-2.0111,-2.0052,-2.0048,-2.0048,-2.0048,-2.0048,-2.0035,-2.0021,-2.0107,-2.018,-2.018,-2.0264,-2.0354,-2.0342,-2.033,-2.0311,-2.0338,-2.066,-2.0742,-2.0398,-2.0682,-2.072,-2.0215,-2.0161,-2.0653,-2.1769,-2.2679,-2.3757,-2.5034,-2.4968,-2.493,-2.4968,-2.4968,-2.4835,-2.4553,-2.4553,-2.4174,-2.3488,-2.2961,-2.233,-1.2601,-1.2601,-1.2649,-1.2834,-1.2942,-1.3049,-1.326,-1.3346,-1.3489,-1.3827,-1.3058,0.0,0.0,0.0,0.0,0.0,0.0,-1.0519,-0.9832,-1.01,-1.04,-1.0508,-1.1877,-1.3238,-1.4354,-1.3644,-1.3035,-1.2888,-1.3414,-1.4116,-1.4977,-1.5206,-1.5173,-1.4903,-1.4906,-1.4766,-1.4493,-1.4453,-1.4429,-1.4429,-1.4207,-1.4188,-1.4326,-1.4245,-1.4257,-1.432,-1.4245,-1.4257,-1.4314,-1.4175,-1.4195,-1.4314,-1.4175,-1.4201,-1.435,-1.4393,-1.4487,-1.4558,-1.4516,-1.4549,-1.4738,-1.533,-1.6488,-1.7578,-1.7122,-1.7802,-1.8555,-1.7743,-1.8365,-1.9178,-1.8816,-1.9334,-1.9927,-1.9819,-1.979,-1.979,-1.979,-1.979,-1.979,-1.979,-1.988,-1.9953,-1.9953,-2.0176,-2.0361,-2.0317,-2.0303,-2.0306,-2.0332,-2.0331,-2.0347,-2.0393,-2.0407,-2.0483,-2.0664,-2.0676,-2.1126,-2.2177,-2.3506,-2.4556,-2.5264,-2.5157,-2.5116,-2.5214,-2.5214,-2.5072,-2.4804,-2.4804,-2.4487,-2.3866,-2.3508,-2.283,-1.2601,-1.2601,-1.2601,-1.261,-1.2806,-1.3004,-1.3013,-1.3208,-1.3202,-1.2517,-1.2331,-1.206,-1.1323,0.0,0.0,0.0,0.0,0.0,0.0,-1.0386,-1.1062,-1.1336,-1.2203,-1.2629,-1.2155,-1.1772,-1.1901,-1.2743,-1.2839,-1.319,-1.4004,-1.4833,-1.5173,-1.4903,-1.4906,-1.4766,-1.4493,-1.4301,-1.4201,-1.4201,-1.4004,-1.392,-1.3934,-1.4098,-1.4103,-1.3934,-1.4123,-1.4085,-1.3927,-1.392,-1.392,-1.3927,-1.392,-1.392,-1.3948,-1.4143,-1.4207,-1.4233,-1.4422,-1.4493,-1.4517,-1.4536,-1.5111,-1.5815,-1.5915,-1.598,-1.6209,-1.7067,-1.7353,-1.7555,-1.8316,-1.9156,-1.9815,-1.979,-1.979,-1.979,-1.979,-1.979,-1.979,-1.979,-1.9796,-1.9821,-1.9821,-2.0088,-2.0295,-2.0304,-2.0296,-2.0324,-2.0391,-2.0397,-2.039,-2.039,-2.039,-2.0735,-2.1572,-2.1662,-2.2353,-2.4002,-2.4895,-2.5324,-2.5293,-2.5284,-2.5208,-2.5016,-2.5016,-2.493,-2.4804,-2.4804,-2.4618,-2.4273,-2.3868,-2.3323,-1.1938,-1.2061,-1.2102,-1.2291,-1.2402,-1.252,-1.2693,-1.2815,-1.2806,-1.2552,-1.2494,-1.2274,-1.1556,0.0,0.0,0.0,0.0,0.0,0.0,-1.0875,-1.1904,-1.206,-1.1485,-1.1263,-1.174,-1.1057,-1.0697,-1.0992,-1.1719,-1.2609,-1.3681,-1.4736,-1.5188,-1.4919,-1.4906,-1.4703,-1.4301,-1.422,-1.4136,-1.3997,-1.3805,-1.3766,-1.3906,-1.3824,-1.3849,-1.3906,-1.3824,-1.3831,-1.3899,-1.3768,-1.3773,-1.3892,-1.3743,-1.3691,-1.3739,-1.3934,-1.4004,-1.4024,-1.422,-1.4387,-1.4476,-1.4332,-1.4946,-1.5576,-1.4965,-1.5986,-1.7347,-1.7264,-1.7991,-1.889,-1.9164,-1.9328,-1.9414,-1.9458,-1.9369,-1.9309,-1.9448,-1.9476,-1.9476,-1.9476,-1.9591,-1.9663,-1.9663,-1.9845,-1.9972,-1.9979,-2.0039,-2.0127,-2.0189,-2.028,-2.0342,-2.041,-2.0396,-2.0722,-2.1562,-2.2685,-2.3368,-2.34,-2.4697,-2.5207,-2.4607,-2.5137,-2.5399,-2.5332,-2.5332,-2.5226,-2.5004,-2.5004,-2.4867,-2.4625,-2.4495,-2.3988,-1.1685,-1.1805,-1.1854,-1.2128,-1.2205,-1.2271,-1.2543,-1.2601,-1.2537,-1.2252,-1.2205,-1.1953,-1.1157,-1.0624,0.0,0.0,0.0,0.0,0.0,-1.1105,-1.1858,-1.2187,-1.1499,-1.117,-1.1612,-1.0679,-0.9712,-0.8919,-1.0859,0.0,0.0,-1.4534,-1.5171,-1.4905,-1.4905,-1.4665,-1.4201,-1.4136,-1.399,-1.378,-1.3601,-1.3595,-1.3718,-1.364,-1.364,-1.3718,-1.364,-1.3648,-1.3711,-1.358,-1.3603,-1.3711,-1.3572,-1.3524,-1.3548,-1.3731,-1.4,-1.4303,-1.4442,-1.476,-1.5038,-1.4618,-1.4925,-1.5332,-1.4679,-1.5659,-1.6973,-1.6895,-1.7814,-1.8816,-1.8849,-1.8924,-1.9003,-1.9048,-1.8948,-1.8896,-1.9014,-1.9048,-1.9048,-1.9048,-1.9235,-1.9391,-1.9391,-1.9455,-1.9586,-1.9767,-1.9874,-1.9969,-2.0054,-2.0412,-2.0707,-2.0813,-2.1092,-2.1507,-2.2041,-2.3137,-2.3534,-2.3005,-2.4007,-2.4485,-2.4174,-2.4431,-2.4715,-2.4994,-2.5029,-2.4957,-2.4776,-2.5093,-2.5176,-2.5045,-2.4969,-2.4621]},{"header":{"parameterUnit":"m.s-1","parameterCategory":1,"la1":30.6,"la2":29.2853,"lo1":-89.7004,"lo2":-87.6739,"dy":0.0162,"dx":0.0183,"nx":112,"ny":82,"refTime":"2024-03-20T12:00:00:Z","depth":0,"parameterNumber":3,"parameterNumberName":"V-component_of_WINDS"},"data":[0.0,0.0,0.0,0.0,0.0,0.0,0.0,0.0,0.0,0.0,0.0,0.0,0.0,0.0,0.0,0.0,0.0,0.0,0.0,0.0,0.0,0.0,0.0,0.0,0.0,0.0,0.0,0.0,0.0,0.0,0.0,0.0,0.0,0.0,0.0,0.0,0.0,0.0,0.0,0.0,0.0,0.0,0.0,0.0,0.0,0.0,0.0,0.0,0.0,0.0,0.0,0.0,0.0,0.0,0.0,0.0,0.0,0.0,0.0,0.0,0.0,0.0,0.0,0.0,0.0,0.0,0.0,0.0,0.0,0.0,0.0,0.0,0.0,0.0,0.0,0.0,0.0,0.0,0.0,0.0,0.0,0.0,0.0,0.0,0.0,0.0,0.0,0.0,0.0,0.0,-1.5387,-1.6635,-1.8593,-1.956,-1.8933,-1.8882,-1.7752,-1.506,0.0,0.0,0.0,0.0,0.0,0.0,0.0,0.0,0.0,0.0,0.0,0.0,0.0,0.0,0.0,0.0,0.0,0.0,0.0,0.0,0.0,0.0,0.0,0.0,0.0,0.0,0.0,0.0,0.0,0.0,0.0,0.0,0.0,0.0,0.0,0.0,0.0,0.0,0.0,0.0,0.0,0.0,0.0,0.0,0.0,0.0,0.0,0.0,0.0,0.0,0.0,0.0,0.0,0.0,0.0,0.0,0.0,0.0,0.0,0.0,0.0,0.0,0.0,0.0,0.0,0.0,0.0,0.0,0.0,0.0,0.0,0.0,0.0,0.0,0.0,0.0,0.0,0.0,0.0,0.0,0.0,0.0,0.0,0.0,0.0,0.0,0.0,0.0,0.0,0.0,0.0,0.0,0.0,0.0,0.0,0.0,0.0,0.0,0.0,0.0,0.0,0.0,0.0,0.0,-1.5688,-1.7727,-1.9058,-1.9409,-1.8417,-1.8329,-1.7338,-1.5035,0.0,0.0,0.0,0.0,0.0,0.0,0.0,0.0,0.0,0.0,0.0,0.0,0.0,0.0,0.0,0.0,0.0,0.0,0.0,0.0,0.0,0.0,0.0,0.0,0.0,0.0,0.0,0.0,0.0,0.0,0.0,0.0,0.0,0.0,0.0,0.0,0.0,0.0,0.0,0.0,0.0,0.0,0.0,0.0,0.0,0.0,0.0,0.0,0.0,0.0,0.0,0.0,0.0,0.0,0.0,0.0,0.0,0.0,0.0,0.0,0.0,0.0,0.0,0.0,0.0,0.0,0.0,0.0,0.0,0.0,0.0,0.0,0.0,0.0,0.0,0.0,0.0,0.0,0.0,0.0,0.0,0.0,0.0,0.0,0.0,0.0,0.0,0.0,0.0,0.0,0.0,0.0,0.0,0.0,0.0,0.0,0.0,0.0,0.0,0.0,0.0,0.0,0.0,-1.5449,-1.6384,-1.8028,-1.8643,-1.8731,-1.8242,-1.7928,-1.7084,-1.5449,-1.5299,0.0,0.0,0.0,0.0,0.0,0.0,0.0,0.0,0.0,0.0,0.0,0.0,0.0,0.0,0.0,0.0,0.0,0.0,0.0,0.0,0.0,0.0,0.0,0.0,0.0,0.0,0.0,0.0,0.0,0.0,0.0,0.0,0.0,0.0,0.0,0.0,0.0,0.0,0.0,0.0,0.0,0.0,0.0,0.0,0.0,0.0,0.0,0.0,0.0,0.0,0.0,0.0,0.0,0.0,0.0,0.0,0.0,0.0,0.0,0.0,0.0,0.0,0.0,0.0,0.0,0.0,0.0,0.0,0.0,0.0,0.0,0.0,0.0,0.0,0.0,0.0,0.0,0.0,0.0,0.0,0.0,0.0,0.0,0.0,0.0,0.0,0.0,0.0,0.0,0.0,0.0,0.0,0.0,0.0,0.0,0.0,0.0,0.0,0.0,0.0,0.0,0.0,-1.6296,-1.7061,-1.7915,-1.8129,-1.8154,-1.8028,-1.7398,-1.6631,-1.5764,-1.4927,0.0,0.0,0.0,0.0,0.0,0.0,0.0,0.0,0.0,0.0,0.0,0.0,0.0,0.0,0.0,0.0,0.0,0.0,0.0,0.0,0.0,0.0,0.0,0.0,0.0,0.0,0.0,0.0,0.0,0.0,0.0,0.0,0.0,0.0,0.0,0.0,0.0,0.0,0.0,0.0,0.0,0.0,0.0,0.0,0.0,0.0,0.0,0.0,0.0,0.0,0.0,0.0,0.0,0.0,0.0,0.0,0.0,0.0,0.0,0.0,0.0,0.0,0.0,0.0,0.0,0.0,0.0,0.0,0.0,0.0,0.0,0.0,0.0,0.0,0.0,0.0,0.0,0.0,0.0,0.0,0.0,0.0,0.0,0.0,0.0,0.0,0.0,0.0,0.0,0.0,0.0,0.0,0.0,0.0,0.0,0.0,0.0,0.0,0.0,0.0,0.0,0.0,-1.6669,-1.7373,-1.7461,-1.7903,-1.8003,-1.7511,-1.6455,-1.5781,-1.5706,-1.4206,0.0,0.0,0.0,0.0,0.0,0.0,0.0,0.0,0.0,0.0,0.0,0.0,0.0,0.0,0.0,0.0,0.0,0.0,0.0,0.0,0.0,0.0,0.0,0.0,0.0,0.0,0.0,0.0,0.0,0.0,0.0,0.0,0.0,0.0,0.0,0.0,0.0,0.0,0.0,0.0,0.0,0.0,0.0,0.0,0.0,0.0,0.0,0.0,0.0,0.0,0.0,0.0,0.0,0.0,0.0,0.0,0.0,0.0,0.0,0.0,0.0,0.0,0.0,0.0,0.0,0.0,0.0,0.0,0.0,0.0,0.0,0.0,0.0,0.0,0.0,0.0,0.0,0.0,0.0,0.0,0.0,0.0,0.0,0.0,0.0,0.0,0.0,0.0,0.0,0.0,0.0,0.0,0.0,0.0,0.0,0.0,0.0,0.0,0.0,0.0,0.0,0.0,-1.607,-1.6619,-1.7322,-1.7237,-1.7212,-1.7398,-1.6367,-1.5844,-1.6183,0.0,0.0,0.0,0.0,0.0,0.0,0.0,0.0,0.0,0.0,0.0,0.0,0.0,0.0,0.0,0.0,0.0,0.0,0.0,0.0,0.0,0.0,0.0,0.0,0.0,0.0,0.0,0.0,0.0,0.0,0.0,0.0,0.0,0.0,0.0,0.0,0.0,0.0,0.0,0.0,0.0,0.0,0.0,0.0,0.0,0.0,0.0,0.0,0.0,0.0,0.0,0.0,0.0,0.0,0.0,0.0,0.0,0.0,0.0,0.0,0.0,0.0,0.0,0.0,0.0,0.0,0.0,0.0,0.0,0.0,0.0,0.0,0.0,0.0,0.0,0.0,0.0,0.0,0.0,0.0,0.0,0.0,0.0,0.0,0.0,0.0,0.0,0.0,0.0,0.0,0.0,0.0,0.0,0.0,0.0,0.0,0.0,0.0,0.0,0.0,0.0,0.0,-1.5856,-1.5806,-1.6057,-1.6999,-1.676,-1.6609,-1.6845,-1.5655,-1.5304,-1.6195,0.0,0.0,0.0,0.0,0.0,0.0,0.0,0.0,0.0,0.0,0.0,0.0,0.0,0.0,0.0,0.0,0.0,0.0,0.0,0.0,0.0,0.0,0.0,0.0,0.0,0.0,0.0,0.0,0.0,0.0,0.0,0.0,0.0,0.0,0.0,0.0,0.0,0.0,0.0,0.0,0.0,0.0,0.0,0.0,0.0,0.0,0.0,0.0,0.0,0.0,0.0,0.0,0.0,0.0,0.0,0.0,0.0,0.0,0.0,0.0,0.0,0.0,0.0,0.0,0.0,0.0,0.0,0.0,0.0,0.0,0.0,0.0,0.0,0.0,0.0,0.0,0.0,0.0,0.0,0.0,0.0,0.0,0.0,0.0,0.0,0.0,0.0,0.0,0.0,0.0,0.0,0.0,0.0,0.0,0.0,0.0,0.0,0.0,0.0,0.0,0.0,0.0,-1.635,-1.6032,-1.5906,-1.6437,-1.6488,-1.6262,-1.5731,-1.4156,-1.3917,0.0,0.0,0.0,0.0,0.0,0.0,0.0,0.0,0.0,0.0,0.0,0.0,0.0,0.0,0.0,0.0,0.0,0.0,0.0,0.0,0.0,0.0,0.0,0.0,0.0,0.0,0.0,0.0,0.0,0.0,0.0,0.0,0.0,0.0,0.0,0.0,0.0,0.0,0.0,0.0,0.0,0.0,0.0,0.0,0.0,0.0,0.0,0.0,0.0,0.0,0.0,0.0,0.0,0.0,0.0,0.0,0.0,0.0,0.0,0.0,0.0,0.0,0.0,0.0,0.0,0.0,0.0,0.0,0.0,0.0,0.0,0.0,0.0,0.0,0.0,0.0,0.0,0.0,0.0,0.0,0.0,0.0,0.0,0.0,0.0,0.0,0.0,0.0,0.0,0.0,0.0,0.0,0.0,0.0,0.0,0.0,0.0,0.0,0.0,0.0,0.0,0.0,0.0,-1.635,-1.5693,-1.55,-1.64,-1.617,-1.5718,-1.5185,-1.3942,-1.3754,-1.5047,0.0,0.0,0.0,0.0,0.0,0.0,0.0,0.0,0.0,0.0,0.0,0.0,0.0,0.0,0.0,0.0,0.0,0.0,0.0,0.0,0.0,0.0,0.0,0.0,0.0,0.0,0.0,0.0,0.0,0.0,0.0,0.0,0.0,0.0,0.0,0.0,0.0,0.0,0.0,0.0,0.0,0.0,0.0,0.0,0.0,0.0,0.0,0.0,0.0,0.0,0.0,0.0,0.0,0.0,0.0,0.0,0.0,0.0,0.0,0.0,0.0,0.0,0.0,0.0,0.0,0.0,0.0,0.0,0.0,0.0,0.0,0.0,0.0,0.0,0.0,0.0,0.0,0.0,0.0,0.0,0.0,0.0,0.0,0.0,0.0,0.0,0.0,0.0,0.0,0.0,0.0,0.0,0.0,0.0,0.0,0.0,0.0,0.0,0.0,0.0,0.0,0.0,-1.635,-1.5555,-1.5311,-1.6387,-1.6019,-1.5399,-1.4639,-1.3534,-1.3165,-1.3866,0.0,0.0,0.0,0.0,0.0,0.0,0.0,0.0,0.0,0.0,0.0,0.0,0.0,0.0,0.0,0.0,0.0,0.0,0.0,0.0,0.0,0.0,0.0,0.0,0.0,0.0,0.0,0.0,0.0,0.0,0.0,0.0,0.0,0.0,0.0,0.0,0.0,0.0,0.0,0.0,0.0,0.0,0.0,0.0,0.0,0.0,0.0,0.0,0.0,0.0,0.0,0.0,0.0,0.0,0.0,0.0,0.0,0.0,0.0,0.0,0.0,0.0,0.0,0.0,0.0,0.0,0.0,0.0,0.0,0.0,0.0,0.0,0.0,0.0,0.0,0.0,0.0,0.0,0.0,0.0,0.0,0.0,0.0,0.0,0.0,0.0,0.0,0.0,0.0,0.0,0.0,0.0,0.0,0.0,0.0,0.0,0.0,0.0,0.0,0.0,0.0,0.0,-1.635,-1.5555,-1.5311,-1.6387,-1.5982,-1.5198,-1.411,-1.2986,-1.2341,-1.2341,0.0,0.0,0.0,0.0,0.0,0.0,0.0,0.0,0.0,0.0,0.0,0.0,0.0,0.0,0.0,0.0,0.0,0.0,0.0,0.0,0.0,0.0,0.0,0.0,0.0,0.0,0.0,0.0,0.0,0.0,0.0,0.0,0.0,0.0,0.0,0.0,0.0,0.0,0.0,0.0,0.0,0.0,0.0,0.0,0.0,0.0,0.0,0.0,0.0,0.0,0.0,0.0,0.0,0.0,0.0,0.0,0.0,0.0,0.0,0.0,-1.0742,-1.0762,0.0,0.0,0.0,0.0,0.0,0.0,0.0,0.0,0.0,0.0,0.0,0.0,0.0,0.0,0.0,0.0,0.0,0.0,0.0,0.0,0.0,0.0,0.0,0.0,0.0,0.0,0.0,0.0,0.0,0.0,0.0,0.0,0.0,0.0,0.0,0.0,0.0,0.0,0.0,0.0,-1.635,-1.5555,-1.5311,-1.6387,-1.563,-1.462,-1.3478,-1.2404,-1.1779,-1.1779,-1.1779,0.0,0.0,0.0,0.0,0.0,0.0,0.0,0.0,0.0,0.0,0.0,0.0,0.0,0.0,0.0,0.0,0.0,0.0,0.0,0.0,0.0,0.0,0.0,0.0,0.0,0.0,0.0,0.0,0.0,0.0,0.0,0.0,0.0,0.0,0.0,0.0,0.0,0.0,0.0,0.0,0.0,0.0,0.0,0.0,0.0,0.0,0.0,0.0,0.0,0.0,0.0,0.0,0.0,0.0,0.0,0.0,0.0,0.0,0.0,-1.0918,-1.1037,0.0,0.0,0.0,0.0,0.0,0.0,0.0,0.0,0.0,0.0,0.0,0.0,0.0,0.0,0.0,0.0,0.0,0.0,0.0,0.0,0.0,0.0,0.0,0.0,0.0,0.0,0.0,0.0,0.0,0.0,0.0,0.0,0.0,0.0,0.0,0.0,0.0,0.0,0.0,0.0,-1.635,-1.5555,-1.5311,-1.6387,-1.553,-1.4557,-1.3697,-1.2379,-1.149,-1.1186,-1.1437,0.0,0.0,0.0,0.0,0.0,0.0,0.0,0.0,0.0,0.0,0.0,0.0,0.0,0.0,0.0,0.0,0.0,0.0,0.0,0.0,0.0,0.0,0.0,0.0,0.0,0.0,0.0,0.0,0.0,0.0,0.0,0.0,0.0,0.0,0.0,0.0,0.0,0.0,0.0,0.0,0.0,0.0,0.0,0.0,0.0,0.0,0.0,0.0,0.0,0.0,0.0,0.0,0.0,-1.1735,-1.143,-1.0822,-1.2061,-1.1589,-0.9865,-1.0976,-1.1206,-1.0864,-1.114,0.0,0.0,0.0,0.0,0.0,0.0,0.0,0.0,0.0,0.0,0.0,0.0,0.0,0.0,0.0,0.0,0.0,0.0,0.0,0.0,0.0,0.0,-1.2463,-1.3003,-1.3597,-1.4098,-1.4141,0.0,0.0,0.0,0.0,0.0,0.0,0.0,0.0,0.0,0.0,0.0,-1.6258,-1.558,-1.5387,-1.6283,-1.5467,-1.4632,-1.3997,-1.2495,-1.1337,-1.0745,-1.1173,-1.1312,0.0,0.0,0.0,0.0,0.0,0.0,0.0,0.0,0.0,0.0,0.0,0.0,0.0,0.0,0.0,0.0,0.0,0.0,0.0,0.0,0.0,0.0,0.0,0.0,0.0,0.0,0.0,0.0,0.0,0.0,0.0,0.0,-0.5171,-0.647,0.0,0.0,0.0,0.0,0.0,0.0,0.0,0.0,0.0,0.0,0.0,0.0,0.0,-0.9595,-1.0246,-1.0562,-1.075,-1.0854,-1.1423,-1.1368,-1.0735,-1.128,-1.1347,-1.1039,-1.0355,0.0,-1.0698,-1.1296,0.0,0.0,0.0,0.0,0.0,0.0,0.0,0.0,0.0,0.0,0.0,0.0,0.0,0.0,0.0,0.0,0.0,0.0,0.0,0.0,0.0,0.0,-1.2937,-1.3148,-1.36,-1.4149,-1.4663,-1.559,-1.6158,-1.568,-1.558,-1.5618,0.0,0.0,0.0,0.0,0.0,0.0,-1.5781,-1.568,-1.5643,-1.5781,-1.5261,-1.4481,-1.3416,-1.2266,-1.1337,-1.0745,-1.0769,-1.1234,-1.2137,-1.2852,0.0,0.0,0.0,0.0,0.0,0.0,0.0,0.0,0.0,0.0,0.0,0.0,0.0,0.0,0.0,0.0,0.0,0.0,0.0,0.0,0.0,0.0,0.0,0.0,0.0,0.0,0.0,0.0,0.0,-0.5182,-0.6007,-0.6636,-0.6546,-0.6912,0.0,0.0,0.0,0.0,0.0,0.0,0.0,0.0,0.0,-0.8624,-0.9185,-0.9736,-1.0287,-1.0193,-1.0322,-1.0708,-1.1012,-1.0696,-0.9897,-1.1017,-1.0937,-0.9932,-1.0438,-1.0456,-1.0205,-1.088,-1.1685,-1.252,0.0,0.0,0.0,0.0,-1.2598,-1.2598,-1.2598,-1.2471,-1.2387,-1.2778,0.0,0.0,0.0,0.0,0.0,0.0,0.0,-1.249,-1.2051,-1.2441,-1.2965,-1.3107,-1.3521,-1.4147,-1.5091,-1.5666,-1.5936,-1.5732,-1.5944,-1.6158,-1.6158,-1.6158,0.0,0.0,0.0,-1.5806,-1.612,-1.5881,-1.5819,-1.612,-1.5399,-1.4695,-1.4199,-1.258,-1.149,-1.1224,-1.0896,-1.0919,-1.1422,-1.2572,-1.337,0.0,0.0,0.0,0.0,0.0,0.0,0.0,0.0,0.0,0.0,0.0,0.0,0.0,0.0,0.0,0.0,0.0,0.0,0.0,0.0,0.0,0.0,0.0,0.0,0.0,0.0,0.0,0.0,-0.5542,-0.6247,-0.6453,-0.6509,-0.7047,0.0,0.0,0.0,0.0,0.0,0.0,-0.8884,-0.9164,-0.9191,-0.8898,-0.9566,-1.0022,-1.0262,-1.012,-1.0242,-1.0675,-1.0675,-1.0269,-0.9608,-1.0699,-1.0392,-0.9086,-1.0203,-1.032,-0.9858,-1.0597,-1.1367,-1.2134,-1.2555,-1.2783,-1.2895,-1.2778,-1.2715,-1.2715,-1.2715,-1.2661,-1.2602,-1.2827,-1.2905,-1.2905,-1.2905,0.0,0.0,0.0,0.0,-1.2827,-1.248,-1.2637,-1.2982,-1.3346,-1.3624,-1.4133,-1.5343,-1.561,-1.5608,-1.5691,-1.6019,-1.6308,-1.6308,-1.6308,0.0,-1.6308,-1.6082,-1.6007,-1.6249,-1.607,-1.6007,-1.6283,-1.5462,-1.4833,-1.4714,-1.2923,-1.1801,-1.1801,-1.1385,-1.1119,-1.1119,-1.2459,-1.3208,-1.3226,0.0,0.0,0.0,0.0,0.0,0.0,0.0,0.0,0.0,0.0,0.0,0.0,0.0,0.0,0.0,0.0,0.0,0.0,0.0,0.0,0.0,0.0,0.0,0.0,0.0,0.0,0.0,0.0,0.0,-0.5525,-0.6055,0.0,0.0,0.0,0.0,-0.9109,-0.9178,-0.9178,-0.9191,-0.9499,-0.9526,-0.9204,-1.006,-1.0405,-1.0104,-1.0673,-1.0821,-1.0609,-1.0609,-1.0571,-1.0506,-1.0016,-0.9753,-0.9635,-0.9146,-0.9251,-0.9869,-1.0791,-1.1423,-1.1849,-1.2134,-1.252,-1.2856,-1.2389,-1.2242,-1.2242,-1.2242,-1.1982,-1.1812,-1.2631,-1.2905,-1.2905,-1.2905,-1.2905,0.0,0.0,-1.2559,-1.2895,-1.2876,-1.2886,-1.313,-1.4121,-1.4062,-1.4133,-1.5343,-1.561,-1.5608,-1.5691,-1.5718,-1.5731,-1.5731,0.0,-1.5731,-1.5731,-1.6158,-1.6296,-1.5806,-1.617,-1.6262,-1.5781,-1.5236,-1.4689,-1.4191,-1.3048,-1.235,-1.235,-1.2325,-1.2312,-1.2312,-1.2872,-1.3412,-1.3861,-1.4869,0.0,0.0,0.0,0.0,0.0,0.0,0.0,0.0,0.0,0.0,0.0,0.0,0.0,0.0,0.0,0.0,0.0,0.0,0.0,0.0,0.0,0.0,0.0,0.0,0.0,0.0,0.0,0.0,-0.5748,-0.5661,0.0,-0.8034,-0.7593,-0.7846,-0.9414,-0.9317,-0.9297,-0.9512,-0.9987,-1.0231,-1.0094,-1.0762,-1.1069,-1.0929,-1.1136,-1.1129,-1.0868,-1.0868,-1.0641,-1.0267,-1.006,-0.976,-0.9357,-0.9151,-0.9106,-0.9204,-0.9984,-1.0656,-1.1199,-1.1743,-1.2033,-1.2218,-1.2551,-1.2646,-1.2646,-1.2646,-1.2573,-1.2484,-1.2798,-1.2905,-1.2905,-1.2905,-1.2905,-1.2876,-1.2695,-1.2959,-1.3281,-1.3281,-1.3486,-1.3704,-1.3796,-1.3721,-1.3864,-1.4834,-1.5017,-1.5251,-1.6067,-1.6199,-1.6199,-1.6199,-1.6199,-1.6199,-1.6199,-1.6375,-1.6425,-1.6245,-1.6375,-1.6425,-1.6245,-1.5437,-1.4828,-1.4626,-1.3245,-1.24,-1.24,-1.24,-1.252,-1.2782,-1.3052,-1.3531,-1.4262,-1.4645,-1.5312,0.0,0.0,0.0,0.0,0.0,0.0,0.0,0.0,0.0,0.0,0.0,0.0,0.0,0.0,0.0,0.0,0.0,0.0,0.0,0.0,0.0,0.0,0.0,0.0,0.0,-0.4711,-0.5163,-0.603,-0.5826,-0.6322,-0.8059,-0.7866,-0.817,-0.9541,-0.9725,-0.993,-1.0254,-1.0641,-1.0888,-1.0888,-1.1323,-1.1523,-1.1389,-1.1523,-1.143,-1.1136,-1.1042,-1.0788,-1.0408,-1.0177,-0.9877,-0.9497,-0.9404,-0.9279,-0.9126,-0.9573,-1.0043,-1.0511,-1.1192,-1.1591,-1.1864,-1.2344,-1.2778,-1.3096,-1.3096,-1.2998,-1.2905,-1.2905,-1.2905,-1.2905,-1.2905,-1.2905,-1.2905,-1.2905,-1.3184,-1.3545,-1.3656,-1.3899,-1.4036,-1.3763,-1.3613,-1.3656,-1.4275,-1.4571,-1.4994,-1.5986,-1.6358,-1.65,-1.65,-1.65,-1.6563,-1.6773,-1.6635,-1.6563,-1.6785,-1.6635,-1.65,-1.65,-1.553,-1.4896,-1.4896,-1.3715,-1.2881,-1.2689,-1.2856,-1.3072,-1.329,-1.3589,-1.4141,-1.5029,-1.4959,-1.565,-1.7102,0.0,0.0,0.0,0.0,0.0,0.0,0.0,0.0,0.0,0.0,0.0,0.0,0.0,0.0,0.0,0.0,0.0,0.0,0.0,0.0,0.0,0.0,0.0,-0.4677,-0.4958,-0.5428,-0.6272,-0.6553,-0.6899,-0.7461,-0.8371,-0.9114,-0.9493,-1.0427,-1.1096,-1.1375,-1.1395,-1.1409,-1.1409,-1.173,-1.1744,-1.1422,-1.1737,-1.173,-1.1389,-1.1142,-1.0995,-1.0962,-1.0381,-1.0083,-1.01,-0.9813,-0.9715,-0.9715,-0.9715,-0.9679,-0.975,-1.0491,-1.1183,-1.1749,-1.1765,-1.2488,-1.3461,-1.3461,-1.3223,-1.2905,-1.2905,-1.2905,-1.2905,-1.2905,-1.2905,-1.2905,-1.2925,-1.3203,-1.3623,-1.4016,-1.4133,-1.4143,-1.4133,-1.3821,-1.3595,-1.3806,-1.4292,-1.488,-1.55,-1.6098,-1.6491,-1.65,-1.65,-1.671,-1.7285,-1.6873,0.0,-1.731,-1.6861,-1.65,-1.65,-1.5563,-1.4928,-1.4896,-1.4412,-1.3828,-1.3235,-1.3758,-1.4039,-1.3914,-1.4481,-1.5186,-1.6058,-1.5921,-1.6248,-1.7087,0.0,0.0,0.0,0.0,0.0,0.0,0.0,0.0,0.0,0.0,0.0,0.0,0.0,0.0,0.0,0.0,0.0,0.0,0.0,0.0,0.0,-0.4721,-0.4809,-0.485,-0.5294,-0.5744,-0.6075,-0.6271,-0.6719,-0.7506,-0.7611,-0.8221,-0.9696,-1.0051,-1.0539,-1.1354,-1.163,-1.175,-1.175,-1.2031,-1.2144,-1.2058,-1.2144,-1.1924,-1.1389,-1.1349,-1.1089,-1.07,-1.0287,-1.0083,-1.01,-0.9813,-0.9715,-0.9715,-0.9715,-0.9559,-0.9395,-1.0166,-1.0539,-1.0746,-1.0989,-1.1586,-1.2345,-1.2889,-1.3003,-1.2905,-1.2905,-1.2905,-1.2905,-1.2905,-1.2905,-1.2964,-1.3252,-1.3607,-1.4036,-1.4492,-1.4824,-1.498,-1.4678,-1.4512,-1.4505,-1.4697,-1.4613,-1.4784,-1.5905,-1.6285,-1.6436,-1.6485,-1.65,-1.655,-1.6713,-1.66,-1.655,-1.6735,-1.6588,-1.65,-1.65,-1.5894,-1.5324,-1.4921,-1.4412,-1.3828,-1.3235,-1.3685,-1.406,-1.431,-1.4492,-1.483,-1.5363,-1.6082,-1.6577,0.0,0.0,0.0,0.0,0.0,0.0,0.0,0.0,0.0,0.0,0.0,0.0,0.0,0.0,0.0,0.0,0.0,0.0,0.0,0.0,0.0,0.0,-0.5152,-0.5335,-0.5464,-0.5722,-0.6,-0.6278,-0.6335,-0.6606,-0.7177,-0.7337,-0.7886,-0.9085,-0.9879,-1.0569,-1.1202,-1.1765,-1.2087,-1.2087,-1.2218,-1.2305,-1.2305,-1.2305,-1.2131,-1.1755,-1.1509,-1.1249,-1.0909,-1.0488,-1.0301,-1.0294,-1.0157,-1.0084,-1.0084,-1.0084,-0.9947,-0.9782,0.0,0.0,0.0,0.0,-1.1619,-1.2163,-1.2712,-1.3004,-1.3115,-1.2964,-1.2905,-1.2905,-1.2905,-1.2905,-1.2954,-1.3174,-1.3545,-1.3899,-1.418,-1.4561,-1.4786,-1.457,-1.4512,-1.4552,-1.4669,-1.4697,-1.5006,-1.6055,-1.6502,0.0,-1.6851,-1.6886,-1.6961,-1.7165,-1.6801,-1.6588,-1.6848,-1.6672,-1.65,-1.65,-1.6019,-1.5467,-1.4947,-1.4614,0.0,0.0,0.0,-1.4258,-1.489,-1.5227,0.0,0.0,0.0,-1.6577,-1.6323,-1.6965,0.0,0.0,-1.8837,-1.9564,0.0,0.0,0.0,0.0,0.0,0.0,0.0,0.0,0.0,0.0,0.0,0.0,0.0,0.0,0.0,0.0,-0.5671,-0.5966,-0.633,-0.6217,-0.6239,-0.6678,-0.6607,-0.6576,-0.6712,-0.7302,-0.7824,-0.8184,-0.9632,-1.0638,-1.1051,-1.1753,0.0,0.0,0.0,-1.2305,-1.2305,-1.2305,-1.2285,-1.2245,-1.1724,-1.1409,-1.1329,-1.0842,-1.0626,-1.0593,-1.0593,-1.0593,-1.0593,-1.0593,-1.0553,-1.0419,-0.9599,-0.9431,-0.9862,-1.116,-1.1932,-1.2349,-1.2663,0.0,0.0,-1.3023,-1.2905,-1.2915,-1.2964,-1.2974,-1.2993,-1.3101,-1.3359,-1.3662,-1.3711,-1.3977,-1.425,-1.425,-1.425,-1.425,-1.425,-1.4693,-1.5285,-1.5986,-1.6583,-1.7061,-1.7322,-1.7368,-1.7549,-1.7953,-1.7162,-1.6697,-1.7234,-1.6835,-1.65,-1.65,-1.6082,0.0,-1.4947,-1.4896,-1.44,-1.3273,-1.3755,-1.4493,-1.5419,-1.6143,-1.6531,-1.6607,-1.6607,-1.6338,-1.5799,-1.6338,-1.6637,-1.6726,-1.8072,-1.9016,0.0,0.0,0.0,0.0,0.0,0.0,0.0,0.0,0.0,0.0,0.0,0.0,0.0,0.0,0.0,-0.5719,-0.6054,-0.6358,-0.6739,-0.6731,-0.6745,-0.6832,-0.6858,-0.6851,-0.6839,-0.6885,-0.7286,-0.8119,-0.8396,-0.937,-1.1317,-1.12,-1.1608,-1.269,-1.2425,-1.2305,-1.2305,-1.2305,-1.2184,-1.1986,-1.1873,0.0,-1.1069,-1.0962,-1.0814,-1.0593,-1.0593,-1.0593,-1.0593,-1.0593,-1.0311,-0.9869,-0.9666,-0.9355,-0.9101,-0.9903,-1.0607,-1.1218,-1.182,-1.2457,-1.2988,-1.2935,-1.2905,-1.2964,-1.3281,-1.3389,0.0,-1.4219,-1.45,-1.4619,-1.4961,-1.5079,-1.5166,-1.5166,-1.5166,-1.5166,-1.5166,-1.5015,-1.5034,-1.5677,-1.5967,-1.6358,-1.7049,-1.7293,-1.7262,-1.6898,-1.6638,-1.6538,-1.6651,-1.6563,-1.65,-1.65,-1.64,-1.5957,-1.4972,-1.4896,-1.44,-1.3273,-1.3667,-1.4308,-1.5138,-1.5337,-1.5594,-1.5979,-1.5964,-1.5919,-1.5799,-1.5919,-1.6219,-1.6726,-1.8072,-1.8777,0.0,0.0,0.0,0.0,0.0,0.0,0.0,0.0,0.0,0.0,0.0,-0.2374,-0.3276,0.0,-0.5485,-0.6224,-0.6495,-0.6698,-0.695,-0.6991,-0.6991,-0.6991,-0.693,-0.6913,-0.6984,-0.6831,-0.6968,-0.758,-0.7938,-0.863,-0.9899,-1.0155,-1.0846,-1.2122,-1.1821,-1.1948,-1.2525,-1.2378,-1.2231,-1.2084,-1.1973,-1.1752,-1.143,-1.1276,-1.1049,-1.0807,-1.0807,-1.0727,-1.0593,-1.0593,-1.0332,-0.99,-0.99,-0.9452,-0.8851,-0.9326,-1.0212,-1.1189,-1.1447,-1.2266,-1.3164,-1.2974,-1.2905,-1.2983,-1.3379,-1.3506,-1.3643,-1.4277,-1.4463,-1.4502,-1.4689,-1.4747,-1.4796,-1.5049,-1.5098,-1.5156,-1.5371,-1.5244,-1.54,-1.6469,-1.6694,-1.7026,-1.7906,-1.7904,-1.7601,-1.7036,-1.6697,-1.65,-1.65,-1.65,-1.65,-1.65,-1.65,-1.6183,-1.5374,-1.5047,-1.4657,-1.4086,-1.4708,-1.5127,-1.5198,-1.5656,-1.6008,-1.6263,-1.5949,-1.5949,-1.6263,-1.5949,-1.5949,-1.6278,-1.7579,-1.8371,0.0,0.0,0.0,0.0,0.0,0.0,0.0,0.0,-0.0161,-0.0761,-0.1798,-0.288,-0.3914,-0.516,-0.6201,-0.6697,-0.6888,-0.6967,-0.7082,-0.7095,-0.7085,-0.7058,-0.6977,-0.697,-0.7085,-0.6926,-0.6885,-0.7078,-0.7608,-0.8092,-0.8487,-0.9073,-1.0024,-1.1444,-1.1194,-1.1613,-1.2784,-1.2572,-1.2478,-1.2478,-1.2214,-1.2047,-1.198,-1.1643,-1.1349,-1.1069,-1.1015,-1.0861,-1.0593,-1.0593,-1.0388,-1.0083,-1.0083,-0.9653,-0.9005,-0.9211,-1.023,-1.1446,-1.1339,-1.2271,-1.3437,-1.3042,-1.3013,-1.3184,-1.3525,-1.3691,-1.3848,-1.4241,-1.4358,-1.4358,-1.4358,-1.4358,-1.4445,-1.4824,-1.4902,-1.5,-1.5342,-1.541,-1.5748,-1.694,-1.7163,-1.7388,-1.8108,-1.7983,-1.7685,-1.744,-1.6886,-1.65,-1.65,-1.65,-1.65,-1.65,-1.64,-1.6132,-1.558,-1.5047,-1.4733,-1.4733,-1.554,-1.5751,-1.5164,-1.6077,-1.6575,-1.6532,-1.6159,-1.6159,-1.6517,-1.6278,-1.6099,-1.6009,-1.728,-1.8117,0.4149,0.3314,0.1869,0.0481,0.0122,0.0095,0.0,0.0,-0.0036,-0.0111,-0.0836,-0.1908,-0.3387,-0.4415,-0.5485,-0.6823,-0.7061,-0.7078,-0.7095,-0.7095,-0.7048,-0.6923,-0.7007,-0.7078,-0.7095,-0.7065,-0.7061,-0.7095,-0.708,-0.7561,-0.8765,-0.8444,-0.9225,-1.1438,-1.1284,-1.1697,-1.2784,-1.2986,-1.3106,-1.3106,-1.2831,-1.2549,-1.2245,-1.1986,-1.1657,-1.1329,-1.1102,-1.0861,-1.0593,-1.0593,-1.0388,-1.0083,-1.0083,-0.99,-0.9586,-0.9619,-1.0366,-1.1313,-1.1313,-1.2271,-1.3437,-1.3042,-1.3389,-1.3977,-1.4026,-1.4336,-1.4727,-1.5156,-1.5235,-1.5235,-1.5235,-1.5235,-1.5283,-1.5332,-1.5342,-1.5352,-1.54,-1.541,-1.5439,-1.5604,-1.5661,-1.562,-1.5537,-1.5942,-1.6504,-1.7268,-1.6886,-1.65,-1.65,-1.65,-1.65,-1.65,-1.6082,-1.5567,-1.5035,-1.45,-1.4191,-1.4191,-1.4689,-1.4846,-1.4594,-1.5609,-1.6092,-1.5904,-1.6368,-1.6368,-1.5889,-1.6982,-1.719,-1.6637,-1.7968,-1.8311,0.3194,0.2385,0.1407,0.0786,0.0329,0.0,0.0,0.0,0.0,0.0,-0.0838,-0.1771,-0.245,-0.4019,-0.5437,-0.6121,-0.6703,-0.7129,-0.7261,-0.7126,-0.6886,-0.6692,-0.6793,-0.6885,-0.6885,-0.692,-0.6974,-0.6974,-0.692,-0.7125,-0.7703,-0.7412,-0.8053,-0.9805,-1.0246,-1.1033,-1.2277,-1.2902,-1.312,-1.2985,-1.2993,-1.2766,-1.2305,-1.2395,-1.2161,-1.1663,-1.1376,-1.1082,-1.0847,-1.0847,-1.0673,-1.0374,-1.0374,-1.0332,-1.0184,-0.9842,-1.0244,-1.1028,-1.148,-1.2304,-1.3196,-1.3507,-1.3821,-1.4153,-1.4406,-1.4639,-1.4873,-1.5293,-1.541,-1.541,-1.541,-1.541,-1.541,-1.541,-1.541,-1.541,-1.541,-1.541,-1.5526,-1.595,-1.6036,-1.6131,-1.6488,-1.6325,-1.6384,-1.7111,-1.6816,-1.65,-1.65,-1.65,-1.65,-1.65,-1.6287,-1.6082,-1.5856,-1.5618,-1.5361,-1.5047,-1.6102,-1.6364,-1.5578,-1.6884,-1.7566,-1.7475,-1.6965,-1.695,-1.7491,-1.725,-1.7174,-1.7294,-1.8252,-1.8553,0.2226,0.1641,0.1295,0.0896,0.0388,0.0,0.0,0.0,0.0,0.0,-0.0711,-0.1414,-0.1795,-0.3243,-0.4682,-0.5517,-0.62,-0.6789,-0.735,-0.7078,-0.6682,-0.6176,-0.6124,-0.6147,-0.6149,-0.6559,-0.6839,-0.6883,-0.6886,-0.6903,-0.6943,-0.6844,-0.7312,-0.8564,-0.9257,-1.0316,-1.1863,-1.2513,-1.2889,-1.3032,-1.3053,-1.2899,-1.2559,-1.2723,-1.2462,-1.1893,-1.1637,-1.1336,-1.0995,-1.0995,-1.0854,-1.0593,-1.0593,-1.0593,-1.0539,-1.011,-1.0295,-1.0899,-1.1485,-1.2144,-1.2871,-1.354,-1.3935,-1.4209,-1.4661,-1.4891,-1.5019,-1.5322,-1.541,-1.541,-1.541,-1.541,-1.541,-1.541,-1.541,-1.541,-1.541,-1.541,-1.5555,-1.6093,-1.6208,-1.6285,-1.6568,-1.623,-1.5961,-1.6163,-1.6224,-1.6315,-1.6466,-1.65,-1.6437,-1.6308,-1.6283,-1.6233,-1.607,-1.607,-1.5831,-1.5299,-1.6625,-1.697,-1.5895,-1.7387,-1.8248,-1.8197,-1.7572,-1.7654,-1.8416,-1.7833,-1.7667,-1.7997,-1.8672,-1.8972,0.1749,0.1632,0.1836,0.0392,0.0,0.0,0.0,0.0,0.0,0.0,-0.0045,-0.0449,-0.1747,-0.1937,-0.277,-0.5393,-0.561,-0.5891,-0.7213,-0.6987,-0.6315,-0.5267,-0.4917,-0.4771,-0.4771,-0.5922,-0.677,-0.6876,-0.6886,-0.6947,-0.7082,-0.6957,-0.7346,-0.8357,-0.8603,-0.9769,-1.1863,-1.194,-1.2482,-1.3567,-1.3072,-1.2951,-1.3173,-1.2918,-1.2462,-1.1906,-1.1893,-1.1558,-1.0995,-1.0995,-1.0854,-1.0593,-1.0593,-1.0593,-1.0586,-1.0573,-1.0797,-1.1086,-1.1115,-1.1685,-1.2456,-1.2826,-1.3517,-1.4282,-1.4676,-1.5068,-1.5391,-1.541,-1.541,-1.541,-1.541,-1.541,-1.541,-1.541,-1.541,-1.541,-1.541,-1.541,-1.541,-1.5439,-1.5439,-1.5175,-1.4343,-1.4734,-1.4845,-1.4018,-1.488,-1.5842,-1.6423,-1.65,-1.6287,-1.5781,-1.5718,-1.5505,-1.4984,-1.4947,-1.4727,-1.4191,-1.5168,-1.5464,-1.4779,-1.6283,-1.7101,-1.695,-1.8059,-1.8326,-1.7727,-1.8986,-1.9286,-1.8687,-1.9346,-1.9678,0.2988,0.2596,0.2351,0.1068,0.037,0.0,0.0,0.0,0.0,0.0,0.0,-0.013,-0.058,-0.128,-0.2135,-0.3102,-0.3787,-0.4405,-0.4956,-0.4694,-0.4227,-0.3709,-0.426,-0.4618,-0.4399,-0.4994,-0.5734,-0.6573,-0.6624,-0.6692,-0.6841,-0.6803,-0.6947,-0.7389,-0.8229,-0.9068,-0.9779,-1.1194,-1.2034,-1.2364,-1.2824,-1.3113,-1.32,-1.2924,-1.2569,-1.2144,-1.1986,-1.1643,-1.1263,-1.1069,-1.0854,-1.0593,-1.0593,-1.0593,-1.0593,-1.0593,-1.0683,-1.0829,-1.1393,-1.2095,-1.29,-1.3561,-1.4318,-1.5021,-1.5158,-1.5293,-1.541,-1.541,-1.541,-1.541,-1.541,-1.541,-1.541,-1.541,-1.541,-1.541,-1.541,-1.541,-1.541,-1.541,-1.541,-1.5234,-1.4668,-1.4488,-1.4425,-1.4401,-1.5073,-1.582,-1.6423,-1.65,-1.6287,-1.5756,-1.5693,-1.5618,-1.5449,-1.5437,-1.5361,-1.5173,-1.6499,-1.7033,-1.645,-1.7964,-1.8809,-1.8756,-1.8721,-1.8807,-1.9031,-1.9031,-1.9151,-1.9361,-1.9585,-1.9708,0.4026,0.3356,0.2643,0.1675,0.0708,0.0,0.0,0.0,0.0,0.0,0.0,0.0,0.0,-0.065,-0.1361,-0.1909,-0.2537,-0.3134,-0.3721,-0.3457,-0.3044,-0.2579,-0.3105,-0.358,-0.3873,-0.4042,-0.4775,-0.6384,-0.6573,-0.6678,-0.6776,-0.6831,-0.6902,-0.6957,-0.7671,-0.8304,-0.8751,-0.9991,-1.0865,-1.148,-1.2164,-1.2635,-1.2886,-1.2824,-1.2623,-1.2285,-1.2033,-1.1697,-1.1369,-1.1109,-1.0854,-1.0593,-1.0593,-1.0593,-1.0593,-1.0593,-1.0593,-1.0681,-1.1195,-1.1903,-1.2696,-1.3515,-1.4332,-1.5021,-1.5323,-1.541,-1.541,-1.541,-1.541,-1.541,-1.541,-1.541,-1.541,-1.541,-1.541,-1.541,-1.541,-1.541,-1.541,-1.541,-1.5293,-1.5049,-1.4619,-1.4072,-1.3917,-1.459,-1.5028,-1.5577,-1.6402,-1.65,-1.6287,-1.5756,-1.5517,-1.5349,-1.5148,-1.5299,-1.5336,-1.5135,-1.6454,-1.7161,-1.7033,-1.8184,-1.9009,-1.9424,-1.9167,-1.9271,-1.9708,-1.9273,-1.9271,-1.9708,-1.9708,-1.9708,0.4785,0.3899,0.2911,0.2281,0.108,0.0095,0.0093,0.0045,0.0,0.0,0.0,0.0,0.0,0.0,-0.0423,-0.17,-0.1788,-0.216,-0.3444,-0.3221,-0.262,-0.1793,-0.1487,-0.1834,-0.3169,-0.3251,-0.4104,-0.625,-0.6714,-0.6876,-0.6886,-0.7018,-0.7095,-0.7095,-0.696,-0.7505,-0.8773,-0.8426,-0.9124,-1.0946,-1.1107,-1.1554,-1.2277,-1.2587,-1.2585,-1.2285,-1.2033,-1.1697,-1.1369,-1.1109,-1.0854,-1.0593,-1.0593,-1.0593,-1.0593,-1.0593,-1.0593,-1.0593,-1.0593,-1.1139,-1.1927,-1.2696,-1.3485,-1.4302,-1.5079,-1.5352,-1.5352,-1.5381,-1.541,-1.541,-1.541,-1.541,-1.541,-1.541,-1.541,-1.541,-1.541,-1.541,-1.541,-1.541,-1.5049,-1.4619,-1.4182,-1.3437,-1.3296,-1.4479,-1.4652,-1.5107,-1.6337,-1.65,-1.6274,-1.5718,-1.5236,-1.4714,-1.4154,-1.4626,-1.4727,-1.4217,-1.52,-1.6002,-1.6513,-1.7079,-1.7852,-1.8878,-1.9424,-1.9708,-1.9708,-1.9708,-1.9708,-1.9708,-1.9708,-1.9708,0.5081,0.4961,0.4818,0.373,0.2463,0.1482,0.1497,0.0738,0.0,0.0,0.0,0.0,0.0,0.0,-0.0101,-0.0457,-0.0499,-0.0577,-0.09,-0.0873,-0.0701,-0.0475,-0.1086,-0.1649,-0.2006,-0.3583,-0.4803,-0.5276,-0.6224,-0.6807,-0.6879,-0.7018,-0.7095,-0.7095,-0.696,-0.7016,-0.7273,-0.8003,-0.9019,-1.0403,-1.0521,-1.1007,-1.1685,-1.1636,-1.1853,-1.2285,-1.2033,-1.1697,-1.1369,-1.1109,-1.0854,-1.0593,-1.0593,-1.0593,-1.0593,-1.0593,-1.0593,-1.0593,-1.0593,-1.1139,-1.1834,-1.205,-1.2665,-1.3455,-1.4273,-1.451,-1.4628,-1.5225,-1.541,-1.541,-1.541,-1.541,-1.541,-1.541,-1.541,-1.541,-1.541,-1.541,-1.541,-1.541,-1.4777,-1.4241,-1.4124,-1.3437,-1.3152,-1.392,-1.4027,-1.4618,-1.6293,-1.65,-1.6145,-1.5198,-1.5349,-1.511,-1.4191,-1.4947,-1.5449,-1.5299,-1.6303,-1.6958,-1.7088,-1.7988,-1.8607,-1.8878,-1.9424,-1.9708,-1.9708,-1.9708,-1.9708,-1.9708,-1.9708,-1.9708,0.617,0.5953,0.5646,0.5023,0.3417,0.1992,0.2004,0.0959,0.0,0.0,0.0,0.0,0.0,0.0,0.0,0.0,0.0,0.0,0.0,0.0,0.0,0.0,-0.0535,-0.1115,-0.1628,-0.2884,-0.4043,-0.5046,-0.6202,-0.6905,-0.6883,-0.7018,-0.7068,-0.7004,-0.6927,-0.6854,-0.6702,-0.7275,-0.8134,-0.9255,-0.9686,-1.0372,-1.1218,-1.1542,-1.1928,-1.2285,-1.2033,-1.177,-1.159,-1.1169,-1.0895,-1.0767,-1.064,-1.0593,-1.0593,-1.0593,-1.0593,-1.0593,-1.0593,-1.0895,-1.1313,-1.1679,-1.2328,-1.307,-1.3545,-1.3666,-1.3846,-1.4658,-1.4864,-1.4962,-1.5323,-1.541,-1.541,-1.541,-1.541,-1.541,-1.541,-1.541,-1.5352,-1.5176,-1.4572,-1.4046,-1.386,-1.3311,-1.3104,-1.3708,-1.4027,-1.4664,-1.5942,-1.6117,-1.5895,-1.5296,-1.5517,-1.5361,-1.4525,-1.5223,-1.5613,-1.5361,-1.658,-1.7295,-1.7309,-1.8336,-1.9006,-1.9244,-1.9548,-1.9708,-1.9708,-1.9708,-1.9708,-1.9708,-1.9708,-1.9708,0.7478,0.6861,0.6097,0.6234,0.4324,0.2414,0.226,0.1237,0.0254,0.0033,0.0091,0.0116,0.0028,0.0,0.0,0.0,0.0,0.0,0.0,0.0,0.0,0.0,0.0,-0.0406,-0.1439,-0.1708,-0.2649,-0.4755,-0.6124,-0.691,-0.692,-0.7031,-0.7031,-0.6889,-0.6866,-0.6834,-0.6702,-0.6549,-0.6955,-0.7844,-0.871,-0.9635,-1.0643,-1.1639,-1.2187,-1.2285,-1.2037,-1.194,-1.1859,-1.1276,-1.1029,-1.0962,-1.0707,-1.0593,-1.0593,-1.0593,-1.0593,-1.0593,-1.0593,-1.0593,-1.0713,-1.1406,-1.2112,-1.2704,-1.2826,-1.2856,-1.3031,-1.3936,-1.4115,-1.4234,-1.5167,-1.5235,-1.5138,-1.5352,-1.5323,-1.5264,-1.5381,-1.541,-1.5303,-1.4941,-1.4521,-1.4075,-1.374,-1.3281,-1.3169,-1.3683,-1.4163,-1.4721,-1.5387,-1.561,-1.5702,-1.5702,-1.5756,-1.5555,-1.4947,-1.5462,-1.5567,-1.5035,-1.639,-1.7216,-1.7308,-1.8271,-1.9043,-1.9584,-1.9657,-1.9708,-1.9708,-1.9708,-1.9708,-1.9708,-1.9708,-1.9708,0.7712,0.7687,0.7575,0.7531,0.612,0.4599,0.3697,0.2734,0.1673,0.0275,0.0493,0.0732,0.0112,0.0,0.0,0.0,0.0,0.0,0.0,0.0,0.0,0.0,0.0,-0.0092,-0.0276,-0.1195,-0.1974,-0.2386,-0.4465,-0.6107,-0.7017,-0.7082,-0.7031,-0.6889,-0.6807,-0.6725,-0.6702,-0.6549,-0.6657,-0.6942,-0.7812,-0.8739,-0.9738,-1.0657,-1.1502,-1.2298,-1.2245,-1.2091,-1.1879,-1.1496,-1.1209,-1.0962,-1.0707,-1.0593,-1.0593,-1.0593,-1.0593,-1.0593,-1.0593,-1.0593,-1.0624,-1.0776,-1.0902,-1.1146,-1.1803,-1.202,-1.232,-1.3786,-1.3726,-1.3554,-1.5021,-1.4421,-1.3756,-1.5079,-1.4894,-1.4599,-1.5264,-1.541,-1.5391,-1.5312,-1.4961,-1.4648,-1.458,-1.3916,-1.3424,-1.354,-1.3357,-1.361,-1.4721,-1.5722,-1.6168,-1.5756,-1.6107,-1.5969,-1.4972,-1.5793,-1.6132,-1.5613,-1.6241,-1.6828,-1.7276,-1.7898,-1.8496,-1.9024,-1.946,-1.9708,-1.9708,-1.9708,-1.9708,-1.9708,-1.9708,-1.9708,0.7848,0.7934,0.7955,0.7848,0.6527,0.5078,0.4494,0.3334,0.2105,0.1309,0.144,0.1563,0.1202,0.0822,0.0582,0.058,0.0252,0.0,0.0,0.0,0.0,0.0,0.0,0.0,0.0,-0.0543,-0.1404,-0.2638,-0.3796,-0.4928,-0.6017,-0.6602,-0.6878,-0.6814,-0.6739,-0.6661,-0.6583,-0.6549,-0.6511,-0.6511,-0.7446,-0.8138,-0.8672,-1.0121,-1.105,-1.1545,-1.207,-1.2225,-1.2058,-1.161,-1.1309,-1.1176,-1.0767,-1.0593,-1.0593,-1.0593,-1.0593,-1.0593,-1.0593,-1.0593,-1.0593,-1.0593,-1.0593,-1.0681,-1.1045,-1.1163,-1.1406,-1.2626,-1.2657,-1.2665,-1.3846,-1.3575,-1.3312,-1.4481,-1.4805,-1.4932,-1.5323,-1.541,-1.541,-1.541,-1.5068,-1.4717,-1.4482,-1.4075,-1.3656,-1.3242,-1.3471,-1.3931,-1.4617,-1.5488,-1.604,-1.6103,-1.6337,-1.6287,-1.5781,-1.6187,-1.6283,-1.5731,-1.6467,-1.7036,-1.73,-1.8082,-1.8765,-1.9314,-1.9566,-1.9708,-1.9708,-1.9708,-1.9708,-1.9708,-1.9708,-1.9708,0.7879,0.7965,0.7938,0.777,0.6548,0.5294,0.4908,0.373,0.2634,0.2287,0.2343,0.2397,0.2232,0.173,0.1271,0.1139,0.0617,0.0186,0.0035,0.0,0.0,0.0,0.0,0.0,0.0,0.0,-0.0794,-0.2665,-0.3247,-0.4073,-0.5408,-0.627,-0.6702,-0.6702,-0.6668,-0.6593,-0.6515,-0.648,-0.6412,-0.63,-0.7326,-0.7783,-0.7859,-0.9664,-1.049,-1.0527,-1.1545,-1.1959,-1.1957,-1.1558,-1.1389,-1.1335,-1.0821,-1.0593,-1.0593,-1.0593,-1.0593,-1.0593,-1.0593,-1.0593,-1.0593,-1.0593,-1.0593,-1.0593,-1.0593,-1.0593,-1.0776,-1.1555,-1.1679,-1.1772,-1.2765,-1.2879,-1.3,-1.3965,-1.4805,-1.541,-1.541,-1.541,-1.541,-1.541,-1.5068,-1.4707,-1.4426,-1.4153,-1.3782,-1.3232,-1.369,-1.4226,-1.4662,-1.5096,-1.5688,-1.6423,-1.65,-1.65,-1.65,-1.65,-1.6312,-1.5906,-1.6664,-1.7182,-1.7301,-1.8223,-1.8987,-1.953,-1.9639,-1.9708,-1.9708,-1.9708,-1.9708,-1.9708,-1.9708,-1.9708,0.7746,0.7884,0.7891,0.7516,0.6903,0.6064,0.4822,0.4507,0.4048,0.2501,0.2788,0.3065,0.2343,0.2148,0.189,0.1197,0.1057,0.0761,0.0101,0.0,0.0,0.0,0.0,0.0,0.0,0.0,-0.0086,-0.0313,-0.207,-0.4202,-0.6616,-0.6699,-0.6702,-0.6702,-0.6566,-0.6525,-0.6511,-0.6385,-0.6313,-0.63,-0.7326,-0.7783,-0.7821,-0.8955,-0.9448,-0.9485,-1.049,-1.0932,-1.0971,-1.1272,-1.1389,-1.1335,-1.0821,-1.0593,-1.0593,-1.0593,-1.0593,-1.0593,-1.0593,-1.0593,-1.0593,-1.0593,-1.0593,-1.0593,-1.0593,-1.0593,-1.0776,-1.1555,-1.1257,-1.1052,-1.2612,-1.2451,-1.2289,-1.3846,-1.4805,-1.541,-1.541,-1.541,-1.541,-1.541,-1.5068,-1.4893,-1.5234,-1.4336,-1.3636,-1.3948,-1.3449,-1.3447,-1.4548,-1.4744,-1.522,-1.638,-1.65,-1.65,-1.65,-1.65,-1.6475,-1.6425,-1.6527,-1.679,-1.7274,-1.7846,-1.8438,-1.8968,-1.9442,-1.9708,-1.9708,-1.9708,-1.9708,-1.9708,-1.9708,-1.9708,0.7414,0.7658,0.7689,0.7322,0.6644,0.5862,0.5054,0.4572,0.4108,0.3514,0.3654,0.3812,0.3611,0.3176,0.2633,0.1874,0.0,0.0,0.0095,0.0,0.0,0.0,0.0,0.0,0.0,0.0,-0.0297,-0.1034,-0.2455,-0.372,-0.47,-0.5893,-0.6563,-0.6563,-0.6593,-0.661,-0.661,-0.6501,-0.6426,-0.6426,-0.6761,-0.6911,-0.6945,-0.7936,-0.8389,-0.8466,-0.9442,-0.9895,-0.9932,-1.0343,-1.051,-1.0489,-1.0588,-1.0593,-1.0593,-1.0593,-1.0593,-1.0593,-1.0593,-1.0593,-1.0593,-1.0593,-1.0593,-1.0593,-1.0593,-1.0593,-1.0688,-1.0989,-1.0839,-1.0744,-1.1389,-1.2027,-1.2665,-1.3334,-1.4451,-1.541,-1.541,-1.541,-1.541,-1.541,-1.5273,-1.5049,-1.4679,-1.4434,-1.4072,-1.3467,-1.3311,-1.3491,-1.4093,-1.4468,-1.5017,-1.5864,-1.6281,-1.65,-1.65,-1.65,-1.65,-1.65,-1.65,-1.6731,-1.7271,-1.7827,-1.8361,-1.8893,-1.9424,-1.9708,-1.9708,-1.9708,-1.9708,-1.9708,-1.9708,-1.9708,0.6929,0.7149,0.7293,0.7151,0.6503,0.5823,0.5413,0.4764,0.425,0.4158,0.4164,0.425,0.4379,0.3957,0.3279,0.0,0.0,0.1043,0.012,0.0,0.0,0.0,0.0,0.0,0.0,0.0,-0.0335,-0.1194,-0.2274,-0.2835,-0.281,-0.4522,-0.5643,-0.5964,-0.6351,-0.6569,-0.6569,-0.6504,-0.645,-0.645,-0.6347,-0.63,-0.6338,-0.7022,-0.7365,-0.7399,-0.8359,-0.8784,-0.8916,-0.9556,-0.9846,-0.9932,-1.0419,-1.0593,-1.0593,-1.0593,-1.0593,-1.0593,-1.0593,-1.0593,-1.0593,-1.0593,-1.0593,-1.0593,-1.0593,-1.0593,-1.0593,-1.0593,-1.0593,-1.0649,-1.0895,-1.181,-1.2757,-1.3243,-1.4213,-1.5108,-1.5352,-1.541,-1.541,-1.541,-1.5312,-1.5029,-1.4397,-1.4375,-1.4102,-1.3203,-1.3213,-1.3452,-1.375,-1.4329,-1.4926,-1.5543,-1.6139,-1.65,-1.65,-1.65,-1.65,-1.65,-1.65,-1.668,-1.7055,-1.7585,-1.8125,-1.865,-1.9188,-1.9548,-1.9708,-1.9708,-1.9708,-1.9708,-1.9708,-1.9708,0.6182,0.6369,0.6763,0.7048,0.6635,0.6113,0.5847,0.5327,0.4709,0.4118,0.4115,0.4197,0.4197,0.4197,0.3759,0.2413,0.2089,0.0,0.0175,0.0,0.0,0.0,0.0,0.0,0.0,0.0,0.0,0.0,-0.1003,-0.1608,-0.1609,-0.2581,-0.3632,-0.4688,-0.575,-0.6306,-0.6306,-0.6303,-0.6303,-0.6303,-0.63,-0.63,-0.63,-0.63,-0.63,-0.6367,-0.7173,-0.7642,-0.7926,-0.9171,-0.9763,-0.9932,-1.0419,-1.0593,-1.0593,-1.0593,-1.0593,-1.0593,-1.0593,-1.0593,-1.0593,-1.0593,-1.0593,-1.0593,-1.0593,-1.0593,-1.0593,-1.0593,-1.0593,-1.0776,-1.1593,-1.1803,-1.2197,-1.3816,-1.4213,-1.4421,-1.5235,-1.541,-1.541,-1.541,-1.5078,-1.4785,-1.4775,-1.4072,-1.3516,-1.3506,-1.3154,-1.3113,-1.3732,-1.4329,-1.4926,-1.5543,-1.6139,-1.65,-1.65,-1.65,-1.65,-1.65,-1.65,-1.65,-1.6522,-1.7013,-1.7565,-1.8106,-1.8631,-1.9169,-1.9708,-1.9708,-1.9708,-1.9708,-1.9708,-1.9708,0.6001,0.5904,0.5902,0.6247,0.5977,0.551,0.5259,0.4856,0.4421,0.3958,0.39,0.3944,0.4048,0.4065,0.3779,0.2948,0.2779,0.0,0.0931,0.0745,0.0847,0.1054,0.1088,0.0809,0.0078,0.0,0.0,0.0,-0.0321,-0.0523,-0.0511,-0.1488,-0.2601,-0.3719,-0.4687,-0.5277,-0.5488,-0.6041,-0.6351,-0.6443,-0.6347,-0.63,-0.6296,-0.6149,-0.6101,-0.6095,-0.6265,-0.6434,-0.6637,-0.7539,-0.8314,-0.8932,-0.9577,-1.0173,-1.0593,-1.0593,-1.0593,-1.0566,-1.0327,-1.0419,-1.0559,-1.0321,-1.0254,-1.0254,-1.0254,-1.0432,-1.0593,-1.0593,-1.0593,-1.0776,-1.1586,-1.2205,-1.2879,-1.3936,-1.4628,-1.5079,-1.5352,-1.541,-1.5322,-1.5039,-1.4873,-1.46,-1.4014,-1.3691,-1.3408,-1.3125,-1.2993,-1.2978,-1.3152,-1.4061,-1.4766,-1.496,-1.5898,-1.65,-1.65,-1.65,-1.65,-1.65,-1.65,-1.65,-1.65,-1.7013,-1.7544,-1.8086,-1.8631,-1.9169,-1.9708,-1.9708,-1.9708,-1.9708,-1.9708,-1.9708,0.5624,0.549,0.5471,0.5952,0.5921,0.5698,0.53,0.4952,0.4556,0.3872,0.3754,0.3822,0.3917,0.3957,0.3789,0.3193,0.3105,0.2739,0.1667,0.1625,0.1823,0.2129,0.1838,0.1357,0.065,0.0598,0.0446,0.0039,0.0,0.0,0.0,-0.0628,-0.1341,-0.2038,-0.3385,-0.4159,-0.436,-0.5232,-0.5749,-0.5826,-0.6142,-0.63,-0.6293,-0.6101,-0.5993,-0.5979,-0.5813,-0.5806,0.0,-0.6663,-0.7285,-0.7954,-0.8992,-0.9701,-1.0142,-1.0466,-1.0593,-1.0546,-1.0221,-1.0241,-1.0372,-1.0047,-0.9953,-0.9953,-0.9953,-1.008,-1.0258,-1.0258,-1.0258,-1.0407,-1.0989,-1.1473,-1.2015,-1.3047,-1.349,-1.3921,-1.4769,-1.4744,-1.4582,-1.4777,-1.4658,-1.4316,-1.3633,-1.3506,-1.3359,-1.2964,-1.2905,-1.2905,-1.2905,-1.3954,-1.4698,-1.4698,-1.5788,-1.65,-1.65,-1.65,-1.65,-1.65,-1.65,-1.65,-1.65,-1.6816,-1.725,-1.7787,-1.8322,-1.8855,-1.9406,-1.9603,-1.9708,-1.9708,-1.9708,-1.9708,0.0,0.5084,0.5374,0.5992,0.6318,0.6369,0.5795,0.5477,0.0,0.384,0.3706,0.3778,0.3788,0.3907,0.3802,0.3271,0.3184,0.2984,0.2395,0.2619,0.2886,0.3047,0.2335,0.1788,0.1672,0.1637,0.1176,0.0196,0.0039,0.0,0.0,0.0,0.0,0.0,-0.1873,-0.2924,-0.3007,-0.4062,-0.4608,-0.4727,-0.5696,-0.6205,-0.6279,-0.6074,-0.5959,-0.5946,-0.5698,-0.5654,-0.5834,-0.6386,-0.6747,-0.7056,-0.8532,-0.9177,-0.9372,-1.0174,-1.0514,-1.0486,-1.016,-1.0037,-1.004,-0.9746,-0.9653,-0.9646,-0.9626,-0.9682,-0.9715,-0.9715,-0.9715,-0.9775,-1.0073,-0.9969,-1.0129,-1.1494,-1.1441,-1.161,-1.3667,-1.3631,-1.3469,-1.4508,-1.4365,-1.3929,-1.3535,-1.3467,-1.333,-1.2964,-1.2905,-1.2905,-1.2905,-1.3931,-1.4652,-1.4698,-1.5744,-1.6445,-1.65,-1.65,-1.65,-1.65,-1.65,-1.65,-1.65,-1.65,-1.6774,-1.7353,-1.7927,-1.8458,-1.8968,-1.946,-1.9708,-1.9708,-1.9708,-1.9708,0.539,0.0,0.4753,0.5369,0.5567,0.556,0.0,0.0,0.0,0.0,0.0,0.0,0.0,0.3822,0.3858,0.3942,0.3928,0.3794,0.3332,0.3724,0.3744,0.2912,0.3503,0.3559,0.2551,0.1941,0.1489,0.1254,0.0471,0.0,0.0,0.0,0.0,0.0,-0.0458,-0.1115,-0.1957,-0.2969,-0.3904,-0.4686,-0.4868,-0.5318,-0.6074,-0.5813,-0.5694,-0.5684,-0.5532,-0.5535,-0.5668,-0.5799,-0.626,-0.6933,-0.7326,-0.8067,-0.8951,-0.9136,-0.9509,-0.9876,-0.9517,-0.9564,-0.974,-0.9411,-0.9317,-0.9277,-0.9078,-0.9325,-0.9715,-0.9715,-0.9715,-0.9867,-1.0552,-1.0681,-1.0866,-1.1792,-1.2324,-1.2747,-1.3238,-1.3634,-1.3849,-1.3821,-1.373,-1.3516,-1.3105,-1.3027,-1.3023,-1.2925,-1.2905,-1.2905,-1.2905,-1.3563,-1.419,-1.4652,-1.5377,-1.6008,-1.6457,-1.65,-1.65,-1.65,-1.65,-1.65,-1.65,-1.65,-1.6951,-1.7887,-1.8836,-1.9387,-1.9512,-1.9639,-1.9708,-1.9708,-1.9708,-1.9708,0.5394,0.5115,0.492,0.5014,0.5215,0.5393,0.5393,0.0,0.0,0.0,0.0,0.0,0.0,0.0,0.395,0.4157,0.4335,0.4386,0.4303,0.4123,0.402,0.4104,0.4311,0.4262,0.3682,0.3271,0.2803,0.2235,0.1286,0.0695,0.0596,0.0226,0.0,0.0,0.0,-0.0263,-0.0848,-0.1886,-0.2714,-0.3287,-0.369,-0.4367,-0.5286,-0.5047,-0.5202,-0.5583,-0.5463,-0.5402,-0.5379,-0.5379,-0.5599,-0.6047,-0.681,-0.7491,-0.8193,-0.8933,-0.9423,-0.9639,-0.9317,-0.9231,-0.9259,-0.9064,-0.9011,-0.8984,-0.8851,-0.9031,-0.9279,-0.9279,-0.9279,-0.9417,-0.9988,-1.0029,-1.0186,-1.1232,-1.1527,-1.1855,-1.2815,-1.3036,-1.3131,-1.3429,-1.335,-1.3154,-1.2944,-1.2905,-1.2905,-1.2905,-1.2905,-1.2905,-1.2905,-1.342,-1.4027,-1.4629,-1.5231,-1.5842,-1.6445,-1.65,-1.65,-1.65,-1.65,-1.65,-1.65,-1.65,-1.69,-1.7727,-1.8535,-1.9095,-1.9332,-1.9584,-1.9708,-1.9708,-1.9708,-1.9708,0.5195,0.5293,0.5292,0.4819,0.5065,0.5418,0.5418,0.0,0.0,0.0,0.0,0.0,0.0,0.3944,0.4078,0.423,0.4548,0.4867,0.5157,0.4406,0.4306,0.5635,0.5041,0.4617,0.4852,0.4768,0.4236,0.321,0.2301,0.1633,0.1304,0.0591,0.0148,0.0,0.0,0.0,0.0,-0.09,-0.1449,-0.16,-0.2425,-0.3319,-0.4244,-0.4069,-0.4473,-0.5336,-0.5222,-0.512,-0.5096,-0.5076,-0.4999,-0.5039,-0.6404,-0.7002,-0.7239,-0.8725,-0.932,-0.937,-0.9203,-0.8984,-0.8804,-0.8804,-0.8804,-0.8804,-0.8804,-0.8804,-0.8804,-0.8804,-0.8804,-0.8864,-0.9084,-0.8964,-0.9058,-1.0162,-1.009,-1.0277,-1.2055,-1.2017,-1.1972,-1.3042,-1.2966,-1.2774,-1.2881,-1.2905,-1.2905,-1.2905,-1.2905,-1.2905,-1.2905,-1.3348,-1.3897,-1.4502,-1.5028,-1.5622,-1.6303,-1.6358,-1.6402,-1.6488,-1.65,-1.65,-1.65,-1.6573,-1.6837,-1.7291,-1.7907,-1.8458,-1.8893,-1.9442,-1.9708,-1.9708,-1.9708,-1.9708,0.4674,0.4757,0.4945,0.4737,0.484,0.4987,0.0,0.0,0.0,0.0,0.0,0.0,0.0,0.4143,0.4233,0.4433,0.4785,0.5181,0.564,0.5646,0.566,0.577,0.5918,0.5875,0.5669,0.4972,0.446,0.4255,0.3189,0.2175,0.1338,0.1165,0.0778,0.0035,0.0,0.0,0.0,-0.0181,-0.0694,-0.1599,-0.1599,-0.2141,-0.3155,-0.3003,-0.3402,-0.4239,-0.4116,-0.444,-0.509,-0.4972,-0.4908,-0.4918,-0.5188,-0.5575,-0.6127,-0.7016,-0.7628,-0.8084,-0.8671,-0.8844,-0.8804,-0.8804,-0.8804,-0.8804,-0.8804,-0.8804,-0.8804,-0.8804,-0.8804,-0.8818,-0.8864,-0.8838,-0.8858,-0.9051,-0.9458,-0.9895,-1.0202,-1.0622,-1.1183,-1.1929,-1.2017,-1.2163,-1.2798,-1.2905,-1.2905,-1.2905,-1.2905,-1.2905,-1.2905,-1.2968,-1.3262,-1.3873,-1.4027,-1.4526,-1.5632,-1.5754,-1.5952,-1.6466,-1.65,-1.65,-1.65,-1.693,-1.7209,-1.7312,-1.8283,-1.8817,-1.8893,-1.9442,-1.9708,-1.9708,-1.9708,-1.9708,0.4391,0.4363,0.4306,0.4317,0.4427,0.4598,0.0,0.0,0.0,0.0,0.0,0.0,0.0,0.4197,0.4348,0.4762,0.4965,0.5228,0.5633,0.5677,0.5674,0.5684,0.5878,0.5956,0.5817,0.5491,0.5251,0.5111,0.4094,0.328,0.277,0.1835,0.1104,0.0705,0.0235,0.0,0.0,0.0,-0.0241,-0.0733,-0.0655,-0.1095,-0.2046,-0.1958,-0.2651,-0.3883,-0.3838,-0.4221,-0.4887,-0.4823,-0.4748,-0.4728,-0.5099,-0.5385,-0.5729,-0.6452,-0.7138,-0.775,-0.8103,-0.8454,-0.8804,-0.8804,-0.8804,-0.8804,-0.8804,-0.8804,-0.8804,-0.8804,-0.8804,-0.8804,-0.8804,-0.8804,-0.8883,-0.9263,-0.9865,-1.044,-1.0788,-1.1434,-1.2024,-1.232,-1.2393,-1.2501,-1.2847,-1.2905,-1.2905,-1.2905,-1.2905,-1.2905,-1.2905,-1.2905,-1.3128,-1.3732,-1.3792,-1.4167,-1.5028,-1.5096,-1.5511,-1.6445,-1.65,-1.65,-1.65,-1.6731,-1.6993,-1.7291,-1.8066,-1.8612,-1.8893,-1.9442,-1.9708,-1.9708,-1.9708,-1.9708,0.4042,0.3984,0.3829,0.3957,0.0,0.0,0.0,0.0,0.0,0.0,0.0,0.0,0.0,0.4428,0.4453,0.5009,0.51,0.5231,0.564,0.5562,0.5556,0.5674,0.5755,0.58,0.58,0.5878,0.5833,0.5606,0.4918,0.4327,0.3987,0.2637,0.1775,0.1531,0.0702,0.0255,0.0255,0.0096,0.0,0.0,0.0,-0.0333,-0.0996,-0.1001,-0.1813,-0.32,-0.3171,-0.3657,-0.4452,-0.4388,-0.4424,-0.4543,-0.5058,-0.5351,-0.5569,-0.6145,-0.6907,-0.7696,-0.7696,-0.8182,-0.8804,-0.8804,-0.8804,-0.8804,-0.8804,-0.8804,-0.8804,-0.8804,-0.8804,-0.8804,-0.8804,-0.8804,-0.8936,-0.9439,-0.9961,-1.0466,-1.099,-1.1534,-1.1983,-1.2132,-1.2314,-1.2461,-1.2618,-1.2798,-1.2905,-1.2905,-1.2905,-1.2905,-1.2905,-1.2905,-1.3079,-1.3552,-1.36,-1.3897,-1.4629,-1.4949,-1.5522,-1.6445,-1.65,-1.65,-1.65,-1.65,-1.6701,-1.7097,-1.7767,-1.8302,-1.8708,-1.9387,-1.9708,-1.9708,-1.9708,-1.9708,0.3426,0.3593,0.3829,0.3957,0.4109,0.0,0.4652,0.584,0.0,0.6226,0.0,0.0,0.0,0.5098,0.4627,0.5026,0.51,0.5299,0.5882,0.5867,0.5827,0.5942,0.5881,0.58,0.58,0.5691,0.5613,0.5593,0.5433,0.4887,0.3862,0.3702,0.3179,0.216,0.1419,0.1019,0.1019,0.034,0.0,0.0,0.0,-0.0032,-0.0097,-0.0094,-0.0587,-0.1479,-0.1345,-0.2203,-0.3653,-0.3485,-0.3827,-0.4519,-0.4543,-0.4948,-0.5515,-0.5569,-0.6465,-0.7696,-0.7696,-0.8182,-0.8804,-0.8804,-0.8804,-0.8804,-0.8804,-0.8804,-0.8804,-0.8804,-0.8804,-0.8804,-0.8804,-0.8804,-0.8804,-0.8857,-0.891,-0.8956,-0.9008,-0.9061,-0.929,-0.9891,-1.0517,-1.1149,-1.1765,-1.2452,-1.2905,-1.2905,-1.2905,-1.2905,-1.2905,-1.2905,-1.2929,-1.2968,-1.2968,-1.343,-1.4606,-1.5722,-1.6402,-1.6488,-1.65,-1.65,-1.65,-1.65,-1.6522,-1.6552,-1.7565,-1.8125,-1.8165,-1.9207,-1.9708,-1.9708,-1.9708,-1.9708,0.3483,0.3639,0.3829,0.3957,0.4038,0.0,0.0,0.5175,0.5538,0.5313,0.5944,0.0,0.0,0.5237,0.4721,0.5042,0.5209,0.5416,0.583,0.6302,0.6393,0.583,0.6243,0.6326,0.5614,0.5515,0.541,0.5311,0.5169,0.49,0.4501,0.3965,0.348,0.3077,0.2238,0.1554,0.1106,0.0838,0.0459,0.0,0.0,0.0,0.0,0.0,-0.0419,-0.1164,-0.1126,-0.1707,-0.2754,-0.3137,-0.3511,-0.3873,-0.4322,-0.4653,-0.4869,-0.4869,-0.5492,-0.6384,-0.6853,-0.7503,-0.8182,-0.8646,-0.8804,-0.8804,-0.8804,-0.8804,-0.8804,-0.8804,-0.8804,-0.8804,-0.8804,-0.8804,-0.8804,-0.8804,-0.9106,-0.9413,-0.9413,-0.9744,-1.0115,-1.0364,-1.0644,-1.1015,-1.169,-1.203,-1.2369,-1.2832,-1.2905,-1.2905,-1.2905,-1.2905,-1.2905,-1.2905,-1.2905,-1.3089,-1.3549,-1.4329,-1.4983,-1.5354,-1.6086,-1.65,-1.65,-1.65,-1.6816,-1.7483,-1.7887,-1.8438,-1.9114,-1.9497,-1.9708,-1.9708,-1.9708,-1.9708,0.348,0.3646,0.3829,0.3957,0.0,0.0,0.4599,0.4919,0.5122,0.5225,0.5759,0.6075,0.5657,0.5089,0.4772,0.4992,0.5189,0.5376,0.5627,0.6422,0.6601,0.5562,0.6356,0.6525,0.5348,0.5296,0.5226,0.5046,0.4941,0.4867,0.485,0.4267,0.3938,0.3872,0.3027,0.2308,0.179,0.1329,0.0848,0.0359,0.012,0.0,0.0,0.0,-0.029,-0.0752,-0.0763,-0.1174,-0.1898,-0.2397,-0.2899,-0.3456,-0.4211,-0.4491,-0.4491,-0.4491,-0.4921,-0.5569,-0.6091,-0.6745,-0.7423,-0.7937,-0.8268,-0.8454,-0.8454,-0.8554,-0.8691,-0.8784,-0.8744,-0.8691,-0.8784,-0.8804,-0.8804,-0.8804,-0.9159,-0.9491,-0.9491,-0.984,-1.0236,-1.044,-1.0661,-1.1015,-1.169,-1.1996,-1.232,-1.2822,-1.2905,-1.2905,-1.2905,-1.2905,-1.2905,-1.2905,-1.3065,-1.3262,-1.3454,-1.4027,-1.4618,-1.522,-1.6042,-1.65,-1.65,-1.65,-1.6858,-1.7585,-1.7767,-1.8302,-1.9207,-1.9369,-1.953,-1.9708,-1.9708,-1.9708,0.3309,0.3546,0.3829,0.0,0.0,0.0,0.4623,0.5381,0.6061,0.6338,0.6297,0.59,0.4893,0.4694,0.4741,0.4864,0.5005,0.5179,0.5368,0.6133,0.629,0.524,0.6056,0.6221,0.5006,0.5012,0.5036,0.4897,0.4884,0.485,0.4697,0.4687,0.4648,0.4494,0.3732,0.3314,0.3287,0.1842,0.1118,0.109,0.0364,0.0,0.0,0.0,0.0,0.0,0.0,-0.042,-0.109,-0.109,-0.1952,-0.337,-0.4181,-0.4491,-0.4491,-0.4491,-0.4921,-0.5487,-0.5487,-0.5982,-0.6588,-0.6588,-0.7101,-0.7696,-0.7696,-0.8022,-0.8437,-0.8717,-0.8597,-0.8462,-0.8731,-0.8798,-0.8798,-0.8804,-0.8804,-0.8804,-0.8804,-0.8804,-0.9008,-0.9666,-1.0346,-1.099,-1.1665,-1.2393,-1.2881,-1.2905,-1.2905,-1.2905,-1.2905,-1.2905,-1.2905,-1.2905,-1.3433,-1.4027,-1.4629,-1.5231,-1.582,-1.6445,-1.6466,-1.65,-1.65,-1.65,-1.65,-1.6522,-1.7034,-1.7565,-1.8125,-1.8631,-1.9188,-1.9708,-1.9708,-1.9708,0.3713,0.3724,0.3856,0.4089,0.0,0.0,0.0,0.489,0.0,0.0,0.5813,0.5415,0.5812,0.5244,0.4741,0.4864,0.4863,0.4874,0.503,0.5813,0.6006,0.5078,0.5778,0.5951,0.4985,0.486,0.4802,0.4762,0.466,0.4607,0.4559,0.4559,0.4539,0.4491,0.4267,0.3901,0.3372,0.2926,0.2176,0.109,0.0867,0.0507,0.0,0.0,0.0,0.0,0.0,-0.0112,-0.0364,-0.0895,-0.1675,-0.2619,-0.34,-0.3735,-0.379,-0.4322,-0.4625,-0.4869,-0.5324,-0.5651,-0.59,-0.6421,-0.675,-0.702,-0.753,-0.7677,-0.7746,-0.835,-0.829,-0.813,-0.843,-0.835,-0.8272,-0.8711,-0.8804,-0.8804,-0.8804,-0.8804,-0.8857,-0.9061,-0.9263,-0.9762,-1.0889,-1.1275,-1.1767,-1.2749,-1.2905,-1.2905,-1.2905,-1.2905,-1.2905,-1.2905,-1.3065,-1.3238,-1.343,-1.361,-1.4131,-1.5175,-1.522,-1.5611,-1.6457,-1.65,-1.668,-1.7055,-1.7209,-1.7747,-1.865,-1.8817,-1.9188,-1.9708,-1.9708,-1.9708,0.413,0.3979,0.0,0.4146,0.4196,0.4267,0.4566,0.0,0.0,0.0,0.5303,0.5003,0.5605,0.5166,0.4721,0.4813,0.4802,0.4792,0.4823,0.5618,0.5841,0.4869,0.5604,0.5811,0.4836,0.4711,0.4667,0.4634,0.4542,0.4464,0.4379,0.446,0.4464,0.4379,0.446,0.4294,0.3846,0.3541,0.2926,0.1981,0.1675,0.1312,0.0866,0.028,0.0,0.0,0.0,0.0,-0.0056,-0.0783,-0.1535,-0.2284,-0.2996,-0.3501,-0.3871,-0.4232,-0.444,-0.4536,-0.4877,-0.5027,-0.5144,-0.5461,-0.5809,-0.6147,-0.6556,-0.6829,-0.7151,-0.7708,-0.7808,-0.7816,-0.8123,-0.8039,-0.8025,-0.8524,-0.8544,-0.849,-0.8611,-0.8637,-0.8742,-0.9112,-0.9185,-0.9536,-1.061,-1.0788,-1.1099,-1.195,-1.2295,-1.2559,-1.2847,-1.2905,-1.2905,-1.2905,-1.2905,-1.2992,-1.3238,-1.3262,-1.3671,-1.4629,-1.4926,-1.5377,-1.6117,-1.638,-1.6659,-1.6972,-1.6972,-1.7415,-1.8263,-1.8477,-1.8855,-1.9387,-1.9603,-1.9708,0.4523,0.4245,0.3849,0.4117,0.4365,0.0,0.4511,0.4697,0.4904,0.5032,0.4887,0.4711,0.4711,0.4701,0.4691,0.4691,0.4796,0.483,0.4691,0.5483,0.5697,0.4712,0.5489,0.5723,0.4739,0.4752,0.4738,0.4621,0.461,0.4527,0.4285,0.4432,0.4415,0.4177,0.4355,0.4457,0.447,0.3789,0.3407,0.3287,0.2605,0.2242,0.2138,0.0726,0.0056,0.0,0.0,0.0,-0.0056,-0.0724,-0.1389,-0.2075,-0.273,-0.3524,-0.4266,-0.4197,-0.4311,-0.4429,-0.4247,-0.4314,-0.4406,-0.4107,-0.4538,-0.5169,-0.5122,-0.5719,-0.6493,-0.6872,-0.7119,-0.736,-0.7638,-0.7674,-0.7756,-0.8143,-0.8074,-0.8019,-0.8342,-0.8422,-0.8687,-0.953,-0.9718,-0.9917,-1.0585,-1.0762,-1.0838,-1.0973,-1.1516,-1.2138,-1.2798,-1.2905,-1.2905,-1.2905,-1.2905,-1.3128,-1.3661,-1.3732,-1.399,-1.4583,-1.5186,-1.5543,-1.561,-1.6194,-1.65,-1.65,-1.65,-1.6795,-1.7374,-1.7867,-1.84,-1.8987,-1.946,-1.9708,0.4647,0.4188,0.0,0.4119,0.4419,0.4672,0.4672,0.4694,0.4748,0.4779,0.483,0.487,0.487,0.4772,0.4691,0.4691,0.4644,0.4576,0.4545,0.4731,0.4975,0.5254,0.5325,0.5468,0.5802,0.5666,0.5558,0.5512,0.5512,0.5294,0.4769,0.4801,0.4578,0.407,0.4075,0.4146,0.4267,0.3991,0.3676,0.3284,0.293,0.2507,0.2016,0.1215,0.0552,0.0,0.0,0.0,0.0,-0.0161,-0.0323,-0.0589,-0.1782,-0.2352,-0.2673,-0.3673,-0.4062,-0.4111,-0.4055,-0.4062,-0.4104,-0.4014,-0.4114,-0.4382,-0.4931,-0.5105,-0.5236,-0.5831,-0.5883,-0.5848,-0.611,-0.6011,-0.6046,-0.681,-0.7664,-0.8322,-0.8382,-0.8557,-0.8783,-0.8968,-0.9008,-0.9237,-0.9891,-1.044,-1.1174,-1.228,-1.2559,-1.2725,-1.2881,-1.2905,-1.2905,-1.2905,-1.2905,-1.2954,-1.3079,-1.3079,-1.3358,-1.3956,-1.456,-1.5096,-1.5588,-1.6194,-1.65,-1.65,-1.65,-1.6972,-1.7927,-1.8046,-1.8593,-1.953,-1.9639,-1.9708,0.4763,0.0,0.0,0.4143,0.0,0.4577,0.4981,0.508,0.5193,0.5534,0.538,0.5183,0.5183,0.5425,0.5618,0.5618,0.5563,0.55,0.55,0.5389,0.5438,0.5805,0.5602,0.5585,0.5962,0.5883,0.5795,0.5795,0.5795,0.5635,0.5209,0.5291,0.5149,0.4726,0.4543,0.4457,0.4543,0.4182,0.3865,0.3635,0.3504,0.3072,0.2407,0.1741,0.1212,0.0855,0.0555,0.0422,0.0415,0.013,-0.0208,-0.0594,-0.1219,-0.1734,-0.2209,-0.3126,-0.351,-0.3608,-0.3837,-0.3958,-0.3971,-0.3853,-0.3853,-0.3969,-0.4294,-0.446,-0.4628,-0.4983,-0.5191,-0.5333,-0.5466,-0.5411,-0.542,-0.5875,-0.677,-0.7664,-0.8081,-0.8397,-0.8644,-0.8784,-0.8804,-0.8903,-0.9263,-0.9614,-1.02,-1.1267,-1.1692,-1.2024,-1.232,-1.2691,-1.2905,-1.2905,-1.2905,-1.2905,-1.2905,-1.2905,-1.3041,-1.3348,-1.3944,-1.4537,-1.5141,-1.5754,-1.6194,-1.6488,-1.65,-1.6774,-1.7333,-1.7585,-1.8145,-1.8949,-1.9207,-1.9442,0.4906,0.0,0.4026,0.4104,0.4142,0.0,0.5194,0.5395,0.561,0.6308,0.6044,0.567,0.5635,0.6116,0.6513,0.6478,0.6473,0.6473,0.6473,0.6282,0.6182,0.6284,0.6065,0.5952,0.6072,0.6036,0.6015,0.6015,0.6015,0.589,0.5641,0.5776,0.5744,0.5477,0.5155,0.4945,0.4857,0.4342,0.4038,0.3994,0.3967,0.3642,0.3006,0.2391,0.2004,0.1768,0.128,0.1055,0.0998,0.0399,-0.02,-0.0771,-0.0861,-0.1344,-0.204,-0.2519,-0.2852,-0.3091,-0.3463,-0.3741,-0.3904,-0.3682,-0.3682,-0.3757,-0.3638,-0.3899,-0.426,-0.426,-0.4609,-0.5005,-0.5005,-0.5005,-0.5026,-0.513,-0.5742,-0.6522,-0.7344,-0.7785,-0.8106,-0.8449,-0.8613,-0.877,-0.8949,-0.8982,-0.9211,-0.9865,-1.044,-1.099,-1.1566,-1.2172,-1.2593,-1.2691,-1.2715,-1.2774,-1.2881,-1.2905,-1.2905,-1.2905,-1.3467,-1.4027,-1.4514,-1.5231,-1.5842,-1.6324,-1.6457,-1.6552,-1.6637,-1.7076,-1.7626,-1.8263,-1.8688,-1.9188,0.5125,0.0,0.3967,0.0,0.3853,0.4058,0.0,0.0,0.5148,0.5784,0.6209,0.6389,0.6141,0.6184,0.6176,0.5937,0.5903,0.5903,0.5903,0.5878,0.6079,0.6663,0.6491,0.6573,0.7199,0.6997,0.6834,0.6834,0.6834,0.6628,0.6124,0.6131,0.5891,0.5348,0.5269,0.5086,0.4737,0.4478,0.4237,0.3994,0.3883,0.3711,0.3501,0.3411,0.2779,0.1797,0.1711,0.1678,0.1627,0.103,0.0719,0.0525,-0.0504,-0.0973,-0.1136,-0.1737,-0.2278,-0.2763,-0.2837,-0.3206,-0.3655,-0.3614,-0.3614,-0.3628,-0.3607,-0.3644,-0.3711,-0.3711,-0.3777,-0.3818,-0.3818,-0.3818,-0.3946,-0.4413,-0.4821,-0.5296,-0.5879,-0.6258,-0.6661,-0.7218,-0.7946,-0.8707,-0.9518,-0.9666,-0.9891,-1.0568,-1.0737,-1.0838,-1.0914,-1.1015,-1.13,-1.1873,-1.1947,-1.2212,-1.2856,-1.2905,-1.2905,-1.2905,-1.3467,-1.3849,-1.3909,-1.4994,-1.5632,-1.572,-1.6238,-1.6731,-1.7188,-1.7271,-1.7807,-1.8798,-1.8874,-1.9188,0.5115,0.4598,0.4129,0.0,0.4083,0.4126,0.4938,0.5121,0.5327,0.6005,0.6498,0.6776,0.6569,0.6879,0.7126,0.699,0.6972,0.6972,0.6972,0.6836,0.6858,0.7159,0.6915,0.6861,0.7193,0.708,0.7,0.7,0.7,0.6894,0.6668,0.6641,0.6535,0.6273,0.5953,0.5728,0.5543,0.4785,0.4189,0.3771,0.3704,0.3662,0.3604,0.3604,0.3321,0.2781,0.2453,0.2305,0.2267,0.1652,0.1195,0.085,0.0315,-0.009,-0.0471,-0.1073,-0.1474,-0.1741,-0.2073,-0.2586,-0.3101,-0.3101,-0.3328,-0.3604,-0.3604,-0.3604,-0.3604,-0.3604,-0.3604,-0.3604,-0.3604,-0.3604,-0.3667,-0.3902,-0.4066,-0.4232,-0.4476,-0.54,-0.642,-0.7185,-0.7897,-0.859,-0.9136,-0.9237,-0.9335,-0.964,-0.9987,-1.0244,-1.0244,-1.0568,-1.0914,-1.1216,-1.1591,-1.1922,-1.2261,-1.2666,-1.2905,-1.2905,-1.3152,-1.3443,-1.3802,-1.4318,-1.4903,-1.5588,-1.6182,-1.6616,-1.6858,-1.6858,-1.725,-1.8007,-1.8007,-1.8458,0.0,0.0,0.4336,0.4281,0.4107,0.4132,0.0,0.5158,0.5475,0.6056,0.6514,0.6761,0.6667,0.716,0.7539,0.7473,0.7475,0.7475,0.7475,0.7383,0.7368,0.7466,0.7335,0.7307,0.7426,0.7314,0.7231,0.7231,0.7084,0.7,0.7,0.7,0.7,0.7,0.6605,0.6328,0.6206,0.5,0.4286,0.4034,0.3796,0.3822,0.4034,0.3796,0.3734,0.377,0.3128,0.2852,0.2808,0.2216,0.1725,0.1318,0.1029,0.0627,0.0157,-0.0448,-0.0761,-0.0962,-0.1407,-0.1962,-0.2475,-0.2475,-0.2768,-0.3151,-0.3151,-0.3239,-0.3376,-0.3376,-0.349,-0.3604,-0.3604,-0.3604,-0.3604,-0.3604,-0.3604,-0.3604,-0.3604,-0.4842,-0.6174,-0.6906,-0.7659,-0.8288,-0.8631,-0.8697,-0.8717,-0.8798,-0.9237,-0.9536,-0.9536,-0.9987,-1.0415,-1.0762,-1.1241,-1.169,-1.2055,-1.2584,-1.2905,-1.2905,-1.2905,-1.3104,-1.3552,-1.3732,-1.4226,-1.5129,-1.5744,-1.6194,-1.65,-1.65,-1.6774,-1.7312,-1.7312,-1.7867,0.0,0.4792,0.0,0.36,0.3592,0.3889,0.0,0.4805,0.5356,0.552,0.5913,0.625,0.6239,0.6473,0.6586,0.633,0.6283,0.6283,0.6283,0.6609,0.6981,0.7355,0.7722,0.812,0.8561,0.8152,0.7857,0.7857,0.7321,0.7,0.7,0.7,0.7,0.7,0.6979,0.6711,0.6206,0.5,0.4674,0.5195,0.4383,0.4412,0.519,0.4362,0.4122,0.4317,0.3584,0.3278,0.3233,0.2691,0.2518,0.2495,0.134,0.0873,0.0784,0.0179,-0.0403,-0.0895,-0.094,-0.134,-0.1851,-0.1851,-0.1873,-0.1895,-0.1895,-0.2297,-0.2741,-0.2741,-0.317,-0.3604,-0.3604,-0.3604,-0.3604,-0.3604,-0.3604,-0.3604,-0.3604,-0.4526,-0.5426,-0.5741,-0.6749,-0.7725,-0.8322,-0.8422,-0.8516,-0.8764,-0.8831,-0.8857,-0.8857,-0.8883,-0.9387,-1.0661,-1.0838,-1.1375,-1.2725,-1.2881,-1.2905,-1.2905,-1.2905,-1.2905,-1.2954,-1.3515,-1.3815,-1.3886,-1.4491,-1.5366,-1.65,-1.65,-1.6774,-1.7312,-1.7312,-1.7867,0.0,0.0,0.0,0.4731,0.435,0.403,0.39,0.4375,0.4812,0.4699,0.5179,0.5625,0.5625,0.6021,0.6317,0.6209,0.6421,0.6586,0.6586,0.6931,0.7326,0.7739,0.7682,0.7892,0.8617,0.7788,0.7387,0.7861,0.7181,0.6827,0.6993,0.7,0.7,0.7,0.7,0.6753,0.6206,0.5766,0.548,0.5303,0.4811,0.4821,0.5271,0.4587,0.4218,0.4111,0.3682,0.3426,0.3285,0.3099,0.2831,0.2527,0.2101,0.1745,0.1407,0.0806,0.0448,0.0201,-0.0179,-0.0716,-0.1228,-0.1228,-0.1474,-0.1808,-0.1808,-0.194,-0.2117,-0.2117,-0.2275,-0.2455,-0.2455,-0.2721,-0.3126,-0.3512,-0.3604,-0.3604,-0.3604,-0.418,-0.482,-0.513,-0.5815,-0.6476,-0.6921,-0.7068,-0.7314,-0.7871,-0.8038,-0.8268,-0.8725,-0.8804,-0.8982,-0.9465,-0.9891,-1.0372,-1.0863,-1.1309,-1.1742,-1.2163,-1.2187,-1.2403,-1.2881,-1.3104,-1.3396,-1.3802,-1.4399,-1.4903,-1.5354,-1.5732,-1.6017,-1.621,-1.6612,-1.7167,0.6708,0.0,0.0,0.0,0.4768,0.417,0.3788,0.4129,0.4433,0.4101,0.4537,0.4998,0.4998,0.532,0.5665,0.5867,0.6114,0.635,0.6481,0.6849,0.7294,0.7834,0.7808,0.8008,0.8734,0.7756,0.7306,0.7882,0.71,0.6713,0.6986,0.7,0.7,0.7,0.6906,0.674,0.6477,0.6181,0.5939,0.5739,0.5172,0.5145,0.5584,0.4892,0.4519,0.4413,0.3887,0.3475,0.3162,0.3162,0.3017,0.2743,0.2576,0.2345,0.2029,0.1429,0.1073,0.0851,0.0448,-0.009,-0.0605,-0.0605,-0.0873,-0.1207,-0.1207,-0.134,-0.1496,-0.1496,-0.1652,-0.1808,-0.1808,-0.2095,-0.2497,-0.2901,-0.3151,-0.3306,-0.3306,-0.3869,-0.4468,-0.4681,-0.5182,-0.5659,-0.5979,-0.6164,-0.647,-0.7033,-0.7239,-0.7589,-0.8348,-0.8427,-0.8613,-0.908,-0.9536,-0.9891,-1.0115,-1.0542,-1.099,-1.1441,-1.1466,-1.1783,-1.2495,-1.2535,-1.2842,-1.3481,-1.3884,-1.4095,-1.4084,-1.531,-1.5908,-1.5908,-1.6303,-1.6795,0.0,0.0,0.0,0.0,0.4733,0.43,0.3847,0.4091,0.429,0.3838,0.4097,0.4416,0.4402,0.4402,0.4589,0.5179,0.5311,0.5453,0.5851,0.6259,0.6814,0.7584,0.808,0.8509,0.8931,0.8105,0.7672,0.7973,0.7122,0.6707,0.6986,0.7,0.7,0.7,0.6747,0.6734,0.6986,0.6159,0.6025,0.6573,0.545,0.5376,0.6164,0.5298,0.5056,0.5229,0.4262,0.3481,0.2939,0.2907,0.306,0.3231,0.2713,0.2594,0.2647,0.2049,0.1449,0.0938,0.0939,0.0537,0.0022,0.0022,0.0022,0.0,0.0,-0.0403,-0.0873,-0.0873,-0.1297,-0.1741,-0.1762,-0.1762,-0.1784,-0.1808,-0.2251,-0.2672,-0.2672,-0.3551,-0.4343,-0.4369,-0.4848,-0.533,-0.5586,-0.5813,-0.6041,-0.6329,-0.6507,-0.6875,-0.7631,-0.7717,-0.8249,-0.9633,-0.9762,-1.0038,-1.0695,-1.0737,-1.0745,-1.0771,-1.0788,-1.1099,-1.1776,-1.1832,-1.2163,-1.2881,-1.2929,-1.2929,-1.2929,-1.5265,-1.6423,-1.6423,-1.6457,-1.6774,0.7468,0.0,0.0,0.0,0.0,0.0,0.4706,0.4814,0.4906,0.4686,0.4672,0.4621,0.4429,0.4402,0.4456,0.4616,0.5339,0.5893,0.5899,0.6503,0.702,0.7235,0.7125,0.7309,0.8061,0.7057,0.6692,0.7498,0.6786,0.6512,0.6973,0.7,0.7,0.7,0.692,0.684,0.6713,0.6467,0.6344,0.631,0.5744,0.5724,0.6176,0.549,0.5167,0.5116,0.4603,0.4118,0.366,0.3128,0.2939,0.2991,0.2841,0.2928,0.3068,0.2515,0.2196,0.2015,0.1679,0.1096,0.0515,0.0621,0.0359,0.0,0.0,-0.0112,-0.0247,-0.0247,-0.0359,-0.0605,-0.1029,-0.114,-0.1252,-0.1697,-0.1919,-0.2051,-0.2051,-0.2295,-0.2782,-0.366,-0.3946,-0.4094,-0.4163,-0.4311,-0.474,-0.5737,-0.6222,-0.6867,-0.8044,-0.8384,-0.8639,-0.9035,-0.9087,-0.9159,-0.9335,-0.9361,-0.9562,-1.0038,-1.0542,-1.1091,-1.1774,-1.232,-1.2691,-1.2905,-1.3334,-1.3552,-1.3552,-1.4213,-1.4549,-1.4572,-1.5432,-1.6373,0.0,0.0,0.0,0.6524,0.0,0.0,0.5274,0.5142,0.5009,0.4803,0.4491,0.421,0.4056,0.4029,0.4029,0.4029,0.4578,0.5143,0.5483,0.6021,0.6464,0.6653,0.6406,0.6403,0.6925,0.5995,0.5653,0.6341,0.5809,0.572,0.6334,0.6265,0.6357,0.666,0.654,0.6453,0.6425,0.6286,0.6139,0.5983,0.5671,0.5641,0.5813,0.5454,0.5258,0.5152,0.4763,0.4473,0.421,0.3607,0.3389,0.3418,0.3262,0.335,0.353,0.3013,0.2683,0.2461,0.2178,0.1585,0.0985,0.1139,0.096,0.0679,0.0735,0.0583,0.0381,0.0381,0.0202,-0.009,-0.0426,-0.0515,-0.0605,-0.0962,-0.1251,-0.1429,-0.1429,-0.163,-0.2008,-0.2702,-0.286,-0.2926,-0.317,-0.3324,-0.3762,-0.4756,-0.5187,-0.5823,-0.6963,-0.7516,-0.7947,-0.8309,-0.8508,-0.8624,-0.8624,-0.8624,-0.8805,-0.9194,-0.9688,-1.0269,-1.0939,-1.1384,-1.1751,-1.2024,-1.2365,-1.2541,-1.2541,-1.3629,-1.4295,-1.4572,-1.5264,-1.621,0.0,0.0,0.0,0.0,0.6616,0.0,0.5745,0.5329,0.4921,0.4628,0.408,0.3624,0.3555,0.3548,0.3544,0.3552,0.3526,0.3839,0.4801,0.5177,0.5483,0.5825,0.5716,0.5617,0.5586,0.4906,0.4558,0.4842,0.4556,0.4667,0.5324,0.5222,0.5436,0.6109,0.5881,0.5889,0.6142,0.5845,0.5681,0.5648,0.542,0.5293,0.5293,0.5293,0.5293,0.5284,0.4858,0.4682,0.465,0.4296,0.415,0.4132,0.3792,0.3777,0.3903,0.3498,0.3012,0.256,0.2594,0.2082,0.1469,0.1636,0.1663,0.1639,0.1765,0.1429,0.0984,0.0918,0.056,0.018,0.0045,0.0045,0.009,0.0022,-0.0403,-0.0806,-0.0806,-0.1228,-0.1585,-0.1517,-0.165,-0.1962,-0.2517,-0.2758,-0.3082,-0.3671,-0.3966,-0.441,-0.5242,-0.5966,-0.668,-0.7453,-0.7928,-0.8206,-0.8248,-0.8248,-0.8287,-0.8402,-0.8695,-0.915,-0.9762,-0.9865,-1.0185,-1.0788,-1.0788,-1.0788,-1.0813,-1.3195,-1.4698,-1.5275,-1.542,-1.608,0.0,0.0,0.0,0.7175,0.6996,0.0,0.6804,0.6189,0.5635,0.5678,0.508,0.4401,0.391,0.3817,0.384,0.3887,0.367,0.3745,0.4419,0.4832,0.4921,0.4469,0.4473,0.443,0.4216,0.3805,0.3664,0.3931,0.414,0.4309,0.4441,0.5079,0.548,0.5627,0.5946,0.6003,0.5798,0.5728,0.5591,0.538,0.5327,0.5293,0.5293,0.5293,0.5293,0.5293,0.5198,0.5166,0.5151,0.5071,0.4647,0.4038,0.3955,0.382,0.3686,0.3702,0.3403,0.3004,0.3102,0.2747,0.2277,0.2319,0.206,0.1767,0.1803,0.1719,0.1518,0.1029,0.1163,0.1228,0.0247,0.0359,0.0605,0.0112,-0.009,-0.018,-0.018,-0.0269,-0.0202,0.0268,-0.0803,-0.183,-0.1962,-0.2402,-0.2929,-0.3481,-0.423,-0.4946,-0.5546,-0.6081,-0.6426,-0.6484,-0.6678,-0.6946,-0.7315,-0.7346,-0.764,-0.8357,-0.8955,-0.9444,-0.978,-1.0312,-1.0669,-1.0788,-1.0788,-1.0788,-1.0788,-1.1846,-1.2691,-1.3375,-1.44,-1.5253,0.7695,0.7695,0.7647,0.7447,0.7398,0.0,0.0,0.7062,0.6765,0.6833,0.5834,0.4781,0.4202,0.4123,0.4067,0.3797,0.3863,0.3902,0.3771,0.4038,0.4018,0.3376,0.3302,0.3189,0.292,0.2536,0.235,0.2498,0.2653,0.2961,0.3426,0.3876,0.4395,0.5033,0.5281,0.5441,0.5498,0.5498,0.544,0.5293,0.5293,0.5293,0.5293,0.5293,0.5293,0.5293,0.5293,0.5293,0.5293,0.5293,0.5039,0.4624,0.4393,0.4271,0.4234,0.4058,0.3731,0.3391,0.3665,0.3369,0.2972,0.3406,0.3212,0.284,0.3029,0.2691,0.2109,0.1439,0.1517,0.1644,0.0982,0.1079,0.1274,0.0962,0.0895,0.0895,0.0895,0.0895,0.0984,0.1297,0.0624,-0.02,-0.0801,-0.1404,-0.2093,-0.2976,-0.35,-0.4032,-0.4678,-0.5281,-0.5649,-0.5649,-0.5892,-0.6141,-0.6379,-0.6397,-0.6589,-0.7032,-0.7598,-0.8132,-0.8621,-0.869,-0.8705,-0.8705,-0.8705,-0.8894,-0.9247,-0.9923,-1.1123,-1.2822,-1.3443,-1.4435,0.7695,0.7695,0.771,0.7797,0.7754,0.771,0.0,0.0,0.0,0.7579,0.6392,0.5198,0.4711,0.4606,0.4412,0.3885,0.4078,0.402,0.3218,0.3192,0.3054,0.2506,0.2357,0.2168,0.1857,0.1432,0.1141,0.1054,0.1126,0.1518,0.228,0.2563,0.3204,0.4317,0.4516,0.4826,0.5293,0.5293,0.5293,0.5293,0.5293,0.5293,0.5293,0.5293,0.5293,0.5293,0.5293,0.5293,0.5293,0.5293,0.5293,0.5261,0.489,0.4784,0.4802,0.4461,0.4066,0.377,0.4079,0.3889,0.3629,0.4305,0.43,0.4043,0.4249,0.3706,0.2819,0.2012,0.1934,0.2014,0.1694,0.1796,0.194,0.183,0.1808,0.1808,0.1808,0.1808,0.183,0.194,0.1873,0.1493,0.0512,-0.0156,-0.0914,-0.2025,-0.2268,-0.2613,-0.3335,-0.3947,-0.4424,-0.4606,-0.4965,-0.5245,-0.5434,-0.5452,-0.5533,-0.5738,-0.6115,-0.6635,-0.7298,-0.6866,-0.6669,-0.6804,-0.6804,-0.7182,-0.791,-0.8442,-0.9985,-1.2425,-1.2677,-1.3682,0.7695,0.7695,0.7783,0.8148,0.7961,0.7797,0.8148,0.0,0.7168,0.7168,0.0,0.6165,0.5856,0.0,0.0,0.4886,0.4338,0.3751,0.3183,0.2672,0.2232,0.1923,0.1881,0.1693,0.1242,0.0944,0.0588,0.0184,0.0529,0.0811,0.092,0.2051,0.2922,0.3436,0.4199,0.4826,0.5293,0.5293,0.5293,0.5293,0.5293,0.5293,0.5293,0.5293,0.5293,0.5293,0.5293,0.5293,0.5293,0.5293,0.5293,0.5293,0.5246,0.4972,0.465,0.4768,0.4534,0.4131,0.4184,0.4243,0.4266,0.425,0.4484,0.4686,0.4197,0.4028,0.3801,0.2704,0.2754,0.2888,0.1869,0.2098,0.2475,0.1919,0.1808,0.1808,0.1808,0.1808,0.1962,0.2495,0.2162,0.1762,0.1628,0.1089,0.0466,-0.02,-0.0755,-0.1334,-0.1953,-0.2202,-0.2504,-0.2923,-0.3112,-0.3586,-0.4477,-0.4552,-0.4947,-0.5914,-0.601,-0.6243,-0.6694,-0.6627,-0.6912,-0.7563,-0.7584,-0.7943,-0.8672,-0.8752,-0.9555,-1.1057,-1.2254,-1.3239,0.834,0.834,0.8326,0.8308,0.8176,0.8033,0.7961,0.7688,0.7525,0.7793,0.0,0.0,0.0,0.0,0.0,0.0,0.4349,0.3798,0.3192,0.245,0.1796,0.1336,0.1111,0.0849,0.0493,0.0567,0.047,0.003,0.0322,0.0458,0.0301,0.1303,0.2326,0.3273,0.3925,0.4586,0.5293,0.5293,0.5293,0.5293,0.5538,0.5522,0.5316,0.5538,0.5522,0.5309,0.5554,0.5522,0.5309,0.5554,0.5507,0.5325,0.5554,0.5381,0.5014,0.5095,0.4836,0.4471,0.4737,0.4689,0.4526,0.4593,0.4947,0.5216,0.4468,0.4518,0.4614,0.3545,0.3585,0.3811,0.3254,0.34,0.3705,0.3807,0.3829,0.3829,0.3829,0.3829,0.3894,0.4164,0.3727,0.3309,0.3309,0.2264,0.1223,0.0622,0.031,-0.0199,-0.1155,-0.1332,-0.1564,-0.2121,-0.2219,-0.2567,-0.3337,-0.3419,-0.3781,-0.4677,-0.5262,-0.5539,-0.5378,-0.5764,-0.5928,-0.585,-0.585,-0.6394,-0.7536,-0.7536,-0.8442,-1.0244,-1.1199,-1.241,0.8803,0.8803,0.8734,0.8495,0.8365,0.8233,0.7928,0.7783,0.7768,0.8003,0.7539,0.0,0.0,0.0,0.0,0.0,0.0,0.3933,0.3302,0.26,0.1869,0.1104,0.0648,0.0332,0.0172,0.0476,0.0555,0.0267,0.0337,0.037,0.031,0.093,0.1913,0.3253,0.3751,0.4409,0.5293,0.5404,0.5467,0.5467,0.5867,0.5913,0.5625,0.5828,0.5797,0.5641,0.5828,0.5797,0.5656,0.5944,0.5898,0.5656,0.5944,0.5882,0.5617,0.5507,0.5255,0.4995,0.523,0.5081,0.4824,0.4963,0.5318,0.5563,0.4768,0.4874,0.5081,0.4239,0.424,0.445,0.4452,0.4553,0.4761,0.5195,0.5303,0.5303,0.5303,0.5303,0.5303,0.5303,0.4957,0.4652,0.4652,0.3331,0.2095,0.1488,0.1398,0.102,-0.0022,-0.0155,-0.0444,-0.1225,-0.1315,-0.1612,-0.2377,-0.2447,-0.2781,-0.3562,-0.4357,-0.469,-0.4512,-0.4976,-0.5081,-0.4787,-0.4787,-0.5386,-0.6588,-0.6588,-0.7486,-0.9221,-1.01,-1.1507,0.8803,0.8803,0.8803,0.8789,0.8537,0.8305,0.829,0.7976,0.7603,0.7227,0.7119,0.6963,0.6521,0.0,0.0,0.0,0.0,0.0,0.0,0.3237,0.2617,0.143,0.076,0.0455,0.0571,0.0772,0.0884,0.0877,0.0575,0.059,0.1041,0.1216,0.1913,0.3253,0.3751,0.4409,0.5293,0.5688,0.5882,0.5882,0.629,0.6473,0.6442,0.6075,0.6114,0.6442,0.6068,0.6106,0.6457,0.6473,0.6473,0.6457,0.6473,0.6473,0.6412,0.6021,0.5867,0.5805,0.5428,0.5293,0.5284,0.5291,0.5481,0.56,0.5056,0.4981,0.5033,0.4673,0.4589,0.4663,0.4993,0.5178,0.5286,0.5303,0.5303,0.5303,0.5303,0.5303,0.5303,0.5303,0.5281,0.5265,0.5265,0.4316,0.3328,0.2741,0.265,0.2428,0.1784,0.1717,0.1269,0.0067,-0.0067,-0.0543,-0.1721,-0.1824,-0.2202,-0.308,-0.3333,-0.3785,-0.446,-0.4515,-0.4814,-0.546,-0.546,-0.5842,-0.6588,-0.6588,-0.6972,-0.7712,-0.9162,-1.0568,0.9432,0.9529,0.9477,0.9262,0.9114,0.8951,0.8703,0.8523,0.8396,0.8249,0.823,0.8066,0.7559,0.0,0.0,0.0,0.0,0.0,0.0,0.3377,0.2954,0.2536,0.1334,0.0763,0.1338,0.1456,0.1492,0.1496,0.1517,0.1478,0.1378,0.1614,0.2236,0.3273,0.3751,0.4548,0.5688,0.5836,0.6037,0.6305,0.6715,0.6751,0.6503,0.6631,0.6624,0.6503,0.6631,0.6616,0.6518,0.679,0.6736,0.6533,0.6796,0.6901,0.685,0.6442,0.629,0.6244,0.5836,0.5522,0.534,0.5609,0.57,0.5688,0.5595,0.5818,0.5952,0.5258,0.535,0.5685,0.579,0.6117,0.6425,0.6416,0.674,0.6909,0.6507,0.6422,0.6422,0.6422,0.613,0.5894,0.5894,0.5248,0.4657,0.4452,0.4077,0.3617,0.2995,0.2625,0.2093,0.1271,0.118,0.0905,0.0188,-0.0693,-0.1532,-0.233,-0.2514,-0.2705,-0.2967,-0.2975,-0.309,-0.3307,-0.3307,-0.3911,-0.5144,-0.5144,-0.577,-0.6945,-0.746,-0.8672,0.9805,0.9905,0.9816,0.9475,0.9408,0.9289,0.8885,0.8803,0.8758,0.8619,0.8585,0.8467,0.8069,0.7404,0.0,0.0,0.0,0.0,0.0,0.3864,0.3498,0.3624,0.2261,0.1495,0.1969,0.2076,0.2031,0.1815,0.1964,0.0,0.0,0.1978,0.2471,0.351,0.3837,0.4606,0.5882,0.6037,0.632,0.6721,0.7118,0.7172,0.6933,0.7044,0.7044,0.6933,0.7044,0.7029,0.6948,0.7201,0.7157,0.6948,0.7216,0.7305,0.7261,0.6865,0.6715,0.6669,0.6411,0.6265,0.621,0.6299,0.6278,0.6214,0.6307,0.6546,0.6686,0.6233,0.6506,0.6895,0.686,0.7217,0.7606,0.7599,0.7897,0.807,0.7682,0.7599,0.7599,0.7599,0.7168,0.6795,0.6795,0.6486,0.6012,0.5389,0.4978,0.4496,0.3898,0.3576,0.3095,0.2279,0.224,0.2023,0.1469,0.0581,-0.0257,-0.1004,-0.1311,-0.1498,-0.1479,-0.1735,-0.1864,-0.1803,-0.186,-0.2458,-0.362,-0.361,-0.41,-0.5039,-0.5307,-0.6282]}]]